ECMWFNIL_850_thetae_000.txt.gz
Theta_e
331 332 332 333 335 336 336 335 332 330 330 330 329 326 323 321 322 321 318 317 320 322 322 321 320 318 319 321 323 326 328 329 330 330 330 329 328 328 328 327 326 326
331 333 333 333 335 337 337 334 328 325 324 325 324 324 322 321 322 320 316 316 318 318 318 318 318 317 319 322 324 325 326 327 328 329 329 328 328 328 328 327 326 326
333 335 335 334 334 336 336 331 325 323 323 323 323 323 322 321 320 318 316 315 316 315 315 316 316 318 320 322 323 324 324 325 326 328 330 330 329 328 327 327 328 328
336 339 338 336 334 334 333 327 322 321 321 320 320 320 320 319 318 317 315 315 315 315 315 315 317 318 319 320 321 322 323 323 323 325 327 328 328 328 327 328 329 329
334 337 338 337 334 331 329 324 319 319 318 316 317 317 318 318 317 316 316 317 317 316 316 317 318 318 318 319 319 321 322 322 322 323 324 325 327 328 327 327 328 328
332 333 333 331 328 325 322 319 317 316 316 316 316 317 317 317 317 316 317 318 318 318 318 318 318 319 320 320 320 321 322 322 322 323 325 327 327 327 327 327 327 328
330 332 331 330 329 326 320 317 317 315 315 316 317 318 318 317 317 317 318 320 320 320 320 320 320 321 322 322 322 322 323 323 323 324 326 327 327 327 327 327 328 329
328 331 329 327 329 327 321 317 317 315 315 316 317 318 318 317 318 319 320 321 322 322 322 322 323 324 325 325 324 324 324 324 324 325 326 326 327 327 328 329 330 329
327 329 327 325 325 323 320 318 317 315 315 316 317 318 318 318 319 320 322 323 324 323 323 324 326 326 326 326 325 325 324 324 324 325 325 326 327 328 328 329 328 325
327 328 327 326 324 322 321 320 318 316 315 316 318 318 318 318 320 322 323 325 323 323 324 325 326 326 325 325 324 324 324 323 324 324 325 327 328 328 327 325 324 323
328 330 331 330 328 326 324 321 319 317 315 317 318 319 320 319 320 323 324 324 323 323 324 326 326 325 324 323 323 324 324 324 324 325 325 327 327 325 324 323 323 324
328 330 335 336 336 333 325 320 319 317 316 319 320 319 320 320 321 323 323 323 322 323 325 326 325 324 324 324 324 325 325 324 324 325 326 327 326 324 323 324 325 326
331 331 335 337 340 339 328 320 319 319 320 325 325 322 320 321 322 323 323 323 323 324 326 325 324 325 325 325 325 325 325 325 325 326 326 326 326 324 324 325 327 328
330 330 333 335 340 344 336 323 318 319 322 326 329 326 322 321 322 324 323 323 323 325 326 325 325 325 325 325 324 324 325 326 325 324 324 324 325 324 325 326 327 328
337 338 342 343 343 346 343 330 324 327 326 322 327 330 326 322 323 324 324 323 323 325 327 327 326 324 324 324 322 322 325 325 324 323 323 323 324 324 325 326 327 326
345 345 346 345 343 344 344 336 331 336 334 326 327 333 330 325 325 326 326 323 323 326 328 328 326 324 324 324 323 323 325 325 324 324 324 325 325 325 325 326 326 325
348 346 344 342 340 342 344 336 329 331 335 333 335 338 336 332 329 328 326 322 322 326 329 329 326 325 325 325 325 326 326 325 325 325 326 327 327 326 327 326 326 325
350 347 344 341 340 341 343 338 328 326 331 332 334 338 339 338 336 331 325 321 323 326 328 328 326 325 325 326 326 327 328 327 327 327 328 328 328 328 328 327 326 324
352 350 346 343 342 341 341 337 331 329 329 326 325 329 335 339 339 332 323 321 323 326 327 326 325 325 326 326 327 328 329 329 329 329 329 329 329 329 329 328 326 324
353 352 348 344 342 339 336 332 329 329 327 325 324 325 328 330 329 326 325 326 327 327 328 326 325 326 326 326 327 329 329 330 330 330 330 329 329 330 329 327 325 323
351 352 349 343 337 333 330 327 329 329 327 326 326 325 324 322 322 323 327 331 332 331 329 327 326 327 327 327 328 329 329 330 331 330 329 328 328 329 329 327 324 324
350 350 345 337 329 327 325 325 327 327 327 327 326 323 321 321 321 322 325 331 334 333 331 328 327 328 329 329 329 330 331 331 331 330 328 327 328 329 328 326 324 324
346 343 336 328 325 326 326 326 328 327 326 325 323 321 320 321 321 322 326 331 334 334 333 331 328 329 330 330 330 331 332 331 330 329 328 328 328 328 326 325 325 325
343 338 331 327 328 328 328 330 331 329 326 323 322 322 321 321 321 323 327 331 333 334 334 333 331 330 330 329 329 329 329 329 328 328 328 328 328 327 326 325 325 325
338 335 331 330 330 328 327 328 328 325 323 321 321 321 320 321 323 325 328 332 334 334 331 329 331 331 329 328 329 328 327 327 328 327 327 327 327 326 325 325 325 324
336 335 333 332 331 328 325 324 322 320 320 321 321 321 323 325 327 328 330 332 334 333 330 328 329 328 326 326 327 326 326 327 327 327 327 326 327 326 326 325 325 324

ECMWFNIL_850_thetae_003.txt.gz
Theta_e
343 342 343 342 339 336 336 339 342 344 343 340 336 334 331 330 328 325 322 321 319 319 322 324 323 321 319 319 320 321 323 326 328 329 330 330 329 327 327 327 327 326
342 340 339 338 335 333 334 338 340 342 341 336 332 330 328 325 323 321 322 322 320 318 319 321 321 320 318 318 319 321 324 326 328 329 331 332 330 329 329 328 327 327
341 338 336 334 331 331 334 337 338 340 339 333 330 329 326 322 321 321 322 323 321 318 317 317 317 317 317 317 319 321 324 326 327 327 329 331 331 332 331 329 328 327
339 337 333 330 329 331 335 340 341 339 336 331 328 327 324 320 319 320 321 321 319 317 316 316 316 315 316 317 319 321 323 324 324 324 325 327 329 330 329 327 327 326
337 335 331 328 328 331 337 342 341 337 332 327 325 324 321 318 318 318 319 318 316 316 316 316 315 316 316 317 318 319 320 321 322 322 323 323 324 325 325 326 326 326
334 332 328 325 327 331 338 344 343 340 336 330 324 323 320 318 317 318 318 317 315 315 316 317 316 316 317 317 318 319 319 320 321 323 323 323 323 324 325 326 326 326
329 327 324 324 327 332 340 347 347 345 342 333 325 321 318 317 317 317 317 316 316 317 317 317 318 318 318 319 320 321 322 321 322 324 324 323 324 324 325 325 326 327
328 326 324 324 328 335 344 349 348 347 344 334 325 320 318 317 316 317 317 317 317 318 318 318 319 320 320 321 322 323 323 323 324 324 324 324 325 325 325 325 326 328
331 329 328 328 332 338 344 347 344 345 344 335 327 324 321 318 317 318 319 319 318 319 320 320 321 321 321 322 322 323 323 323 324 325 324 325 326 326 326 326 327 327
332 328 327 328 330 334 341 344 341 342 344 337 327 323 321 318 318 321 323 322 321 320 321 322 322 321 320 321 321 322 322 323 323 324 325 326 326 325 326 327 327 326
332 325 323 324 327 329 334 341 341 340 343 337 325 319 320 320 319 320 322 322 321 321 323 323 323 321 321 321 321 320 320 321 323 324 325 326 326 326 326 327 326 324
335 326 324 325 325 326 333 340 339 339 342 335 323 320 321 322 321 320 320 321 323 323 323 323 322 320 321 323 322 320 319 321 323 325 326 326 325 325 325 325 324 323
344 336 327 324 324 327 337 342 338 340 342 333 322 320 320 321 322 321 319 321 325 326 325 324 322 321 322 324 323 321 320 322 324 325 326 325 323 323 323 323 324 323
352 347 335 326 324 324 332 339 343 345 342 330 322 320 321 323 324 322 319 320 325 329 328 326 324 322 322 324 323 322 320 322 324 325 324 324 322 322 323 323 323 324
354 352 345 334 327 322 324 333 342 345 338 327 322 321 322 324 325 323 322 321 325 329 329 327 326 323 322 323 323 322 321 322 323 324 325 324 323 323 324 324 324 325
354 353 351 344 335 327 322 324 332 338 337 332 326 322 322 324 325 325 324 322 324 327 329 329 328 324 323 324 324 323 323 323 324 324 326 327 325 325 325 325 326 326
354 352 351 349 343 337 330 327 327 329 334 338 333 325 323 327 328 326 323 323 325 326 328 329 329 327 326 326 327 326 325 326 326 326 327 328 327 326 326 326 327 328
354 353 350 347 345 342 338 336 330 323 328 336 337 332 327 326 328 327 327 330 329 325 328 331 330 329 329 328 330 329 328 328 328 328 328 329 329 328 328 328 329 329
353 352 349 345 344 343 342 341 336 330 331 334 335 336 333 327 327 330 333 336 332 325 328 331 329 327 327 329 331 330 328 328 328 328 330 330 331 331 330 330 330 330
352 351 347 343 344 344 344 344 342 340 338 334 331 333 332 328 330 332 333 337 336 329 326 326 323 322 326 331 333 332 330 331 331 331 331 331 331 332 331 332 331 331
353 350 347 345 345 344 343 343 342 342 341 339 335 335 333 330 332 333 333 337 338 330 322 321 320 322 329 335 335 334 333 333 332 331 331 331 331 332 331 331 330 330
353 351 350 348 346 345 344 343 341 341 341 341 339 339 335 329 328 332 336 338 336 327 320 321 322 326 333 336 334 334 334 333 332 330 328 329 330 330 329 329 329 328
353 352 351 349 348 347 346 341 339 338 338 338 337 337 334 328 328 333 336 334 330 324 321 321 324 329 335 335 333 332 332 331 330 328 327 328 328 328 328 328 328 328
352 352 351 350 350 348 342 335 333 333 333 334 333 333 331 328 329 333 332 327 323 322 322 322 323 328 331 332 333 332 330 330 329 327 327 327 327 327 327 327 327 327
350 350 350 350 347 341 333 329 328 327 328 329 330 330 329 329 329 331 328 323 321 323 323 322 323 326 328 331 331 329 327 326 324 323 325 325 325 326 327 326 326 325
347 347 348 346 340 333 328 326 327 327 327 328 329 328 327 327 328 328 324 321 322 323 323 323 325 327 328 327 327 325 324 323 322 322 322 323 324 326 326 325 325 324

ECMWFNIL_850_thetae_006.txt.gz
Theta_e
346 347 347 347 347 346 345 343 342 342 341 343 344 344 344 345 344 342 341 340 333 324 320 321 323 325 327 327 322 324 330 331 333 334 332 330 329 330 332 331 333 332
344 346 345 347 347 346 345 342 341 341 340 340 341 342 343 344 344 342 341 338 331 326 324 324 325 324 327 331 328 328 331 331 332 333 332 331 331 331 331 332 332 332
343 344 343 346 346 343 343 342 340 340 340 339 340 340 341 342 342 340 338 334 330 329 329 329 329 326 325 329 331 331 333 332 332 334 333 332 332 333 333 333 333 333
340 340 341 344 345 343 342 342 341 340 340 339 339 340 340 339 339 337 333 330 328 330 332 331 331 331 329 329 330 332 333 333 333 334 334 333 332 331 331 332 332 332
338 339 341 344 345 343 342 342 341 339 338 340 340 342 340 335 333 331 327 325 325 328 332 333 331 331 331 330 329 330 332 333 334 333 333 334 333 332 331 332 332 331
338 339 341 342 341 339 340 341 338 333 335 341 343 343 340 332 328 327 324 323 327 331 335 335 333 333 333 332 329 327 328 331 333 333 334 333 332 332 332 333 333 331
338 340 340 338 337 337 337 337 333 329 334 343 346 345 341 332 326 325 322 320 325 331 333 331 328 328 329 329 327 326 326 327 329 331 333 333 332 332 332 332 332 331
336 337 337 335 336 336 334 332 330 328 333 342 347 347 342 333 326 323 320 318 321 325 327 324 321 320 321 323 325 327 328 329 331 332 332 332 332 332 332 332 331 331
333 333 334 334 334 333 331 330 328 326 332 342 348 348 343 333 325 322 319 319 320 321 322 322 320 319 319 320 323 326 327 328 331 333 333 333 333 332 332 332 331 331
333 331 330 331 331 331 331 331 328 325 331 341 347 348 344 332 324 322 319 318 319 320 320 319 319 319 320 321 323 324 324 324 328 331 332 333 332 331 330 330 330 332
332 331 329 330 329 329 332 333 329 325 330 340 344 345 342 333 323 319 319 320 324 327 326 323 321 320 321 323 324 324 323 323 327 332 333 332 330 327 324 325 328 330
333 332 329 326 327 334 339 336 328 325 331 339 342 342 341 336 326 319 320 326 328 329 329 328 325 321 320 323 325 324 324 323 327 332 333 332 330 325 323 326 329 330
335 333 331 332 339 346 346 338 327 324 330 339 344 342 338 334 328 322 323 328 329 327 327 328 327 323 321 324 325 325 325 325 328 332 332 332 331 328 328 330 331 331
339 341 345 349 350 349 344 336 328 324 329 337 340 335 330 329 328 323 322 325 327 326 326 327 327 324 322 323 325 325 325 326 328 331 332 332 332 332 331 330 331 331
351 353 355 353 351 347 342 334 326 324 327 331 330 327 329 335 335 327 322 324 325 326 326 326 327 326 323 322 323 323 324 326 328 329 331 333 333 333 333 332 333 334
357 356 356 354 351 350 347 339 330 326 325 325 325 324 330 340 342 334 325 324 324 325 325 326 325 326 324 322 321 322 324 326 328 327 328 330 331 333 334 334 334 334
359 357 356 355 354 353 353 350 344 335 327 324 325 324 326 334 340 340 333 327 325 324 325 325 325 326 325 322 322 324 325 327 328 328 328 328 329 331 332 331 331 331
359 357 356 356 356 355 355 355 352 345 334 327 324 323 324 327 335 340 337 330 325 323 325 326 324 325 324 322 324 327 327 328 329 330 330 330 329 328 328 329 330 330
358 357 357 356 356 356 355 355 353 349 342 333 327 324 323 323 328 337 339 334 328 324 326 327 325 323 324 324 327 330 329 330 331 331 332 331 330 328 328 329 330 331
357 357 357 357 356 355 354 353 351 349 345 341 334 330 325 322 326 334 338 336 330 326 328 329 324 323 325 327 330 333 331 329 329 330 331 331 329 329 329 331 332 332
357 357 356 356 355 354 353 352 351 349 347 344 339 333 328 324 328 334 335 332 330 330 330 328 325 327 330 331 333 333 328 324 324 328 331 331 331 331 332 332 332 331
356 355 355 354 354 353 352 351 350 348 346 344 341 337 331 327 331 335 333 331 333 334 331 328 328 331 333 334 334 330 324 320 321 326 332 333 332 333 334 333 331 329
353 353 353 352 352 352 351 350 349 347 345 344 343 341 339 336 336 335 330 330 335 335 331 329 330 333 334 333 331 326 321 320 322 326 332 333 332 333 332 330 329 328
348 349 349 350 350 350 350 349 348 347 345 345 344 343 342 341 339 337 335 335 337 336 333 332 333 334 332 328 325 323 322 322 323 327 332 333 331 330 328 326 326 326
342 345 348 348 349 349 349 348 347 346 344 343 342 342 342 341 341 340 339 339 338 337 335 334 335 334 328 324 323 322 322 323 325 329 331 329 327 325 323 323 323 324
337 342 346 347 347 348 347 346 345 344 342 341 341 340 340 340 339 339 339 338 337 337 335 332 332 332 328 324 323 322 322 324 326 328 326 324 323 323 323 323 323 324

ECMWFNIL_850_thetae_009.txt.gz
Theta_e
343 343 342 343 344 346 349 351 350 349 349 350 349 347 347 346 346 344 343 343 342 341 337 331 326 325 328 329 324 324 331 334 335 336 335 336 336 335 336 335 335 336
344 343 342 343 344 345 347 349 351 349 346 345 346 348 348 347 347 345 343 343 342 340 336 330 324 320 323 332 329 322 326 332 334 336 336 336 336 336 336 336 335 335
345 344 343 342 344 347 347 347 347 346 345 344 344 347 348 346 347 345 342 343 342 339 335 331 330 323 320 329 332 327 329 332 334 336 336 336 336 337 337 336 335 335
345 345 345 342 343 347 348 347 346 343 344 346 346 347 346 345 345 344 340 341 340 339 337 334 334 332 326 325 329 330 333 335 334 335 335 336 336 336 336 336 336 336
345 346 346 343 343 346 348 348 347 345 346 348 348 346 344 342 343 343 342 339 335 336 339 336 333 335 334 327 325 327 331 334 335 334 334 335 335 335 335 335 336 335
346 347 347 346 342 341 346 348 349 349 349 349 348 345 342 338 339 342 342 341 336 334 338 338 332 332 333 330 327 327 329 332 335 336 335 335 335 334 334 334 334 335
346 346 347 349 345 340 344 348 349 348 347 349 348 343 340 339 339 341 338 335 335 335 333 330 329 330 330 328 326 325 326 328 330 331 332 334 335 335 334 334 334 335
345 345 345 348 349 348 348 348 348 345 342 346 346 340 339 340 340 340 335 327 326 329 327 323 326 329 329 326 322 322 323 323 326 330 331 332 334 335 335 335 335 335
345 346 346 348 350 351 348 347 349 345 340 341 341 337 337 339 339 337 331 325 321 321 321 322 325 326 325 323 322 322 322 321 326 333 335 336 335 334 335 335 335 335
345 346 349 353 352 350 348 349 349 345 340 337 333 331 332 334 334 330 326 327 324 318 317 319 322 322 323 322 321 322 324 321 322 327 332 335 334 333 334 336 335 335
342 348 355 357 353 349 346 348 348 342 339 337 330 326 327 326 327 324 322 327 327 321 317 318 321 322 324 324 323 324 324 322 322 323 326 330 330 329 333 336 335 335
343 353 360 356 349 345 340 341 344 339 335 336 332 327 327 325 325 322 321 327 329 325 319 318 321 324 325 324 324 327 327 323 322 323 326 329 327 328 333 336 334 334
353 357 357 348 341 341 337 339 344 339 332 333 332 329 328 326 325 323 323 326 330 329 322 318 322 325 326 324 325 327 327 324 323 322 324 326 324 326 333 335 333 333
364 361 352 339 337 338 336 338 339 336 333 331 330 329 328 327 325 324 324 323 328 332 327 320 322 327 327 325 324 326 326 325 324 321 321 323 321 322 328 331 332 333
366 361 353 343 339 338 336 335 331 328 329 329 328 328 327 327 326 325 325 323 326 332 330 323 324 328 328 326 325 325 325 325 324 321 321 323 323 323 324 328 331 333
365 362 359 353 346 339 336 335 330 326 326 325 326 328 327 327 326 325 327 328 329 333 332 327 325 326 327 326 325 325 325 325 324 322 321 323 325 325 325 326 327 328
365 363 361 357 352 346 342 340 336 332 330 328 327 328 327 325 324 324 327 330 334 337 335 331 327 326 325 325 325 325 325 325 323 321 321 324 326 326 325 325 324 324
365 363 361 358 356 353 350 348 345 341 338 334 332 331 329 326 324 325 326 329 336 340 338 334 329 326 325 324 325 325 325 324 323 323 323 324 326 327 327 327 326 326
364 361 360 358 357 355 355 354 351 349 347 343 340 337 333 329 326 325 326 328 335 340 339 335 332 329 327 325 324 325 325 324 324 325 327 325 326 328 329 329 329 328
362 361 360 358 356 356 356 355 354 353 353 350 347 344 341 337 330 327 328 329 333 339 339 336 335 334 332 329 327 325 325 325 326 328 329 327 327 330 331 331 330 329
361 362 360 357 356 356 356 356 355 355 354 353 352 350 350 346 338 332 332 331 332 336 337 336 336 336 335 332 329 327 326 327 328 329 330 329 329 331 332 332 331 329
361 362 360 357 356 356 356 356 355 355 354 353 353 352 350 348 344 340 337 334 333 334 336 337 337 336 335 332 329 328 328 329 329 329 331 331 329 328 330 333 334 333
361 360 358 355 355 355 355 355 354 354 353 352 352 351 349 347 345 344 341 338 337 336 338 339 337 336 336 335 332 330 328 327 327 327 331 331 327 327 331 334 333 331
360 356 353 353 354 354 353 353 353 352 351 351 349 349 347 345 344 344 342 341 341 340 340 339 337 337 337 336 334 332 329 328 327 329 333 331 326 328 333 334 330 328
355 351 350 351 351 351 351 351 351 350 349 349 348 347 346 345 344 343 343 342 341 341 340 339 338 339 339 337 334 332 331 332 332 333 334 330 326 330 334 332 328 328
351 351 352 351 349 350 350 350 350 349 348 348 347 346 346 345 344 344 343 342 342 341 341 340 339 340 340 337 334 332 332 334 335 333 330 328 328 333 335 331 326 327

ECMWFNIL_850_thetae_012.txt.gz
Theta_e
351 352 351 348 346 347 352 353 350 348 346 344 344 343 342 344 344 343 343 342 340 339 333 324 317 318 322 322 322 327 329 330 334 336 334 334 332 333 336 336 336 335
348 349 349 347 346 347 351 352 349 346 345 347 347 345 343 342 342 343 343 343 339 335 328 319 317 316 318 320 319 320 322 322 326 333 335 334 335 336 336 335 336 335
346 347 346 346 345 345 349 352 351 349 347 348 349 348 344 342 343 344 343 341 338 335 329 320 318 317 316 319 319 319 320 318 320 328 333 331 330 332 333 335 337 337
345 345 344 344 343 343 345 349 351 351 350 348 348 347 344 341 342 343 341 339 337 334 329 322 318 318 316 317 320 320 320 320 320 328 334 331 326 327 330 332 335 336
344 344 344 344 343 342 343 345 348 350 349 346 345 345 344 340 341 342 339 337 337 335 330 324 319 319 317 317 319 320 321 322 322 327 334 334 330 328 327 327 328 329
345 344 344 344 343 342 342 344 348 348 346 344 344 344 343 341 340 341 338 336 336 336 332 325 321 320 318 317 319 319 321 323 324 327 330 331 330 328 328 329 330 329
345 345 345 344 343 343 344 345 347 347 345 344 343 344 343 342 341 341 339 336 336 338 335 327 323 321 319 318 319 320 321 323 325 329 330 330 329 328 328 330 332 333
346 345 346 345 343 344 347 347 346 345 344 343 343 343 342 342 342 341 339 337 337 338 336 330 325 322 320 319 320 322 324 323 324 329 334 334 333 331 328 326 327 327
349 348 346 345 344 345 347 346 344 343 342 343 342 342 342 341 341 341 339 338 336 336 336 332 327 324 322 320 321 324 325 324 323 326 331 332 332 330 327 324 322 321
353 352 348 347 347 345 343 342 342 341 340 341 341 341 341 340 339 340 339 337 335 335 337 335 330 326 322 320 322 325 326 325 323 323 325 328 328 327 324 321 320 321
352 353 353 353 351 346 340 338 340 341 337 336 338 339 339 339 338 338 337 336 334 335 336 335 332 327 322 319 322 325 326 325 324 324 326 330 331 329 324 320 318 321
351 353 358 359 354 348 341 337 340 342 337 333 334 336 337 339 339 338 337 335 333 334 335 335 334 329 322 319 321 324 326 325 324 324 326 330 332 330 325 320 318 321
353 353 358 358 355 351 346 342 341 341 338 332 331 335 338 339 340 339 339 338 335 334 334 335 335 330 324 320 320 323 326 326 325 325 325 326 328 326 324 322 320 321
357 356 356 355 353 353 350 346 344 341 339 337 333 333 335 338 340 340 340 340 337 334 334 336 335 331 326 322 320 323 326 327 326 326 326 326 328 327 325 325 324 321
360 361 359 355 354 354 351 347 343 339 339 341 338 335 334 338 339 339 340 341 338 335 335 337 336 333 329 326 322 322 325 327 326 326 327 328 331 330 327 325 324 322
362 364 363 359 356 354 351 346 342 340 340 341 339 337 338 340 341 340 340 340 338 336 337 338 338 335 332 329 325 322 324 327 326 326 327 329 332 332 327 322 322 323
361 363 364 362 358 354 352 349 345 343 343 342 340 339 342 344 344 342 342 342 341 338 337 338 338 337 334 331 327 323 323 326 326 326 326 328 332 333 328 322 321 323
360 364 365 364 360 356 353 351 349 348 347 345 343 343 345 345 345 344 344 345 343 339 338 339 340 338 335 332 329 325 324 326 326 326 327 328 330 331 329 324 322 323
361 365 366 365 362 359 356 354 352 350 348 346 346 346 346 346 346 346 346 345 343 340 340 341 342 340 337 333 330 326 325 326 326 325 328 330 331 331 329 325 324 325
364 367 366 365 364 361 359 357 354 351 348 346 346 346 347 348 348 347 345 344 342 340 341 341 341 340 338 335 332 328 326 326 325 324 326 330 332 333 331 328 326 326
365 366 366 366 365 363 362 359 356 354 351 348 348 347 347 348 347 346 345 343 342 341 340 340 340 339 338 336 334 332 330 327 326 325 325 327 329 333 333 330 327 328
364 366 366 366 365 364 362 360 358 356 354 352 352 350 350 349 348 346 345 343 342 341 340 340 340 339 338 337 336 336 334 333 330 327 325 325 326 329 330 329 328 331
364 365 366 366 366 364 362 361 359 358 356 355 354 353 352 350 349 348 347 345 344 343 342 341 340 339 339 338 338 337 336 336 334 330 327 326 327 328 329 329 330 331
364 365 366 367 365 364 362 360 358 357 356 355 355 354 353 351 350 350 349 349 347 345 343 342 341 340 340 338 338 337 336 336 335 332 329 327 329 331 331 330 330 330
368 367 367 366 363 361 360 359 358 356 356 356 355 354 354 353 352 351 349 348 346 345 344 343 342 341 340 339 339 338 338 337 336 333 330 329 331 331 329 329 330 330
367 365 365 363 360 359 358 357 356 355 355 355 355 354 354 352 351 349 347 346 345 344 343 343 342 341 340 340 340 339 339 339 337 334 331 330 331 330 330 331 331 330

ECMWFNIL_850_thetae_015.txt.gz
Theta_e
340 342 344 346 349 351 352 350 349 348 346 342 340 341 341 342 341 339 339 339 338 338 339 339 342 338 325 320 324 327 329 330 326 322 319 317 318 321 325 329 333 335
340 342 344 345 348 350 351 349 348 347 344 342 341 341 342 343 342 341 340 340 337 336 337 338 337 331 322 318 321 322 323 325 323 321 320 320 319 320 324 330 333 334
341 341 344 346 348 349 349 348 348 346 342 339 340 340 342 343 343 342 341 340 338 336 337 336 329 322 318 319 319 319 320 321 320 319 322 324 323 322 326 331 333 333
342 342 344 346 348 348 348 348 348 346 342 339 339 340 342 344 343 342 342 341 340 339 339 336 329 322 319 318 319 319 320 320 319 318 321 325 326 325 328 332 334 334
342 342 344 346 348 349 348 347 346 345 342 340 338 339 342 344 343 342 342 342 341 341 340 339 335 327 320 318 319 320 320 320 319 319 320 323 326 327 330 333 334 334
344 343 344 345 347 348 347 346 345 343 341 339 339 339 341 343 344 343 343 342 342 342 340 338 337 331 322 318 318 319 320 320 320 320 320 322 325 326 328 330 331 332
345 343 344 345 346 346 346 345 344 343 341 339 339 340 340 342 344 344 343 342 342 341 341 338 336 335 328 321 318 319 320 321 321 321 321 322 324 325 326 326 327 329
345 343 343 345 345 344 344 343 343 342 341 340 340 340 341 343 344 345 344 343 342 341 341 339 337 336 334 326 320 319 320 321 321 322 323 323 324 324 324 323 323 325
346 343 343 345 345 343 342 341 341 341 341 339 339 339 341 342 343 344 344 343 342 341 341 340 338 336 336 331 323 318 320 323 323 324 325 325 324 324 324 323 322 322
349 345 344 345 344 342 340 340 340 340 339 338 338 338 340 341 342 343 343 343 343 342 342 341 339 337 337 334 327 320 320 323 325 325 326 325 325 324 323 323 322 321
351 348 345 344 343 341 339 340 339 339 338 337 337 337 338 340 342 343 343 343 342 342 342 342 340 338 337 336 331 323 320 322 325 326 326 325 325 325 324 322 321 320
354 351 347 342 341 339 338 340 340 339 338 336 335 335 337 339 342 343 343 343 342 342 342 342 341 339 338 336 334 327 321 321 325 326 325 325 325 325 324 324 323 321
354 351 346 341 339 337 337 340 341 340 339 336 333 332 334 336 340 342 342 343 343 342 342 342 341 340 340 338 335 331 324 320 324 326 326 325 325 325 325 325 325 323
352 348 344 340 336 336 337 339 340 340 339 338 335 333 331 331 334 337 340 342 343 343 342 342 342 341 341 339 337 335 327 321 322 326 326 325 325 325 325 325 324 323
351 347 344 340 337 337 338 338 339 340 340 340 339 336 333 332 333 335 338 340 342 343 343 343 344 343 341 340 338 336 331 324 321 324 327 326 325 325 326 326 326 324
352 348 346 343 339 338 338 339 339 340 341 342 341 340 340 339 338 339 340 341 342 343 344 344 345 344 343 341 339 338 335 328 322 323 326 326 325 325 326 327 327 326
354 349 347 345 342 341 340 341 342 343 344 345 345 345 346 345 345 344 344 344 344 345 345 346 346 345 344 343 341 340 337 332 325 322 325 326 326 326 326 327 327 328
358 353 351 348 347 346 345 345 347 349 350 350 349 349 350 350 350 349 348 347 347 347 347 347 347 346 346 344 343 341 339 335 328 323 323 326 326 326 327 326 327 330
360 358 355 352 352 351 349 349 353 355 355 353 352 352 352 353 353 352 351 349 349 349 349 348 348 348 348 346 344 342 340 337 331 324 323 325 326 326 327 327 327 330
361 360 358 357 355 354 353 354 355 357 357 356 355 354 353 354 353 353 353 352 351 350 349 349 349 349 349 347 345 343 341 338 334 327 323 324 326 326 326 327 327 329
359 360 360 360 359 358 358 358 358 359 359 358 357 355 354 353 353 353 353 352 352 351 350 350 350 350 349 347 346 344 343 341 337 330 324 323 325 326 326 327 327 329
358 360 361 361 360 360 361 361 361 361 360 359 358 356 355 354 353 353 352 352 352 351 351 351 351 350 349 347 346 345 343 342 338 331 324 323 326 330 330 329 329 332
357 359 361 362 360 360 363 363 363 362 360 360 358 357 356 355 353 353 352 351 351 351 351 351 350 349 347 345 344 342 341 340 337 330 325 324 327 332 333 332 333 335
355 357 360 362 360 360 362 363 363 363 361 360 358 357 356 355 354 353 352 352 352 352 351 350 348 347 345 343 342 340 339 339 336 334 330 326 326 329 330 331 332 333
354 356 359 360 361 360 361 362 363 363 362 361 359 358 357 355 354 354 353 353 352 351 350 349 347 346 344 343 342 340 339 338 338 337 334 330 328 327 328 329 328 329
353 357 359 360 360 360 361 363 364 363 363 362 360 359 358 357 356 354 353 352 351 351 350 348 347 345 343 342 341 340 340 339 338 337 336 334 332 330 329 328 328 328

ECMWFNIL_850_thetae_018.txt.gz
Theta_e
344 340 338 338 338 339 341 343 344 345 345 345 344 344 344 342 342 342 340 340 340 340 338 337 338 337 333 330 326 323 325 326 322 318 318 317 316 318 320 322 326 330
345 341 339 339 339 339 340 343 343 345 345 345 344 344 344 342 341 341 339 340 340 338 337 337 337 337 337 336 330 322 321 323 322 319 318 317 317 317 319 321 323 329
348 344 341 340 340 340 341 342 343 345 346 345 344 344 344 342 341 340 339 340 339 337 337 336 337 337 336 337 331 322 320 321 321 319 318 318 317 317 318 320 322 327
348 345 342 340 340 340 341 342 343 346 347 346 345 345 344 343 341 340 340 341 339 338 336 336 336 335 335 333 327 320 320 321 320 319 318 318 318 317 317 319 322 327
348 345 343 341 340 341 342 342 343 345 347 346 345 345 344 343 342 341 341 342 341 339 337 335 335 336 333 328 322 319 319 320 320 319 319 318 319 319 318 319 322 326
348 346 343 342 341 341 341 343 343 344 346 345 344 345 345 344 342 341 342 343 343 341 339 337 336 336 330 323 320 319 319 320 321 321 320 319 319 320 320 320 322 324
350 348 346 343 342 341 341 342 343 345 346 345 344 344 344 344 343 342 341 342 343 342 340 338 338 338 333 327 323 319 318 320 320 321 321 321 320 321 321 322 322 324
351 351 348 345 343 342 341 342 343 345 346 346 345 344 344 343 342 341 341 342 343 342 341 340 339 340 338 335 329 321 318 319 320 321 322 322 322 322 322 322 322 323
352 351 350 348 345 341 341 342 343 345 346 347 346 344 344 343 342 341 341 342 343 343 342 341 340 340 340 339 334 326 320 319 320 321 322 324 324 323 323 323 322 322
353 351 351 350 345 341 341 342 343 345 346 347 347 345 344 343 342 341 340 341 342 343 343 342 342 341 341 340 337 332 325 321 320 320 322 324 325 324 324 324 323 322
354 352 350 349 344 341 341 342 343 344 345 346 347 345 344 343 342 342 341 341 341 342 344 343 343 342 341 341 339 336 332 326 321 319 322 324 325 325 324 324 323 322
355 353 350 346 342 339 341 343 343 344 344 344 345 344 344 343 342 341 340 340 341 342 344 344 344 343 342 342 341 339 337 332 324 319 321 324 325 325 325 324 324 323
356 354 349 344 340 337 339 343 344 344 343 342 342 343 344 343 342 342 340 340 341 342 344 345 345 344 343 343 342 341 339 337 330 321 319 323 326 325 325 325 324 324
356 355 349 343 338 337 339 342 344 343 342 341 341 341 342 341 341 341 342 342 343 343 344 345 345 345 345 344 344 343 341 339 335 326 320 322 325 326 325 325 324 324
357 356 352 345 341 340 340 341 343 343 342 341 341 340 340 342 342 343 344 344 344 345 345 345 346 345 345 344 344 344 342 341 338 332 324 321 324 326 326 325 325 324
358 357 355 350 344 342 341 341 342 344 343 342 341 340 340 343 346 347 347 346 345 346 346 346 346 346 346 345 345 345 344 342 340 337 330 322 322 325 326 326 326 325
358 358 357 353 347 344 343 342 343 345 345 344 342 341 343 346 347 348 347 346 346 345 346 346 346 346 346 346 346 346 345 344 342 340 335 327 322 323 325 326 326 326
359 359 358 356 352 348 346 345 346 347 347 346 345 344 345 347 348 347 346 345 345 345 346 346 346 346 346 347 347 347 346 345 344 342 340 335 327 322 323 326 326 325
359 359 358 357 354 351 351 351 351 351 349 348 347 345 346 347 347 347 347 347 347 346 346 346 346 346 347 348 348 347 347 346 345 344 342 340 334 326 322 324 326 326
359 359 358 357 356 355 355 355 354 353 352 350 349 348 347 347 347 348 349 349 348 348 347 347 346 347 348 348 348 348 348 347 346 346 344 342 339 333 325 323 325 326
358 359 358 358 358 357 357 356 356 355 354 352 352 350 349 348 348 349 349 349 350 350 350 350 349 349 349 349 349 349 349 348 347 347 345 343 342 338 330 324 323 325
358 359 359 359 359 359 358 357 356 356 354 353 353 352 351 350 350 349 349 350 350 351 352 352 352 351 350 350 350 350 349 349 348 347 346 344 342 340 335 327 323 324
358 358 360 360 360 359 359 357 357 355 354 354 354 353 353 352 351 351 351 351 352 352 353 354 353 353 352 351 351 350 350 350 349 348 346 344 343 341 337 332 325 324
358 359 360 360 360 359 358 358 357 355 354 353 353 354 353 352 353 353 354 354 354 354 354 354 354 354 353 352 352 351 351 350 349 348 346 345 343 341 339 335 328 324
358 359 360 360 360 359 359 359 357 356 355 354 353 354 353 353 354 356 357 357 356 355 355 355 355 354 353 352 352 351 349 348 348 347 346 345 343 341 340 336 330 325
359 359 359 360 360 359 359 359 358 357 357 356 355 356 354 355 357 358 358 358 357 356 355 354 354 353 353 352 350 348 347 346 345 344 344 344 343 342 339 335 330 327

ECMWFNIL_850_thetae_021.txt.gz
Theta_e
348 348 347 346 345 343 342 341 340 342 342 342 343 343 344 344 343 342 344 347 347 347 347 343 339 339 338 336 330 325 325 325 326 327 325 322 321 322 322 322 324 325
349 350 349 348 347 344 344 342 341 341 341 341 342 342 344 345 343 342 343 346 347 345 344 341 339 339 338 335 329 326 324 323 324 326 323 319 317 318 318 318 320 323
350 351 351 350 348 346 343 342 341 341 340 341 342 343 344 345 344 342 343 345 344 343 341 340 339 339 337 335 332 331 328 322 322 323 321 319 317 317 316 316 318 320
350 351 351 350 349 347 344 341 341 341 340 340 342 343 344 345 345 343 343 344 343 341 339 339 339 338 337 336 335 335 333 326 321 321 321 320 318 317 317 316 317 319
351 351 351 350 350 349 346 341 339 340 340 340 342 344 344 345 346 344 343 344 342 341 339 339 339 337 336 336 336 335 332 327 322 321 322 321 319 318 317 317 317 318
351 351 351 351 350 350 347 341 337 338 339 339 341 343 344 345 346 345 343 343 342 340 339 339 339 337 335 335 335 333 329 326 323 321 320 321 320 319 318 318 318 318
352 352 351 352 351 350 348 342 337 337 338 339 340 342 343 344 346 346 344 343 342 340 339 339 339 337 335 334 334 332 327 324 322 321 320 320 320 319 318 318 319 318
352 352 352 352 352 351 348 342 337 336 337 339 341 341 342 344 346 346 344 343 341 340 339 340 339 338 336 334 334 332 328 325 322 320 319 320 320 319 319 319 319 319
353 353 353 353 352 351 347 342 338 336 337 339 340 341 342 343 345 346 345 343 342 340 340 340 340 340 337 336 335 334 330 328 324 320 319 320 320 320 319 319 320 321
353 353 353 353 352 350 347 343 339 337 336 338 339 341 342 343 345 346 346 344 343 342 340 340 340 341 339 338 337 336 334 331 327 322 319 319 320 320 320 320 320 321
354 354 353 353 352 350 348 345 341 338 336 337 339 340 341 343 344 346 346 345 344 343 341 340 340 341 341 340 338 338 337 335 332 327 322 319 319 320 320 320 321 322
354 354 354 353 352 350 349 347 344 340 337 337 338 339 340 342 344 346 347 345 344 343 343 341 340 340 341 341 340 340 339 338 337 334 327 321 319 319 321 321 322 322
354 354 354 353 352 350 350 349 347 343 338 337 338 338 339 341 343 345 347 347 346 344 343 343 342 341 341 341 341 341 341 340 340 339 334 326 321 319 319 321 322 323
354 354 354 353 352 351 350 350 349 347 341 338 337 338 339 340 342 344 346 348 348 346 345 345 344 343 341 341 342 342 342 342 341 341 339 334 327 322 319 320 322 324
354 354 354 353 353 352 351 351 350 349 345 340 337 337 339 340 341 344 346 348 349 348 346 346 346 344 342 341 343 343 344 343 343 342 341 339 335 329 322 319 320 324
355 354 354 354 354 353 352 352 351 351 349 344 338 337 338 340 341 343 345 347 348 348 346 346 345 344 343 343 343 344 345 345 344 343 343 342 340 337 331 323 319 322
355 355 355 354 354 354 354 353 353 352 351 348 343 339 338 339 341 343 345 347 347 347 346 345 344 344 344 344 344 345 346 346 346 345 344 343 343 341 338 331 323 320
356 356 355 354 354 355 354 354 354 353 353 351 348 343 338 337 339 342 344 345 346 347 345 343 343 344 345 345 345 346 347 347 347 346 345 345 344 343 342 339 331 322
356 356 356 355 355 355 355 356 356 354 353 352 350 346 341 338 338 340 342 344 345 346 344 343 343 345 346 346 346 347 347 347 347 347 347 346 346 345 343 342 338 330
357 357 356 356 356 356 357 357 356 356 354 353 352 350 345 339 337 339 340 341 343 343 342 342 343 344 345 346 347 347 348 348 348 348 348 347 347 346 345 344 342 338
357 357 357 357 358 357 358 357 357 357 355 354 354 351 346 341 338 338 337 339 340 341 342 342 342 343 345 346 347 348 348 348 349 349 348 348 347 347 346 345 343 341
356 357 357 358 358 359 359 358 358 357 356 356 354 351 349 347 343 339 336 337 339 340 341 341 341 343 345 346 347 349 349 349 350 349 349 349 348 348 347 346 344 342
357 357 358 358 359 359 359 358 358 357 357 356 355 353 352 349 345 340 337 337 338 340 341 341 341 343 345 347 349 350 350 351 350 350 350 349 349 348 347 346 345 344
356 357 358 359 359 359 359 358 358 358 357 356 355 354 352 348 345 343 339 337 338 339 339 340 342 344 345 348 350 350 351 352 351 351 350 350 349 349 347 347 347 345
356 358 358 359 359 359 359 358 358 358 358 357 356 354 352 350 349 347 343 340 339 339 340 342 345 346 347 349 351 352 352 353 352 351 350 350 350 349 348 348 347 345
357 358 358 358 358 359 359 358 358 358 358 358 357 356 355 354 353 351 347 344 342 341 343 345 347 348 350 351 352 353 353 353 352 351 350 350 349 348 348 348 347 346

ECMWFNIL_850_thetae_024.txt.gz
Theta_e
348 347 346 345 345 343 342 341 340 339 337 336 338 339 339 340 340 342 345 347 347 345 345 345 346 346 344 342 339 337 336 333 327 325 326 324 321 320 322 324 326 329
349 348 348 347 347 346 344 342 341 340 338 337 338 339 340 341 341 343 346 347 347 344 344 345 346 346 344 341 338 337 334 330 325 325 325 322 320 319 319 320 323 325
349 348 349 348 348 347 345 344 342 342 340 339 339 339 340 341 341 343 346 348 348 345 344 344 346 346 344 340 338 337 333 327 324 324 324 322 320 318 317 317 318 319
348 348 349 349 349 348 346 345 344 344 344 342 340 338 339 340 341 341 344 347 347 346 344 344 345 345 342 338 337 337 333 327 324 324 323 322 320 319 318 317 316 317
348 348 348 349 349 349 348 347 346 346 345 344 342 340 339 339 340 341 343 345 346 345 344 343 345 345 341 338 337 336 335 331 328 325 323 321 320 320 318 317 317 317
348 348 348 349 349 349 349 347 347 347 347 347 345 341 339 337 338 340 341 344 345 345 344 343 344 344 340 337 337 336 335 334 333 330 325 321 321 321 320 319 318 318
348 348 348 349 349 349 349 348 348 348 349 349 348 344 340 337 336 337 340 343 344 346 345 344 344 343 340 338 337 336 335 335 336 333 328 324 322 321 321 320 318 318
347 348 348 349 349 350 349 349 349 349 349 349 349 346 342 338 336 337 338 341 344 345 346 345 344 342 340 337 337 336 335 334 335 333 329 325 324 322 320 321 319 319
347 348 349 349 350 350 349 349 349 349 350 350 350 348 344 339 336 336 337 340 342 344 346 346 345 343 340 338 338 337 335 333 333 332 328 325 324 321 320 321 320 319
348 349 349 349 350 349 350 349 350 350 350 350 350 350 347 341 337 337 337 338 340 342 345 346 345 343 340 338 338 337 336 335 334 332 328 325 323 321 320 321 320 319
348 349 349 349 350 350 350 350 350 350 351 351 351 350 348 343 338 337 337 338 338 340 343 346 345 343 340 339 338 338 338 337 335 334 330 328 325 323 321 320 320 320
349 349 349 349 349 350 350 350 350 351 351 351 351 351 349 345 340 338 337 338 338 339 341 344 345 344 340 338 338 338 339 339 337 335 334 332 330 326 323 320 319 319
349 349 349 349 350 350 351 351 351 352 352 351 352 351 349 345 340 337 337 337 338 339 341 343 344 344 342 340 339 338 338 339 339 338 336 335 334 331 328 323 319 319
349 349 349 350 351 350 351 351 351 352 353 352 352 351 348 344 340 337 337 337 337 338 340 342 344 345 344 342 340 339 337 338 340 340 339 338 337 336 334 330 325 321
349 350 350 350 351 351 351 352 352 352 353 353 352 350 347 344 340 338 337 337 337 338 340 341 343 344 344 343 342 340 338 338 339 340 341 340 339 339 338 337 333 328
350 350 351 351 351 352 352 352 352 353 353 353 352 351 347 345 342 339 337 337 337 338 338 340 342 343 343 343 343 342 341 340 339 339 340 341 341 341 341 340 339 336
351 351 352 352 352 352 352 353 353 354 354 353 352 350 348 347 344 340 337 336 337 337 338 339 340 341 341 342 343 344 343 342 341 340 340 341 341 342 342 342 341 340
351 351 353 353 352 352 352 353 353 354 354 353 352 351 349 348 345 341 338 338 338 337 338 339 339 339 339 340 342 343 344 343 342 342 341 342 343 343 344 344 343 342
351 352 353 352 353 352 352 353 353 353 353 354 353 352 350 348 344 341 340 340 339 338 337 338 339 339 339 339 340 342 343 343 343 343 343 343 343 343 345 345 345 345
352 352 353 353 353 353 353 353 353 353 354 353 353 352 352 349 347 344 343 342 341 339 337 338 337 337 338 339 339 341 342 343 344 344 344 344 344 344 345 346 347 347
353 353 353 354 354 354 354 354 353 354 353 353 353 353 352 351 349 346 344 343 342 340 339 337 336 336 337 337 339 340 341 343 344 345 345 345 345 346 346 347 348 347
353 353 354 354 354 354 354 354 354 353 353 353 353 353 353 352 351 349 347 346 345 343 340 337 335 337 337 337 338 340 342 344 345 346 346 346 346 347 348 348 348 348
352 354 354 354 355 355 354 354 354 353 353 354 354 353 353 353 353 353 352 350 348 346 341 338 336 336 337 337 337 340 343 345 346 346 346 347 347 348 349 349 348 348
352 354 354 354 354 354 354 354 354 353 354 354 354 354 354 354 354 354 354 353 351 347 343 340 339 337 337 337 338 341 343 344 345 345 347 348 348 349 349 349 349 349
353 354 354 353 354 354 355 355 354 354 354 354 354 354 354 355 355 355 356 355 353 350 347 345 344 341 339 339 341 343 343 344 345 346 348 349 350 350 350 350 350 349
352 354 353 354 354 354 354 355 355 355 354 354 355 355 355 356 356 356 356 356 355 354 352 350 348 346 345 345 344 344 343 344 346 348 349 350 351 351 351 351 350 350

ECMWFNIL_850_thetae_027.txt.gz
Theta_e
346 345 344 344 342 341 339 337 336 335 335 335 336 335 335 335 336 337 337 338 338 339 340 342 344 346 347 346 345 345 344 339 335 332 328 323 322 323 327 330 330 330
346 346 346 346 345 344 342 340 338 337 336 336 335 335 335 335 336 337 338 339 339 339 341 343 344 346 346 345 345 345 343 338 334 332 327 324 323 323 324 326 326 326
345 346 346 346 347 346 345 344 342 341 339 338 337 337 336 336 336 337 339 340 340 340 342 345 345 345 345 345 345 346 344 338 335 333 328 324 322 323 323 322 322 321
343 344 345 346 346 347 347 347 345 343 343 342 340 339 338 336 337 337 338 339 340 340 342 345 346 345 344 344 345 346 343 338 335 333 328 324 323 322 322 321 320 319
342 343 343 344 346 346 347 347 347 346 345 345 343 341 340 338 337 338 338 340 340 340 341 343 345 345 345 344 344 345 342 338 335 331 328 324 323 323 322 321 319 318
342 342 343 343 344 345 346 347 347 347 347 347 346 343 341 340 339 339 338 339 339 340 340 341 343 345 344 343 343 343 341 337 334 332 329 324 322 323 323 322 319 317
341 342 342 343 344 345 346 346 347 347 347 347 347 345 344 342 342 340 339 339 339 339 340 340 341 344 343 343 342 342 340 337 334 332 331 328 324 322 323 322 320 318
341 342 342 343 343 344 345 346 346 347 347 348 348 346 345 345 344 343 341 339 339 338 339 340 340 342 343 343 342 342 340 337 335 334 333 332 329 325 324 322 320 319
342 343 342 343 343 343 344 345 346 346 347 348 348 347 347 347 347 346 344 340 338 338 338 339 340 341 343 343 342 342 340 337 335 334 334 334 332 330 328 323 320 320
344 344 343 344 344 345 346 346 346 347 346 347 348 348 347 347 347 347 346 343 340 337 337 337 339 340 341 343 343 342 340 338 336 335 334 333 333 333 331 325 322 321
343 343 344 344 346 346 345 346 346 346 346 347 348 348 348 347 348 348 348 346 341 337 336 337 337 339 340 342 343 343 341 339 337 336 334 333 333 333 330 326 323 321
343 344 344 344 345 345 345 345 346 347 347 347 348 348 349 349 348 349 348 346 342 338 335 336 337 338 339 340 342 343 342 340 338 337 336 334 334 333 330 327 324 322
343 344 343 344 344 344 344 345 346 347 347 347 348 348 349 349 349 349 349 347 344 340 336 336 336 337 338 339 341 342 342 341 338 337 337 336 335 333 332 329 326 325
343 344 343 344 344 344 344 345 345 347 347 347 348 348 349 349 349 349 349 348 346 343 338 336 336 337 337 338 340 342 341 341 339 337 337 337 337 336 334 331 330 329
343 343 344 344 344 344 344 345 346 346 347 347 348 348 349 350 350 350 350 350 348 344 339 338 337 336 337 338 339 341 341 341 339 338 337 337 338 338 337 335 333 333
344 345 344 344 345 345 345 346 346 347 347 348 348 349 349 350 350 351 351 350 350 345 341 339 337 336 336 337 338 340 341 341 340 339 338 337 338 338 338 337 337 336
344 345 345 345 345 346 346 346 347 347 347 348 348 349 350 350 350 351 351 352 350 347 342 339 337 336 336 337 338 340 341 342 342 341 340 338 338 337 338 339 339 338
345 345 346 346 346 346 347 347 348 348 348 348 349 349 350 350 351 351 352 352 351 348 344 339 338 336 335 336 337 338 340 342 343 343 342 341 339 338 338 339 339 340
346 346 347 347 347 347 348 348 348 348 349 348 349 349 350 351 351 351 352 352 352 350 345 339 337 336 335 336 337 337 340 341 343 344 344 344 342 340 339 339 339 340
347 347 347 347 348 348 349 349 349 349 349 349 350 350 350 351 351 351 352 353 352 351 347 340 337 335 335 335 336 337 338 340 342 343 345 345 345 343 342 341 340 340
347 347 347 348 348 348 349 349 349 350 350 349 350 351 351 352 352 352 352 353 353 352 348 342 337 335 335 335 336 337 338 339 340 341 343 345 346 345 345 344 343 341
348 348 349 350 350 350 350 350 350 350 350 350 351 351 352 353 353 353 353 353 353 352 349 344 338 335 334 334 335 336 337 338 339 340 342 344 346 346 346 345 345 344
348 349 350 349 350 350 350 350 350 350 350 351 351 351 353 353 354 354 355 355 354 353 350 346 340 336 334 334 335 336 337 338 339 340 341 343 345 346 346 345 345 345
347 347 348 349 349 350 349 350 350 350 351 351 351 352 352 352 353 355 355 355 354 353 352 349 344 338 335 333 334 334 336 338 339 341 342 343 345 346 346 345 345 345
347 347 348 349 349 350 350 350 351 351 352 352 352 352 352 353 355 355 356 356 355 353 353 352 350 345 340 336 335 335 336 338 340 342 343 344 345 346 346 345 345 346
347 348 349 349 349 350 351 351 351 351 352 352 353 353 353 354 356 356 356 356 355 354 354 352 352 351 346 341 339 338 339 341 342 343 344 345 346 346 346 346 346 346

ECMWFNIL_850_thetae_030.txt.gz
Theta_e
337 337 338 338 338 338 338 337 336 336 336 336 337 337 336 336 335 336 335 335 336 337 338 338 338 340 344 347 349 350 350 349 351 351 347 343 333 323 323 327 334 338
337 338 337 338 338 337 338 337 337 337 336 336 336 336 336 336 336 336 335 335 335 337 337 337 338 338 340 345 347 350 349 348 350 351 349 343 331 323 322 323 327 330
339 339 340 341 341 338 338 339 338 338 337 336 335 336 336 336 336 336 335 335 335 336 338 340 342 340 339 342 346 347 348 347 350 352 350 344 333 326 323 322 326 327
342 342 343 344 343 342 342 342 341 340 339 338 337 336 336 335 335 335 335 335 335 336 340 342 343 342 341 343 345 346 346 347 351 352 350 346 336 328 324 323 327 329
341 342 343 345 345 343 344 344 343 343 341 341 339 338 337 336 336 335 335 335 335 336 339 341 341 340 341 343 344 344 344 347 350 349 348 348 341 330 325 322 323 326
339 340 342 344 344 343 344 345 344 345 344 343 343 341 340 338 338 337 336 335 335 336 338 339 340 340 341 343 345 344 342 345 349 347 343 344 343 334 326 323 321 321
338 339 340 342 341 341 343 344 345 345 345 345 345 344 343 341 341 339 338 336 336 336 337 339 340 340 340 343 343 344 342 341 347 347 340 337 340 335 326 323 322 321
337 337 339 340 340 341 343 343 343 344 344 345 346 346 345 345 344 342 340 339 337 337 337 338 339 340 340 342 342 342 343 340 342 344 337 331 335 332 324 324 322 321
335 336 337 338 339 339 340 341 342 342 342 343 345 345 345 345 345 345 343 341 339 338 338 338 339 340 340 342 342 341 342 342 340 340 335 330 331 328 325 324 322 321
335 335 336 336 336 337 338 338 339 340 340 341 342 344 345 345 345 346 345 344 341 340 340 338 338 338 339 342 344 342 341 342 341 340 336 332 330 329 327 326 324 323
337 337 337 337 337 337 338 338 339 339 340 340 341 342 344 345 345 346 346 346 344 342 341 340 339 339 338 340 343 343 341 342 342 340 338 334 332 331 330 329 329 328
340 339 339 340 340 339 340 339 339 340 341 340 340 341 343 344 345 346 346 346 346 345 344 343 342 340 339 338 341 342 341 341 343 342 339 337 334 333 332 332 332 332
340 340 340 341 341 341 342 342 341 342 343 342 341 341 342 344 344 345 346 347 347 346 346 346 345 343 342 339 340 342 340 340 342 343 341 339 336 334 333 333 333 333
341 341 340 341 341 341 342 342 342 342 343 344 343 342 342 343 343 344 345 346 347 347 346 347 347 346 345 342 341 342 341 338 340 343 343 341 338 335 334 333 333 333
343 343 342 342 342 342 342 342 342 342 344 345 345 344 342 344 344 344 345 345 346 348 347 348 348 347 347 345 343 342 339 336 338 341 343 343 340 337 335 333 334 334
345 345 344 343 342 342 341 341 343 343 343 344 345 345 344 344 345 345 346 347 347 348 348 348 348 348 347 345 342 340 337 335 336 338 341 344 342 339 337 335 335 335
345 344 344 343 342 342 342 342 343 343 344 345 345 345 345 345 345 346 346 347 347 348 349 348 349 348 348 346 343 340 337 335 336 337 339 342 343 341 338 336 336 335
344 344 344 343 343 343 343 343 343 343 344 344 345 346 346 346 346 346 346 347 348 348 348 349 349 349 348 346 344 342 338 335 336 336 338 339 342 342 339 337 337 337
344 344 344 343 344 344 344 344 344 344 344 344 346 346 348 348 348 348 348 348 349 350 349 348 350 350 349 347 344 343 340 336 336 336 337 338 340 341 341 339 338 337
345 344 344 344 345 345 346 345 345 344 345 345 347 347 348 350 351 353 352 349 350 355 354 349 349 350 350 349 346 344 340 336 335 336 336 337 339 340 342 341 339 338
344 344 344 345 346 346 346 345 345 345 345 346 347 348 348 349 351 353 354 351 354 358 357 354 352 351 350 350 348 344 341 338 336 337 336 337 338 339 341 342 341 340
343 343 343 344 345 345 345 345 345 345 345 346 347 348 348 349 349 350 352 355 357 358 356 356 357 354 350 351 347 342 340 338 337 338 337 337 338 339 340 341 343 342
342 342 343 343 344 344 344 344 345 344 345 346 347 348 349 349 350 350 351 355 357 356 355 357 358 354 352 351 347 342 340 339 338 338 338 337 337 337 338 341 343 343
343 342 343 343 343 344 343 344 345 345 346 346 347 348 349 350 353 354 352 353 355 356 357 357 356 355 355 353 348 344 341 339 339 338 338 338 338 337 337 340 343 343
344 344 343 344 343 344 344 344 345 346 346 347 347 348 350 353 356 358 357 356 356 358 360 358 357 358 357 355 352 348 343 340 339 339 338 338 337 337 338 340 342 343
344 343 343 344 344 344 345 345 346 347 348 348 349 351 352 354 355 358 359 358 357 359 360 359 358 359 358 357 355 352 348 345 342 339 338 338 338 338 339 339 342 345

ECMWFNIL_850_thetae_033.txt.gz
Theta_e
333 334 333 333 334 333 336 340 339 338 337 338 341 341 336 335 338 345 349 345 340 341 343 342 343 346 345 347 350 351 352 350 347 348 347 346 349 348 345 343 344 346
334 334 334 334 335 335 336 338 338 339 337 335 341 345 342 338 335 338 341 340 337 339 342 343 343 345 344 343 345 349 352 350 347 350 351 350 350 349 346 343 343 343
334 334 335 336 336 337 337 337 337 338 338 336 337 341 344 343 339 335 336 336 336 336 338 341 343 343 343 342 341 343 350 351 348 348 352 352 351 349 346 344 344 341
335 335 336 336 337 337 337 337 337 337 338 339 336 335 340 345 344 339 336 336 336 336 336 339 342 342 342 343 341 340 345 350 350 348 351 352 350 348 346 342 344 344
335 335 336 336 336 337 337 337 336 337 336 337 337 336 336 339 343 343 339 336 336 336 336 336 338 340 341 343 343 342 343 349 352 350 350 353 350 347 345 340 340 346
335 335 335 336 336 336 337 336 335 336 336 335 337 337 336 336 338 341 341 338 336 336 337 337 336 338 340 342 344 344 343 347 352 351 350 353 352 348 347 341 334 339
334 335 334 335 336 335 335 335 335 336 336 337 338 338 338 337 336 337 340 340 338 336 338 340 338 336 337 341 344 344 343 345 351 352 350 351 353 350 349 344 332 329
333 334 334 334 335 335 335 335 335 336 337 338 339 338 338 338 338 338 338 340 340 338 338 341 341 337 336 339 342 343 343 344 348 350 348 349 351 351 349 346 336 326
333 333 333 333 334 335 336 336 337 338 338 338 339 340 340 339 340 340 340 340 341 340 339 340 341 338 335 337 339 340 342 345 348 349 347 348 349 347 345 346 340 330
331 332 333 333 334 335 337 339 342 344 340 337 337 340 343 341 340 342 343 342 341 341 341 339 338 337 335 336 338 339 339 342 347 351 348 346 347 343 340 342 340 333
330 331 332 332 332 334 336 339 345 349 348 341 335 338 345 347 344 342 343 343 342 342 342 341 339 337 336 336 337 338 339 339 343 349 348 344 344 343 340 338 336 331
331 330 330 330 330 332 334 337 341 350 355 351 342 336 342 348 348 343 341 343 343 343 343 343 342 340 337 336 337 338 339 338 340 344 345 343 342 342 342 340 336 332
332 331 330 330 330 330 333 335 340 348 356 357 352 343 339 344 348 345 341 341 342 343 344 344 344 343 340 337 337 338 339 339 339 340 342 342 343 344 343 342 339 335
337 334 332 331 332 332 333 336 340 347 353 356 356 351 343 342 346 346 341 339 341 342 343 345 345 345 343 340 338 338 339 340 339 338 339 340 343 347 346 345 343 339
345 342 338 336 337 337 337 338 342 346 349 352 356 355 349 345 348 351 346 339 339 340 341 343 345 345 345 342 340 338 339 341 341 338 337 338 341 346 348 348 347 343
351 349 344 341 341 342 341 340 343 345 346 348 353 356 355 351 351 357 358 351 342 339 340 342 343 345 345 344 342 340 339 341 343 342 338 336 338 342 347 350 349 345
353 350 348 345 343 344 344 343 344 346 345 346 349 355 358 356 353 356 361 361 354 345 341 340 341 343 345 345 344 342 341 342 343 344 342 338 337 338 344 349 347 344
354 350 349 348 345 345 345 346 347 347 347 347 348 351 355 356 354 352 355 360 361 356 350 345 343 342 344 345 345 344 344 344 345 346 345 342 339 338 341 346 344 340
355 352 350 348 347 347 348 348 349 349 348 348 348 350 352 353 351 349 349 353 358 360 357 352 348 345 344 345 346 346 345 345 346 348 348 346 342 340 342 343 340 338
355 351 350 349 348 349 350 349 349 348 347 348 348 350 351 351 350 349 349 349 352 356 358 356 353 352 350 346 346 347 346 346 347 348 348 348 344 344 348 345 336 335
357 351 350 349 349 349 349 348 347 346 346 347 349 350 350 350 350 350 350 350 350 352 355 356 356 357 355 351 347 347 347 347 348 347 349 349 347 349 353 350 338 334
356 353 352 351 349 348 346 345 345 345 346 348 351 353 353 353 352 351 352 351 350 349 350 351 356 358 357 353 349 348 348 348 348 348 349 350 349 350 352 349 342 342
358 355 354 352 350 348 346 345 345 346 347 348 350 352 355 355 354 354 354 353 351 350 348 347 354 359 358 356 355 352 349 348 349 349 349 350 350 351 352 348 345 349
358 356 355 352 350 347 345 345 347 347 348 349 348 351 355 358 360 360 359 357 355 355 353 350 353 357 356 357 358 356 352 351 350 350 350 350 350 351 352 350 346 348
358 356 354 352 348 346 346 347 348 348 350 350 350 353 357 360 363 364 363 362 360 359 358 355 354 355 355 355 357 357 357 356 353 352 352 351 351 353 355 354 351 348
356 354 353 350 348 348 348 349 350 352 354 354 354 358 361 362 362 363 364 365 364 362 361 358 356 356 357 356 355 356 357 357 356 355 355 351 352 356 357 357 355 351

ECMWFNIL_850_thetae_036.txt.gz
Theta_e
335 334 333 334 334 334 336 339 339 340 344 347 346 341 339 341 342 343 344 343 340 339 341 341 341 343 345 346 348 351 354 354 353 349 343 341 341 342 337 326 329 344
335 334 333 333 333 333 333 335 336 339 343 345 347 345 340 340 342 344 346 346 343 339 339 340 341 342 343 345 347 349 351 352 353 350 345 342 342 341 339 331 326 337
334 333 333 332 332 332 332 332 333 337 342 344 347 350 348 345 343 344 346 348 347 343 340 339 340 342 342 344 344 346 348 349 351 351 347 345 344 342 341 340 333 331
332 332 332 331 331 331 331 332 332 335 341 346 346 348 350 350 349 346 346 347 348 346 342 338 338 340 342 343 343 344 345 347 348 350 349 347 347 344 341 343 343 334
332 332 332 332 332 332 332 332 333 334 338 344 346 346 347 350 351 349 347 347 347 346 344 340 337 337 339 341 343 343 342 343 345 348 350 349 347 347 343 342 345 342
333 333 333 333 333 333 333 333 334 336 338 341 345 345 344 345 348 348 348 348 347 345 345 343 339 336 337 338 341 343 342 341 341 344 348 349 348 348 346 341 341 343
333 333 333 333 334 334 335 335 335 337 339 341 343 343 342 343 343 344 348 350 349 347 346 344 340 337 336 336 337 340 341 341 341 341 344 349 350 348 347 343 337 337
333 333 334 334 334 334 334 335 337 338 339 342 344 343 342 342 341 341 344 349 351 350 348 346 343 339 337 336 336 337 338 340 341 342 342 347 351 350 348 346 341 335
334 333 334 334 334 334 335 335 336 338 339 341 343 345 345 343 342 341 340 343 347 351 350 348 345 343 341 339 336 335 336 337 339 341 343 345 349 350 349 347 344 339
335 335 333 334 334 334 334 334 335 336 338 339 341 345 347 344 341 342 341 340 342 347 349 348 346 345 344 343 340 337 335 335 337 339 343 345 345 346 347 347 345 343
335 335 333 333 333 334 333 334 334 335 337 338 340 343 346 345 343 342 342 341 340 342 345 347 346 347 346 345 343 340 337 336 336 337 340 343 344 344 345 345 345 344
333 334 334 333 333 333 333 333 335 337 339 338 339 340 342 345 345 343 341 340 338 339 342 344 345 347 347 345 344 343 341 338 336 337 337 340 342 342 344 344 345 346
333 332 335 335 333 333 334 336 337 340 343 342 341 341 343 345 346 344 339 338 338 337 339 342 345 346 346 345 344 345 344 341 338 338 337 337 339 341 343 345 346 346
337 333 333 334 334 334 335 338 341 344 347 347 347 348 348 347 348 346 342 339 339 338 338 340 343 346 347 347 345 345 346 345 341 339 339 338 338 339 341 345 347 345
345 339 334 333 334 335 335 337 341 345 346 348 349 351 351 349 350 351 349 346 343 341 339 340 342 344 345 346 345 345 346 347 345 342 342 342 341 339 339 342 345 346
353 347 341 337 335 335 335 336 339 343 346 347 350 352 352 350 351 353 354 352 350 346 343 343 343 343 343 342 343 344 344 347 347 345 345 345 344 342 341 340 343 345
356 352 348 343 338 336 336 337 339 342 344 346 348 351 352 351 351 353 355 356 356 354 350 347 345 344 341 339 339 341 342 344 346 345 345 345 345 344 344 343 342 344
358 356 353 348 343 340 339 338 339 341 343 345 347 349 351 352 351 352 353 355 357 359 357 353 348 344 342 340 338 338 339 342 343 345 345 346 345 345 345 346 346 345
361 359 356 352 348 344 342 342 342 342 343 343 344 347 350 352 351 350 351 352 354 357 359 358 355 350 346 344 342 340 339 340 341 343 344 345 345 345 345 345 346 347
363 361 359 356 353 350 348 347 344 343 342 343 345 347 348 350 350 350 350 351 352 353 356 358 359 357 353 349 347 344 343 342 342 342 343 344 345 345 345 344 345 346
363 363 361 359 358 356 354 351 349 346 346 346 348 349 348 349 350 351 351 351 352 353 354 356 357 358 358 356 352 349 347 345 344 344 344 345 346 347 347 346 346 347
363 363 362 361 360 359 358 356 354 351 350 350 351 351 352 351 351 352 354 353 354 354 354 354 355 356 358 358 356 355 353 351 349 348 347 346 348 348 349 349 349 349
362 363 363 362 361 361 360 358 357 356 354 354 354 354 356 355 353 353 353 354 355 355 354 353 353 355 358 359 359 359 359 357 354 352 351 349 349 350 351 352 351 351
361 362 362 362 362 362 361 360 359 358 358 358 357 356 356 357 357 356 355 355 355 355 355 355 354 354 356 359 361 361 361 360 358 356 355 353 352 352 353 353 353 353
360 360 361 362 362 362 363 361 360 359 359 359 358 356 356 358 359 360 360 359 358 357 358 358 357 356 355 357 360 361 362 362 361 360 358 356 356 356 355 355 355 355
360 360 360 363 363 363 363 362 360 360 360 360 359 358 358 358 360 362 362 362 363 362 360 360 359 359 357 357 358 360 360 361 361 362 361 360 360 359 357 356 355 355

ECMWFNIL_850_thetae_039.txt.gz
Theta_e
335 334 332 331 331 332 333 335 335 336 338 341 342 340 339 338 340 342 341 341 341 339 339 341 343 344 346 347 346 346 348 348 349 348 346 344 342 341 338 336 333 330
334 334 333 332 331 331 333 334 334 335 335 337 339 339 340 341 340 340 339 340 340 340 340 340 341 342 343 345 345 346 347 347 349 350 349 346 343 341 340 340 337 331
334 333 332 332 332 332 333 334 334 334 333 334 338 341 341 342 342 340 339 339 338 339 339 340 341 341 341 342 344 346 346 347 348 348 349 348 345 342 340 341 340 333
334 333 332 331 331 331 333 334 334 333 332 332 335 338 341 343 343 342 340 339 338 338 338 339 339 340 340 341 342 344 346 346 347 347 348 348 346 344 342 342 342 334
333 332 332 331 331 331 332 334 333 332 331 331 332 334 338 341 343 342 341 340 338 338 337 337 338 338 338 340 341 341 343 344 345 345 346 347 347 345 344 343 344 339
334 333 332 331 331 330 330 331 331 331 331 331 331 332 335 338 340 342 342 341 340 339 338 337 337 337 337 338 339 340 341 342 342 342 343 344 345 345 346 345 344 343
337 335 333 331 330 330 330 330 330 330 330 331 332 332 333 335 338 340 342 342 342 340 339 337 336 336 335 335 336 337 338 340 341 341 341 341 343 343 345 345 344 345
339 337 335 333 332 330 330 329 330 330 331 331 332 332 332 334 337 340 342 343 344 343 341 339 337 336 335 334 335 335 335 337 339 340 341 340 341 341 343 344 344 344
342 340 337 336 334 331 330 330 330 330 331 331 332 332 332 333 335 338 341 344 345 344 343 340 338 337 336 335 334 334 334 335 336 337 339 339 339 340 341 342 344 343
344 342 339 337 335 333 331 330 330 330 331 331 332 332 333 334 335 337 341 344 345 345 344 341 339 337 337 336 335 335 334 334 334 335 336 337 337 338 339 341 342 342
344 343 341 338 336 334 333 332 331 332 332 332 333 333 334 335 336 337 340 342 343 343 342 341 339 337 337 336 335 335 335 334 335 335 335 335 335 336 337 340 341 341
344 343 341 339 336 335 333 332 332 332 333 333 333 334 335 336 336 337 339 339 339 339 339 339 338 338 337 336 336 337 337 336 336 336 336 335 335 334 335 337 340 342
346 344 341 338 336 335 334 333 333 333 333 334 334 334 335 335 336 336 337 336 336 337 337 337 337 338 338 338 338 338 338 338 337 337 337 337 336 335 335 335 337 340
347 343 340 338 336 335 335 334 334 334 334 334 334 334 335 335 335 335 335 335 335 336 337 338 339 340 339 339 339 340 340 340 339 338 338 338 338 337 336 335 335 337
349 344 340 338 338 337 336 335 334 335 335 335 335 334 334 335 335 335 335 335 335 336 337 340 341 341 340 340 339 339 341 341 340 340 339 339 339 339 338 337 336 336
353 348 342 340 339 338 337 336 335 335 336 336 335 334 334 335 337 338 337 336 336 337 338 341 342 341 340 339 338 338 339 340 341 341 341 340 340 340 340 339 337 337
357 353 347 342 339 338 337 336 335 336 336 336 337 336 335 336 338 340 341 340 339 339 340 341 341 340 340 339 339 340 340 341 341 341 342 341 341 340 340 340 339 338
360 357 353 347 342 339 337 335 336 337 337 337 338 337 336 337 338 340 342 343 343 342 343 343 341 340 340 340 341 341 341 342 342 344 344 344 343 342 341 341 341 340
361 360 357 353 349 344 340 338 338 338 338 338 338 338 338 337 337 338 342 345 346 345 344 343 342 340 341 342 343 342 343 343 343 345 346 346 345 344 343 342 342 342
361 361 359 358 355 351 347 344 341 339 338 339 339 339 339 338 336 338 341 343 345 345 344 342 341 341 341 342 344 344 345 345 345 347 348 349 348 346 345 345 344 343
362 361 360 359 358 356 354 350 346 343 342 342 341 340 339 338 337 337 337 338 340 342 343 342 340 340 342 344 345 347 349 350 350 351 352 352 351 350 349 348 347 346
363 362 361 360 359 358 357 355 352 349 346 345 344 343 342 342 341 339 337 337 337 339 342 341 339 341 344 347 349 352 354 355 356 356 355 355 354 353 352 351 350 350
362 362 362 361 360 359 358 357 356 354 351 349 348 348 347 346 345 343 341 340 340 340 340 340 340 345 348 351 353 356 358 359 360 360 359 358 357 357 355 354 353 352
362 362 362 362 361 361 359 358 358 357 356 353 352 350 350 349 348 347 346 345 345 344 342 342 344 349 352 354 356 358 360 361 362 363 362 361 361 360 359 357 356 355
361 362 362 362 362 362 361 360 360 359 358 357 355 353 352 351 351 351 351 350 348 348 348 349 351 353 354 355 356 358 360 362 364 364 364 364 364 363 362 360 359 358
358 361 362 363 363 362 362 362 361 360 360 359 358 357 356 355 354 353 353 352 352 352 353 354 356 357 357 358 358 359 360 361 362 364 364 365 365 365 364 363 361 360

ECMWFNIL_850_thetae_042.txt.gz
Theta_e
342 341 339 339 338 337 337 336 335 334 333 333 332 332 333 333 335 337 337 337 338 338 337 337 339 343 345 345 345 345 347 348 347 346 345 345 344 341 340 339 334 331
343 340 339 339 338 338 337 336 335 332 331 332 333 333 334 335 335 338 338 337 338 338 338 337 337 340 343 345 346 345 346 347 348 348 347 345 345 342 341 340 335 331
344 341 339 337 337 337 337 336 335 333 331 332 334 334 335 334 335 337 338 338 338 339 338 338 338 338 340 342 344 345 345 345 346 347 347 347 346 343 341 340 338 336
342 341 338 336 335 335 335 335 335 333 331 332 334 335 334 334 334 335 337 337 337 339 340 339 339 339 340 341 341 343 343 344 344 345 346 346 346 345 343 341 340 339
341 340 338 336 334 334 333 333 333 332 331 332 333 334 334 334 333 333 335 336 336 337 338 339 339 340 340 340 341 341 341 342 343 344 345 345 346 346 345 343 341 341
344 342 339 337 335 334 333 332 332 331 331 331 332 333 334 334 334 333 334 335 335 335 336 338 338 339 339 340 340 340 340 341 342 343 343 344 344 345 345 345 343 342
346 343 340 339 337 337 335 333 332 331 331 331 331 333 333 333 333 332 333 334 335 335 335 335 336 336 337 338 338 339 339 340 341 342 342 341 342 343 344 344 344 343
346 344 341 340 339 338 337 334 333 332 331 331 331 332 333 332 331 331 331 333 334 334 334 334 334 335 335 336 336 336 337 339 339 340 340 340 340 339 341 342 342 342
347 345 343 341 340 339 338 336 334 333 332 331 332 332 332 331 330 331 330 332 333 333 333 333 333 333 334 335 334 334 334 335 336 338 338 338 338 337 338 339 340 341
349 347 343 342 340 339 338 337 335 334 333 331 331 332 332 331 330 330 330 331 332 332 332 332 332 332 333 333 333 333 333 333 333 334 334 335 335 335 336 338 338 339
350 347 345 342 340 339 338 337 336 335 334 333 332 332 331 330 330 330 331 331 331 332 332 332 331 330 331 332 331 332 332 333 332 333 333 333 333 334 334 336 337 336
352 350 347 343 341 340 338 337 337 336 335 333 332 331 331 330 330 330 331 331 332 331 332 332 331 331 331 331 331 332 332 333 333 333 333 333 334 333 333 334 334 335
354 352 349 346 343 340 339 339 338 336 335 333 332 332 331 330 330 330 331 331 332 332 332 331 332 333 332 332 332 332 332 333 333 334 334 334 334 334 334 334 334 334
356 354 351 347 343 341 340 339 339 338 337 334 333 332 331 330 329 330 330 331 331 332 332 332 333 334 334 334 334 334 334 334 334 335 335 335 335 335 335 335 334 335
358 356 354 350 347 344 342 340 340 340 339 336 335 332 331 330 330 330 331 331 332 332 332 332 334 334 333 333 333 333 334 334 335 335 336 336 336 336 336 336 336 336
359 357 356 354 351 348 345 342 341 341 341 339 337 334 332 331 331 331 331 332 332 332 333 333 333 333 332 331 332 332 333 334 335 335 336 337 338 338 338 338 337 337
360 359 358 356 354 352 349 345 343 342 343 341 339 336 334 332 332 332 332 332 332 333 333 333 333 332 331 331 331 333 335 337 337 337 338 339 339 340 340 339 340 340
361 360 360 359 358 356 354 351 348 346 344 343 341 339 337 335 334 332 332 332 332 333 333 333 332 332 332 332 332 333 335 338 341 341 342 341 341 341 341 341 341 342
361 361 361 360 360 358 357 354 352 350 347 346 344 342 339 337 335 334 333 333 332 333 332 332 331 331 332 332 333 334 336 340 342 344 345 344 344 344 344 343 343 344
361 362 362 362 361 360 359 357 355 353 349 348 346 345 342 340 337 336 335 334 333 332 332 332 331 331 332 332 334 336 337 341 343 345 346 346 347 347 347 346 346 347
362 363 363 362 362 362 361 359 357 355 352 350 348 347 344 341 340 339 337 335 335 334 334 333 331 331 332 334 335 337 340 343 345 347 348 348 349 349 349 348 349 349
363 363 363 363 363 363 362 360 359 358 355 352 349 348 346 345 343 341 339 338 337 337 337 336 334 334 337 337 338 341 344 347 348 349 350 351 351 352 351 351 351 351
363 363 363 364 363 362 362 361 361 359 357 355 352 349 348 346 345 343 341 341 341 341 341 339 337 339 341 343 345 347 349 350 351 352 352 353 353 354 354 354 353 353
363 362 363 363 363 363 363 362 362 361 359 358 356 353 351 348 346 344 343 342 343 342 343 342 342 344 346 347 349 351 352 353 354 354 355 355 355 355 355 355 356 356
362 363 363 363 363 363 362 362 362 361 361 360 358 357 355 353 350 348 345 344 343 343 344 345 346 348 350 352 353 353 354 355 356 356 356 356 356 357 357 358 358 358
363 363 362 363 363 363 362 363 361 361 361 360 360 359 357 356 354 352 350 348 346 345 345 345 347 349 351 353 354 355 355 356 357 357 357 357 357 358 358 359 359 360

ECMWFNIL_850_thetae_045.txt.gz
Theta_e
350 349 348 345 343 341 339 337 338 338 337 337 337 336 336 335 334 334 334 336 336 336 337 338 338 341 344 344 344 344 344 344 344 345 346 346 345 343 342 340 339 337
349 349 348 346 345 342 340 338 338 337 337 337 337 336 336 335 334 333 333 335 336 336 337 338 337 338 342 344 344 343 343 343 344 345 346 346 345 344 343 341 339 338
350 349 348 346 344 342 341 339 338 338 338 337 336 336 336 334 334 333 333 334 336 336 337 339 337 336 338 341 343 344 343 343 344 345 346 347 346 345 344 343 341 340
350 349 347 346 344 343 341 340 339 338 338 338 337 336 335 333 333 333 333 335 336 335 336 337 338 337 336 337 340 342 343 343 343 344 345 345 347 347 346 344 342 341
349 349 346 345 344 343 342 341 339 339 338 338 337 337 336 333 332 332 334 336 336 335 335 337 337 338 337 337 337 339 341 342 343 344 343 344 345 346 346 346 344 342
349 349 347 346 344 344 343 341 339 338 338 337 337 336 336 334 332 332 334 335 335 335 335 336 337 338 338 338 337 338 338 340 341 342 343 342 343 344 346 346 346 344
349 349 347 346 346 344 343 340 338 337 336 336 337 335 335 334 332 332 334 334 333 333 334 335 336 338 339 339 339 338 338 339 340 341 341 341 341 342 343 344 345 345
349 348 346 346 346 344 342 339 337 336 335 336 336 335 334 333 331 331 333 334 333 332 332 333 335 335 337 338 339 339 339 338 339 339 339 340 340 340 340 341 343 343
350 349 347 346 346 345 342 339 337 336 336 336 335 334 333 332 331 331 332 333 333 332 332 333 333 334 334 336 337 337 338 337 337 337 338 338 338 339 338 339 340 340
350 350 349 347 347 345 342 339 338 336 337 336 335 334 333 331 330 331 331 332 333 332 332 332 332 333 333 333 334 335 335 335 335 335 335 335 336 336 336 336 336 336
351 351 350 349 348 346 343 340 339 338 337 336 335 335 333 332 331 330 331 331 332 331 331 330 331 332 332 333 332 332 332 333 332 332 333 333 333 334 333 334 334 333
351 352 351 351 350 348 345 342 340 339 337 336 335 334 333 332 331 331 331 330 331 331 330 329 330 331 331 331 331 331 331 331 332 331 331 331 331 332 332 332 332 332
351 352 352 351 351 349 347 345 343 340 338 336 335 334 333 332 332 331 330 330 330 331 330 329 330 330 330 331 331 331 331 330 331 331 330 331 331 331 332 332 332 332
352 352 352 352 351 350 349 347 345 343 341 338 336 335 334 332 331 331 330 330 330 330 330 329 330 330 331 331 331 331 331 330 330 330 330 330 330 331 332 332 332 333
352 352 352 352 352 352 350 349 347 345 344 342 340 337 335 333 332 331 330 329 329 329 329 329 330 330 330 330 331 331 331 331 330 330 330 330 331 331 332 332 333 333
353 353 353 353 352 352 351 350 349 347 346 344 343 340 336 335 333 332 331 330 329 329 329 329 329 330 330 331 331 331 330 331 331 331 331 331 331 331 332 332 333 333
354 353 353 354 353 353 353 353 351 350 348 346 345 342 339 336 335 334 332 330 330 329 328 329 329 329 330 330 331 330 331 331 332 331 332 332 333 333 333 333 334 334
354 354 354 354 354 354 355 355 354 352 351 349 347 345 342 339 337 335 333 332 331 330 329 329 329 329 330 330 331 331 331 332 332 332 333 333 334 335 334 335 336 338
354 355 355 355 355 356 357 357 356 355 354 352 351 348 346 343 340 337 334 334 333 331 330 330 329 330 330 330 331 331 331 332 333 334 335 335 336 336 336 337 339 340
354 355 355 356 357 357 358 358 357 357 356 355 353 352 350 347 343 338 336 335 334 333 333 331 331 331 330 331 332 332 332 333 334 336 337 338 338 338 339 340 341 343
355 356 357 358 359 359 359 359 359 358 358 357 356 355 353 351 347 342 338 335 334 334 334 333 332 331 332 332 332 332 334 336 337 339 340 340 340 341 342 342 344 345
357 357 359 359 360 360 360 360 360 360 360 359 359 357 356 355 352 347 341 336 335 335 335 334 332 333 333 332 333 334 336 339 340 342 342 342 342 343 343 345 345 346
358 359 359 360 360 360 361 360 361 361 361 361 360 359 358 357 355 351 347 342 339 337 336 335 333 333 334 333 334 336 339 341 342 342 344 343 344 344 344 346 347 347
358 359 359 360 361 361 361 361 361 362 362 362 362 361 361 359 358 355 353 349 346 342 340 338 336 334 336 336 336 338 341 342 343 343 344 345 344 346 347 347 348 348
359 359 360 361 361 361 362 361 362 362 362 362 362 362 361 360 360 359 357 355 353 350 347 345 343 340 339 339 339 340 341 343 345 345 346 346 347 348 349 350 350 351
359 360 360 361 362 362 362 362 362 362 362 362 362 362 362 361 361 360 359 358 356 355 353 351 349 347 346 344 343 343 343 344 346 347 348 348 349 349 350 350 351 351

ECMWFNIL_850_thetae_048.txt.gz
Theta_e
348 348 347 346 344 342 341 339 338 339 339 338 337 337 337 337 338 339 340 340 340 339 338 337 338 339 339 341 343 344 343 344 344 344 344 344 345 344 343 342 341 340
348 348 348 347 346 344 342 340 339 339 339 338 337 337 337 337 337 338 338 339 338 338 337 336 336 337 338 339 341 343 343 343 343 344 344 344 344 345 344 343 342 341
349 348 348 347 345 344 343 341 340 339 339 339 338 337 337 337 337 337 337 338 338 337 337 336 335 336 337 338 339 342 343 343 343 343 343 344 344 345 344 344 343 343
349 348 347 346 344 344 343 343 342 341 340 339 338 338 337 337 337 337 337 337 337 337 337 336 335 335 337 337 337 339 341 343 343 343 343 343 344 345 345 345 344 344
349 348 346 345 344 344 344 344 343 342 341 340 338 338 337 337 336 336 336 336 336 336 336 336 335 336 337 338 337 337 338 340 341 343 343 343 344 344 345 345 346 345
350 349 347 345 344 344 344 343 342 342 341 340 339 338 337 337 337 336 336 335 334 334 334 334 335 335 336 337 337 337 336 337 338 340 342 342 343 343 343 344 344 344
350 349 347 346 345 344 343 342 342 342 341 340 340 339 338 337 337 336 336 334 332 333 333 334 334 335 335 336 337 337 336 336 336 337 338 340 341 342 341 342 342 343
350 349 348 347 346 345 344 342 341 341 340 341 341 339 339 338 337 336 336 335 333 332 333 334 335 335 335 336 336 337 337 337 337 337 337 338 339 339 339 339 340 340
350 349 349 348 347 346 344 342 341 340 340 341 340 340 339 338 337 336 335 335 334 332 332 334 335 334 335 335 336 337 337 338 338 337 337 337 338 338 337 337 338 338
350 350 349 349 348 347 346 343 342 341 341 340 340 339 339 337 336 336 335 335 334 333 332 333 334 334 334 334 334 335 336 337 337 337 337 337 337 337 336 337 337 336
350 350 349 349 348 348 347 345 343 341 340 339 339 338 337 336 335 335 335 334 333 332 331 331 333 333 333 332 332 333 334 334 335 335 335 335 335 334 334 334 335 334
350 350 349 349 349 348 348 347 345 343 340 338 337 336 335 334 334 334 334 333 332 331 330 330 331 333 333 332 331 332 332 333 333 333 333 333 333 332 332 332 332 332
350 350 349 349 348 348 349 348 347 345 342 340 337 335 335 334 333 333 333 333 332 331 330 330 330 331 332 332 331 331 331 332 332 332 332 332 331 331 331 330 330 330
350 349 349 348 348 348 349 349 348 346 344 341 339 337 335 334 333 333 333 333 332 331 331 330 330 330 330 331 331 331 330 330 331 331 331 331 331 330 330 330 330 330
350 349 349 349 349 349 349 349 349 347 345 343 340 338 336 335 334 334 334 333 332 332 331 330 330 330 329 330 330 330 330 329 330 330 330 330 330 330 330 330 329 330
350 349 349 349 349 349 349 349 349 348 347 344 341 339 337 336 336 335 335 334 333 332 332 331 330 329 329 330 330 329 329 329 329 330 330 330 331 330 330 330 330 330
350 349 349 349 349 349 349 350 350 350 349 347 344 341 340 338 338 337 336 335 334 333 332 331 330 329 328 328 329 329 329 329 329 329 330 330 330 330 330 330 330 331
350 350 350 349 349 350 350 350 350 351 350 349 347 344 342 340 339 337 337 336 335 334 333 332 330 329 328 328 328 328 328 328 329 329 329 330 330 330 330 330 331 332
350 350 350 350 350 350 350 350 351 351 350 350 349 347 344 343 340 338 337 337 336 335 334 332 331 329 328 328 328 328 328 328 328 329 329 329 329 330 330 331 332 332
351 351 350 350 350 350 350 351 351 351 351 351 350 350 349 346 343 340 338 336 336 335 334 333 332 330 329 329 328 328 328 328 328 329 329 329 330 330 331 332 333 334
352 352 351 351 351 350 351 351 352 351 352 351 352 352 352 350 347 343 340 338 336 335 334 333 332 331 331 330 330 329 330 330 331 331 331 330 330 331 331 332 333 335
352 352 352 352 351 352 352 352 353 353 353 353 353 354 354 354 353 351 348 344 341 339 337 334 332 332 332 331 331 331 332 333 333 333 333 332 331 331 332 332 334 336
352 352 352 352 352 353 353 353 353 353 354 355 356 356 357 357 356 356 354 351 348 347 344 338 333 332 332 332 332 333 334 334 334 334 334 333 332 332 332 333 335 337
352 352 352 352 353 353 353 354 354 355 356 357 357 358 358 358 358 358 357 356 354 352 350 346 340 337 336 335 334 335 335 336 336 336 336 335 334 334 334 335 337 338
352 352 352 352 353 353 354 355 356 357 358 358 359 359 359 359 360 359 359 359 358 357 356 354 351 348 346 343 342 341 341 340 340 339 338 337 337 337 337 338 339 340
351 352 352 353 354 355 356 357 357 358 359 359 360 360 360 360 360 360 360 361 360 359 359 358 357 355 353 351 350 348 347 346 345 344 343 341 341 341 342 342 343 344

ECMWFNIL_850_thetae_051.txt.gz
Theta_e
345 344 344 343 340 337 337 337 337 337 337 337 337 337 336 336 337 337 339 339 340 341 341 340 340 340 339 339 340 340 342 344 344 345 345 345 344 344 344 344 343 343
347 346 345 345 343 340 339 339 339 339 338 337 337 337 337 337 337 337 338 338 339 340 340 341 339 338 338 338 339 340 341 343 344 344 345 345 344 344 344 344 344 344
348 347 347 346 346 344 343 342 340 339 339 338 337 337 338 337 337 337 337 337 338 339 340 340 339 338 337 337 338 339 339 341 343 343 344 344 344 344 345 345 345 344
349 348 347 346 346 345 344 344 343 342 341 339 337 338 338 338 338 337 337 337 337 337 338 339 338 338 337 337 337 337 338 339 341 342 343 343 343 343 344 345 346 345
349 348 348 347 346 346 345 345 345 343 342 340 338 338 337 338 338 338 337 337 337 337 337 337 338 337 337 337 336 336 336 337 338 339 341 342 342 342 343 344 345 345
349 349 348 348 347 347 346 345 345 344 342 341 339 339 338 338 339 338 337 337 337 336 337 337 337 337 337 337 337 336 336 337 337 337 338 339 340 341 342 343 343 343
349 349 349 349 348 348 347 346 345 343 342 341 341 340 339 338 339 338 337 337 336 336 337 337 337 337 336 336 336 336 336 337 337 336 336 337 337 337 339 341 341 342
349 349 349 349 349 349 348 346 345 344 342 342 341 339 339 339 339 338 337 336 336 336 336 336 336 336 337 336 336 335 336 336 337 337 336 336 336 335 336 338 338 338
349 349 348 348 349 348 348 347 345 343 342 342 341 339 339 339 338 338 337 336 336 336 336 336 335 335 335 335 335 335 335 336 336 336 336 337 336 336 336 336 337 337
349 349 348 348 349 348 348 347 345 344 342 341 341 340 339 338 338 337 337 337 336 336 336 335 334 334 334 334 334 335 335 336 336 336 337 336 337 337 337 337 337 336
348 349 349 348 348 348 348 347 346 345 342 341 341 340 338 338 338 338 337 337 337 336 335 335 334 333 333 333 334 335 335 335 336 336 336 337 336 336 336 336 336 336
349 349 349 349 348 349 348 347 346 345 342 340 340 340 338 337 337 337 337 337 337 336 335 335 334 333 333 333 333 334 334 334 335 335 335 335 335 335 335 334 334 333
348 349 348 349 349 348 348 348 348 346 344 342 340 339 338 337 337 336 336 336 335 335 335 334 333 333 332 331 332 333 333 333 333 333 332 333 333 333 333 333 332 332
348 348 348 348 348 348 349 348 348 347 346 344 342 340 338 337 336 335 335 335 335 333 333 332 332 332 332 331 331 332 332 332 332 332 332 332 332 332 332 331 331 331
348 349 348 348 349 348 349 348 348 348 347 346 345 342 340 337 337 335 334 334 333 332 332 332 332 332 331 330 330 330 331 332 332 331 331 331 331 331 331 332 331 330
348 348 348 348 348 349 349 348 348 348 347 347 346 344 341 338 337 336 335 333 332 332 331 332 332 332 331 330 330 330 330 330 330 331 331 330 330 330 330 330 330 330
349 348 348 348 348 349 348 348 348 348 347 348 347 345 343 340 338 337 335 333 332 332 332 332 331 331 331 330 331 330 330 330 329 330 330 331 330 329 329 329 329 330
349 348 348 348 348 348 348 348 348 348 348 348 348 347 345 343 341 338 335 334 333 332 332 332 331 330 330 330 330 330 330 329 329 329 330 330 330 329 329 329 329 329
349 349 349 348 348 349 349 349 349 348 348 348 348 349 348 346 344 341 338 336 334 332 332 332 331 330 329 329 329 329 329 329 329 329 329 329 329 329 328 329 329 329
349 349 348 349 349 348 349 349 349 348 348 348 348 349 349 348 348 346 342 339 336 334 332 332 332 331 329 329 328 328 329 329 329 329 329 328 328 328 328 328 328 328
350 349 349 348 348 349 349 348 349 348 348 348 348 349 349 349 349 348 346 344 340 337 335 334 333 331 330 329 329 329 329 329 329 329 328 328 328 327 327 328 328 328
349 348 348 348 348 348 349 348 348 348 348 348 349 348 349 350 350 350 350 348 344 342 340 336 333 332 331 331 330 331 331 331 330 329 329 329 328 328 329 328 329 329
349 348 347 347 348 348 347 348 348 348 347 347 348 349 349 349 350 350 350 349 348 347 346 341 335 333 333 332 332 333 333 333 331 330 330 330 329 329 329 330 330 330
349 348 348 348 348 347 348 348 348 348 348 348 348 350 350 350 351 350 351 351 351 351 350 347 343 340 338 336 336 337 337 335 334 333 333 331 330 330 330 331 331 331
349 348 349 348 349 349 349 349 349 349 349 350 350 350 350 351 352 352 353 353 353 354 354 353 352 350 346 343 344 344 343 341 339 339 337 334 332 332 332 332 332 333
349 349 349 349 349 350 350 350 350 350 350 351 351 352 352 353 353 354 354 355 356 357 357 356 356 355 352 350 349 349 349 348 346 345 343 340 337 337 336 336 336 336

ECMWFNIL_850_thetae_054.txt.gz
Theta_e
345 345 345 345 343 340 339 337 337 337 336 333 333 336 338 337 338 340 338 339 342 343 344 344 344 345 345 345 345 345 346 346 346 345 346 348 348 348 348 347 347 346
347 347 346 346 343 340 339 338 338 337 335 334 334 336 338 337 338 338 339 341 342 342 343 343 344 345 346 346 345 345 345 345 345 345 345 347 348 348 349 348 347 345
347 348 349 347 342 339 339 339 339 337 335 335 334 335 336 337 339 339 338 339 340 340 341 343 344 344 345 346 345 345 345 344 344 343 343 345 347 348 349 349 349 348
347 348 349 347 342 340 340 341 340 337 336 336 336 336 337 337 338 338 337 337 338 340 340 341 344 343 344 345 344 344 344 344 343 342 343 345 345 346 347 348 349 349
348 348 348 348 346 344 343 343 342 339 337 338 338 337 338 337 337 337 337 337 337 338 340 341 341 342 343 343 344 345 343 342 341 338 340 342 342 343 344 344 346 347
348 347 348 348 347 346 346 345 343 342 340 340 339 339 338 337 337 337 337 337 337 337 338 340 340 340 341 341 343 344 342 343 343 340 340 340 338 340 341 342 344 345
347 348 348 348 348 347 347 346 345 344 343 342 342 341 340 338 336 337 337 337 337 337 337 338 339 338 340 341 342 343 342 341 342 341 341 341 338 337 338 339 339 342
346 347 347 348 348 349 347 347 346 345 344 344 344 344 342 340 338 337 337 337 337 337 336 336 337 338 340 340 341 342 341 339 338 337 338 339 338 337 336 336 337 337
347 347 348 348 348 349 348 348 347 346 345 345 345 345 343 340 340 338 337 337 337 336 336 336 336 337 339 340 340 340 339 338 337 335 335 335 336 337 336 338 339 336
346 347 347 348 348 348 348 349 349 348 346 345 345 345 344 341 340 340 338 337 337 336 336 335 336 336 337 337 337 337 337 336 335 334 334 334 335 336 336 339 341 339
346 347 347 347 347 348 350 351 353 352 348 345 343 346 346 342 339 339 339 338 337 336 335 335 335 335 335 335 335 334 334 334 333 334 333 333 334 335 337 339 341 341
346 347 348 347 347 349 352 353 354 355 352 347 342 343 344 341 339 338 338 337 336 335 335 335 335 335 335 334 334 333 333 333 333 334 334 334 334 335 336 338 338 339
345 347 347 348 348 349 353 354 354 354 355 351 344 341 342 342 339 337 336 337 335 335 335 335 335 335 335 334 334 333 333 333 333 334 334 334 334 334 335 336 336 335
345 346 347 348 348 349 351 353 353 353 355 354 348 341 341 341 339 337 336 336 336 335 335 335 335 335 335 334 333 334 333 332 332 333 334 333 333 333 333 334 334 334
347 347 347 347 348 348 349 350 351 350 352 353 348 342 341 342 341 340 337 335 336 336 336 337 336 336 335 335 334 333 332 331 330 332 333 333 333 332 332 332 333 334
348 347 346 347 347 348 348 348 348 348 348 349 347 343 342 342 340 341 340 337 335 335 336 336 336 336 335 333 333 332 332 331 329 330 331 332 333 332 333 332 331 332
348 347 347 347 346 348 348 348 348 348 348 348 347 345 343 343 342 341 342 342 338 335 335 335 335 334 333 332 331 331 331 330 329 329 329 331 331 332 332 331 331 331
348 348 347 346 346 347 347 348 348 348 348 348 348 347 345 345 345 344 343 344 343 338 335 334 333 332 332 330 330 330 331 330 329 329 329 330 330 331 331 331 331 330
348 348 348 347 346 347 347 348 348 348 348 349 348 348 347 346 346 346 345 345 344 341 337 335 334 332 330 330 330 330 330 330 330 330 330 329 329 329 329 330 330 330
348 348 348 348 346 347 347 347 347 348 348 348 348 348 348 347 347 347 347 345 344 343 339 336 336 333 331 330 330 330 330 331 331 331 331 331 330 329 329 329 329 329
349 349 349 349 348 347 347 347 347 348 348 348 348 348 348 348 347 348 348 346 345 345 341 337 336 334 331 330 330 330 331 331 331 332 331 331 330 329 328 328 328 328
349 349 348 349 348 348 347 347 347 348 348 348 348 348 348 348 348 348 348 348 347 346 345 342 338 335 332 330 329 330 331 332 332 332 331 331 330 329 328 328 328 328
348 349 349 349 349 349 348 348 347 348 348 348 348 349 349 349 348 347 348 348 347 347 345 344 341 338 334 332 331 331 331 333 332 332 332 331 330 329 329 329 328 327
349 349 349 349 349 349 348 348 348 348 348 348 348 348 350 350 349 348 347 348 348 347 346 344 343 341 337 334 333 334 333 334 334 333 333 332 331 329 329 329 328 328
349 349 349 349 349 349 349 349 349 348 348 348 347 347 349 350 349 349 348 348 348 347 347 345 345 344 342 338 337 336 337 336 336 336 335 333 332 331 331 330 329 329
348 349 348 348 349 349 349 349 349 348 348 348 348 348 348 349 350 350 349 349 349 349 348 348 348 347 346 343 340 339 340 340 340 340 339 336 334 333 333 333 332 331

ECMWFNIL_850_thetae_057.txt.gz
Theta_e
336 336 335 335 334 337 345 347 345 343 339 341 345 341 340 344 346 350 353 348 343 344 345 346 346 346 347 347 345 347 347 348 350 352 350 349 350 353 354 353 352 351
337 338 338 338 338 338 341 345 346 345 340 337 345 348 347 347 347 345 347 346 341 342 345 345 347 345 346 348 347 347 347 345 347 351 350 348 350 353 354 354 354 353
338 340 340 340 342 339 339 344 344 343 343 337 340 349 351 350 349 344 340 339 339 342 344 344 345 346 345 347 347 347 347 345 345 349 349 348 349 352 354 355 354 354
340 341 342 342 345 344 342 346 345 341 344 344 340 345 350 351 352 345 338 338 339 341 343 341 342 346 346 346 347 346 346 345 344 347 348 346 346 349 353 354 355 355
341 343 343 343 347 350 348 350 350 345 345 348 346 346 349 351 350 344 337 339 339 339 342 342 339 342 345 346 347 345 344 346 345 344 345 344 344 346 349 352 353 354
343 343 344 345 345 350 352 352 351 348 346 349 351 350 350 350 347 342 339 340 340 341 347 347 340 339 343 345 346 345 344 348 349 346 342 341 343 344 348 351 351 349
345 344 345 347 346 346 351 351 348 347 347 349 352 353 352 350 344 341 341 339 339 343 348 351 345 340 342 343 343 344 344 345 350 349 344 340 339 340 345 350 350 346
345 346 344 346 347 347 348 348 345 343 345 349 352 353 354 353 346 341 342 341 342 344 346 351 350 342 342 344 342 342 342 343 347 348 343 340 339 336 337 343 345 343
345 347 345 344 348 351 350 349 348 346 345 348 352 353 353 354 350 345 343 340 342 346 344 347 349 342 339 344 343 339 340 342 346 346 342 340 339 336 333 336 338 339
346 347 348 348 352 355 354 353 354 352 350 349 351 353 353 354 353 352 348 339 337 343 342 341 344 341 337 340 342 339 338 340 343 345 342 340 339 338 337 336 336 339
346 350 352 352 353 356 356 355 355 355 354 352 350 352 354 354 354 354 353 345 336 338 339 337 338 338 335 337 341 340 337 336 340 341 340 340 339 338 340 339 339 342
349 351 354 353 353 355 356 355 355 354 355 354 352 352 353 354 354 353 352 349 339 336 337 336 336 335 335 337 342 345 342 337 339 339 335 337 338 338 339 339 338 339
351 351 353 355 355 354 355 356 355 354 354 355 355 354 353 353 355 354 351 347 340 336 336 336 335 335 335 334 339 347 348 344 342 343 339 336 335 337 340 343 342 340
352 351 350 354 356 355 354 356 356 354 353 355 356 356 354 353 354 355 352 346 340 337 336 336 335 335 335 334 334 340 347 348 344 345 346 343 339 337 339 344 348 347
354 353 350 351 355 355 354 356 356 354 353 354 355 357 355 354 354 355 355 350 343 338 336 337 335 334 334 335 334 334 340 346 345 341 344 348 349 345 342 344 346 348
354 355 353 350 352 354 353 354 356 356 354 353 356 357 355 354 354 354 356 355 350 343 337 336 336 335 333 333 334 333 334 340 343 338 336 342 347 348 346 347 346 344
355 355 354 350 350 352 351 351 355 357 355 354 356 357 356 354 353 354 356 356 356 351 344 339 336 336 334 332 332 333 332 333 337 337 333 333 337 339 340 343 344 345
355 354 354 351 350 349 348 349 354 357 357 356 358 359 356 353 352 354 355 356 358 357 353 347 342 338 335 333 331 332 332 332 333 335 335 334 334 335 335 334 336 340
356 355 354 352 349 348 346 346 350 355 357 357 359 360 357 349 347 349 352 354 355 359 358 355 351 346 338 333 332 331 331 332 333 334 337 341 342 340 337 333 328 330
358 356 354 351 350 349 347 346 346 350 354 356 359 360 354 347 345 347 349 348 350 357 360 358 356 353 345 336 332 332 331 332 333 334 337 344 350 351 347 340 333 328
360 358 355 353 351 349 347 345 345 346 350 354 359 359 354 346 344 348 348 345 345 352 358 358 355 355 353 345 335 331 331 331 331 333 334 338 345 350 350 344 337 332
362 359 357 355 351 350 348 346 345 346 347 350 356 360 359 352 347 350 352 348 344 346 352 356 354 354 354 349 338 332 332 331 331 331 331 332 334 338 339 337 334 332
363 360 358 356 353 350 348 346 345 346 346 347 352 357 361 359 353 352 354 352 348 344 345 351 353 351 348 343 337 333 331 331 331 330 330 331 331 332 332 331 330 330
365 362 359 357 354 350 348 347 346 346 346 346 349 353 358 361 359 357 357 357 354 347 342 345 350 350 344 338 336 334 332 331 331 331 331 331 330 331 331 331 330 329
366 363 359 356 354 350 349 349 346 347 347 346 347 351 356 359 360 360 360 360 358 355 349 343 347 350 347 342 338 335 334 334 335 334 333 332 331 332 331 331 331 330
363 362 358 356 354 351 351 352 350 349 350 348 347 350 355 358 358 360 360 360 360 360 356 349 346 348 348 345 340 338 337 338 338 338 337 335 333 333 334 333 331 330

ECMWFNIL_850_thetae_060.txt.gz
Theta_e
325 325 325 325 325 327 330 333 333 331 331 331 330 330 330 333 339 344 345 341 340 343 343 343 345 344 344 345 345 347 349 349 350 350 349 349 349 353 356 353 349 348
326 326 326 325 326 326 328 331 333 332 332 332 333 334 334 334 338 342 343 341 339 341 343 343 344 344 344 345 344 344 344 345 347 348 348 349 349 352 356 356 352 349
328 328 327 326 327 327 329 332 332 335 335 334 337 340 342 341 340 340 339 336 336 339 342 343 344 344 343 344 344 344 344 344 345 344 346 348 347 350 355 356 355 351
332 332 330 329 330 330 332 334 335 338 339 339 339 342 346 348 347 344 339 334 334 338 341 342 343 343 343 343 344 344 344 343 344 344 344 345 345 347 352 355 356 354
335 335 334 334 334 335 336 337 339 340 342 342 342 342 346 351 351 348 343 337 333 336 339 341 342 342 342 342 342 343 343 343 343 343 343 343 343 344 348 353 356 355
336 336 337 336 337 339 340 340 341 343 344 344 343 341 344 349 352 350 347 340 335 335 337 339 341 341 340 341 342 342 343 343 342 342 342 342 343 343 345 349 352 353
337 337 337 337 338 340 342 343 344 345 345 345 345 344 344 347 350 351 349 345 337 335 337 338 338 338 339 340 341 342 341 342 343 342 341 341 341 342 344 347 349 348
338 338 337 338 339 341 343 345 345 345 345 346 348 348 347 348 349 350 351 348 342 337 339 340 338 336 337 338 339 341 341 341 343 343 340 340 340 340 340 343 345 345
339 339 339 339 340 340 342 344 344 345 346 347 349 351 350 349 349 349 350 348 344 341 341 343 343 339 337 336 336 338 341 341 342 343 340 339 339 339 338 338 339 339
342 341 341 340 340 341 342 344 345 346 346 348 351 353 352 350 349 349 350 348 346 345 343 343 344 342 340 338 335 336 339 340 341 340 339 338 339 339 339 338 336 335
343 342 342 341 341 343 343 346 351 351 349 349 351 353 353 351 349 350 351 350 348 347 345 343 343 343 341 340 338 335 335 337 338 339 338 338 338 339 338 338 337 335
344 343 344 342 342 344 345 348 354 356 353 349 350 351 351 352 351 350 350 350 348 348 347 344 343 343 341 340 339 337 334 334 335 336 337 337 336 336 337 338 338 337
346 344 345 345 344 347 349 352 356 358 355 352 349 349 351 353 353 351 350 349 347 347 348 347 345 344 342 339 339 338 336 334 334 334 336 336 335 335 335 337 337 337
347 345 346 349 348 348 352 354 355 356 356 354 352 350 351 353 354 353 352 351 349 347 348 349 348 346 344 340 338 339 339 338 337 335 335 335 335 334 334 334 335 336
351 349 349 350 351 350 351 353 355 355 355 356 355 353 352 352 354 355 354 353 352 350 349 350 349 348 346 342 337 337 339 340 340 338 337 337 335 334 333 334 335 339
354 352 350 350 351 350 351 353 354 355 355 356 355 354 354 353 354 355 356 354 354 353 352 352 352 351 345 341 336 334 335 338 341 340 339 339 338 336 335 335 335 338
357 355 352 350 349 349 349 350 354 355 355 355 355 354 354 354 353 354 356 356 355 356 354 352 354 352 346 338 337 334 333 335 338 339 339 340 341 341 340 339 338 338
358 356 354 351 349 348 347 348 352 355 355 355 355 354 354 354 353 353 354 357 357 358 357 353 352 353 349 341 338 336 334 333 334 337 339 340 341 343 342 341 341 340
359 357 356 354 352 350 348 347 349 354 355 355 354 355 354 354 354 353 353 355 357 359 359 357 355 354 351 345 339 336 335 334 332 333 337 338 338 339 340 340 339 337
359 358 357 355 354 352 351 350 349 352 354 354 354 354 354 355 354 353 353 353 355 356 358 358 357 357 354 349 343 337 335 334 333 333 336 338 338 338 338 340 340 337
360 359 358 357 355 354 353 352 350 351 352 354 354 354 354 355 354 354 354 353 353 355 356 356 357 357 356 353 348 341 336 335 335 335 337 340 342 343 341 340 341 340
361 360 359 357 356 355 355 353 352 351 352 353 354 354 355 355 355 356 356 354 353 354 354 356 356 357 357 356 352 345 341 339 337 336 338 341 344 347 347 346 344 341
363 361 360 358 357 356 355 355 353 351 351 352 354 355 357 357 357 357 358 357 355 353 353 354 355 356 356 356 354 349 346 345 342 338 336 336 339 343 346 348 347 342
363 362 360 360 359 357 355 355 354 353 352 352 353 355 360 360 359 357 358 357 356 353 351 350 352 354 355 355 354 352 350 349 348 343 338 334 333 335 338 342 342 338
365 363 362 361 360 359 357 356 355 354 353 353 352 355 360 362 361 359 358 357 356 355 351 348 348 352 353 353 351 350 351 353 352 349 344 337 333 331 332 334 334 332
366 366 365 364 362 361 360 359 358 356 356 354 354 355 358 360 361 362 362 361 359 357 354 350 347 349 351 350 348 348 349 351 352 351 346 339 333 331 330 330 330 330

ECMWFNIL_850_thetae_063.txt.gz
Theta_e
329 328 328 329 328 327 328 328 329 329 327 327 326 326 327 326 328 332 335 339 340 340 341 342 341 343 346 348 351 353 351 348 347 347 347 347 347 345 341 341 345 346
329 329 328 328 328 327 327 327 328 328 327 326 326 326 327 327 327 329 331 335 338 339 339 341 342 343 343 344 346 349 348 347 345 346 347 347 347 348 346 344 345 346
327 328 328 327 327 327 327 327 327 327 326 326 327 327 327 328 328 330 329 330 335 338 338 339 341 342 344 343 343 344 345 344 345 345 346 347 346 347 348 347 346 345
327 326 327 326 326 327 326 327 326 326 325 326 326 327 329 330 331 332 331 330 332 336 338 338 339 340 342 342 342 343 343 343 344 344 344 345 346 346 347 349 349 346
327 326 326 326 326 325 325 326 325 325 325 325 327 327 329 331 333 334 334 332 330 333 337 338 339 339 341 341 341 342 342 342 343 343 342 342 344 344 345 349 351 349
329 328 327 326 326 325 325 325 325 325 326 325 326 328 329 332 336 337 336 334 331 330 333 337 339 339 340 340 340 340 341 342 342 343 342 342 343 343 343 346 347 350
332 331 329 327 327 327 326 326 326 326 326 327 327 328 330 334 337 338 338 337 335 332 331 334 338 339 340 340 339 339 339 340 341 341 342 341 342 342 342 343 344 347
336 333 332 329 328 328 327 327 327 327 327 327 328 329 331 335 338 338 339 340 339 336 332 333 335 337 339 339 338 338 338 339 339 340 340 340 340 341 341 342 342 343
340 337 334 333 331 330 330 330 329 329 329 329 330 330 332 336 339 339 338 340 341 339 335 333 334 335 337 338 338 337 337 338 338 338 338 339 339 339 340 341 342 342
345 341 337 336 334 334 332 333 333 332 332 332 332 334 334 337 340 340 339 340 340 339 337 334 333 335 336 336 336 336 336 336 337 338 338 338 338 338 338 339 339 339
350 346 342 338 336 336 335 335 335 335 335 335 335 336 337 338 341 342 341 341 340 338 335 334 333 333 336 336 335 335 336 335 336 337 337 337 337 337 338 338 338 337
353 350 345 341 338 337 337 337 338 338 338 338 338 339 340 341 342 343 343 342 340 337 335 333 332 332 334 335 335 335 336 336 335 336 336 336 336 336 338 338 337 336
355 352 348 343 339 338 338 338 339 339 339 340 339 341 343 344 343 344 345 343 340 338 336 334 333 332 332 333 334 334 335 335 335 335 336 335 335 335 336 337 337 336
357 354 350 346 342 340 339 339 340 340 341 341 341 342 344 345 344 345 346 345 342 339 337 336 336 335 333 333 333 334 333 334 334 334 334 335 334 334 334 335 334 334
358 356 353 351 346 343 341 340 340 342 343 344 344 344 344 345 346 347 348 346 344 341 340 340 340 339 337 334 334 334 333 333 333 334 333 334 334 333 333 333 333 333
361 358 355 353 350 346 343 342 342 343 345 346 347 346 346 347 349 349 349 348 345 344 343 343 343 342 340 337 335 335 334 334 333 333 333 333 333 333 333 332 332 332
362 360 358 355 353 349 346 344 344 345 346 347 348 349 349 349 350 352 351 349 347 345 345 345 344 343 342 340 337 336 336 336 335 334 334 334 333 333 332 332 331 331
363 361 359 357 355 352 348 346 345 346 347 349 350 350 351 351 352 353 352 351 349 348 347 346 345 343 341 340 338 337 336 337 337 336 335 335 334 334 333 332 332 331
364 363 361 359 356 354 351 349 348 348 349 350 350 351 352 353 352 353 353 352 352 350 348 347 346 344 343 340 339 337 338 338 338 338 337 336 335 335 334 334 333 332
365 363 361 359 358 356 353 352 350 349 349 350 351 352 353 353 353 352 354 354 353 352 351 349 347 346 344 342 340 338 338 339 339 339 338 337 335 335 335 334 334 334
365 364 362 360 358 357 355 353 352 351 351 352 353 354 353 353 353 353 353 354 354 354 354 352 350 348 346 344 342 340 339 340 340 341 339 338 337 335 335 334 334 334
364 363 362 361 359 358 357 355 354 352 352 353 354 355 354 354 354 354 353 352 353 354 354 354 353 351 348 347 344 342 342 343 344 344 344 341 339 337 336 335 334 335
364 363 362 361 359 358 357 357 355 354 353 354 355 355 355 355 354 355 354 353 353 353 354 354 355 353 351 349 346 345 345 347 348 348 347 344 340 338 337 336 335 334
364 363 363 362 360 359 358 357 356 354 353 354 355 356 355 355 355 355 355 354 353 352 352 353 354 354 352 352 349 347 348 348 348 349 348 345 342 340 340 339 338 336
364 363 363 362 361 359 358 358 357 355 354 353 354 355 355 356 355 355 355 355 353 353 352 352 353 354 354 353 352 351 351 350 349 350 350 347 343 340 340 340 340 339
364 363 362 362 361 360 359 359 357 356 355 354 354 355 355 356 355 355 355 355 354 354 352 351 352 353 353 354 354 353 352 352 352 352 351 348 344 340 338 339 339 339

ECMWFNIL_850_thetae_066.txt.gz
Theta_e
332 334 336 338 338 338 336 333 331 331 330 330 329 328 328 329 331 336 340 341 342 341 341 341 341 340 343 345 346 346 347 348 347 345 344 342 339 340 340 339 337 338
331 332 336 338 337 336 335 331 329 328 327 326 327 326 327 326 327 331 335 339 340 341 341 341 341 340 340 342 344 346 347 348 347 345 346 345 342 340 338 336 337 339
330 331 334 337 335 334 333 332 330 328 326 326 326 326 326 326 326 326 329 333 338 340 341 341 341 341 339 340 342 344 346 347 346 345 345 344 344 343 339 335 337 342
329 330 332 334 334 331 330 331 331 329 328 327 326 326 325 326 326 327 326 328 332 336 339 340 340 341 341 340 341 342 343 345 345 345 345 344 344 344 342 339 339 343
328 329 330 331 332 331 330 330 329 328 327 327 327 326 326 325 326 327 327 327 329 332 336 339 339 340 341 341 341 341 342 343 343 344 344 344 343 343 343 343 341 341
328 328 328 329 330 330 329 328 327 327 326 327 327 327 326 325 325 326 327 327 329 330 333 337 339 339 340 341 342 341 342 342 342 342 342 342 343 343 343 344 342 340
330 328 328 328 328 328 328 328 327 327 327 326 327 326 326 325 324 326 326 327 329 330 331 334 337 339 339 340 341 341 341 341 341 342 342 341 342 343 343 342 342 342
336 331 328 327 328 328 328 328 327 327 326 326 326 326 325 324 324 325 326 327 328 330 330 331 334 337 339 340 340 339 340 340 340 341 341 341 340 341 342 342 342 342
343 337 333 329 328 327 327 327 327 326 326 325 325 325 324 324 325 326 326 327 328 331 331 330 331 333 336 339 340 340 339 339 339 339 340 340 340 340 340 341 341 341
346 344 340 335 330 328 327 327 326 326 325 325 325 324 324 324 325 326 326 327 329 330 331 330 330 330 333 336 339 339 339 338 338 338 338 339 339 338 339 340 340 340
349 347 345 342 336 331 329 328 327 327 326 326 325 325 325 325 326 326 326 327 329 331 332 331 331 330 331 333 335 338 338 338 338 338 338 338 338 338 338 339 339 339
352 350 347 345 341 337 332 330 330 328 327 327 326 326 326 326 326 327 326 328 330 331 333 332 332 331 331 331 333 335 337 338 338 338 338 337 338 338 338 338 338 338
353 352 351 348 345 342 337 334 332 331 329 328 327 327 327 327 328 327 328 328 330 332 333 333 332 332 331 331 332 333 335 336 337 337 337 337 337 337 337 337 337 337
354 354 353 351 348 346 342 339 336 334 333 331 330 329 328 329 330 330 330 331 331 332 333 333 334 333 333 332 332 332 334 335 336 336 336 335 336 336 337 337 337 337
355 355 354 353 351 349 346 344 341 338 337 335 333 332 331 331 331 332 332 332 333 334 334 335 336 335 334 333 332 332 333 334 335 336 335 335 335 335 335 336 336 336
357 356 355 355 354 353 351 348 346 343 341 339 337 335 334 334 334 334 334 334 334 334 335 336 337 337 335 333 332 331 332 332 333 334 334 335 335 335 335 335 334 334
358 358 357 357 356 356 355 353 350 347 345 342 341 340 338 337 337 337 336 336 335 336 336 337 338 337 336 334 333 332 332 332 331 331 333 333 334 334 335 334 334 333
355 356 358 359 359 359 358 357 355 351 348 346 344 343 343 342 341 340 339 338 338 338 339 339 339 338 337 335 334 334 334 334 333 331 331 332 333 333 333 334 333 332
349 345 349 356 360 361 360 359 357 354 352 350 347 346 346 346 345 343 342 341 341 340 341 340 340 340 338 337 335 335 335 336 335 334 333 333 332 332 333 333 332 332
353 346 342 346 356 362 362 360 359 356 354 352 350 348 348 348 348 346 344 344 343 343 342 342 341 341 340 339 338 336 337 337 338 337 336 335 334 334 334 333 333 332
356 354 350 347 350 359 363 362 361 359 356 354 352 350 349 349 349 348 347 346 345 345 344 344 343 342 341 341 340 339 340 340 341 342 340 338 337 337 336 336 334 334
356 355 355 353 351 354 361 363 363 361 358 356 353 352 350 350 350 349 349 349 348 347 347 346 344 343 342 341 341 342 343 343 344 344 344 343 340 339 339 338 337 336
355 353 354 355 354 354 357 362 364 363 361 358 356 354 352 351 351 351 351 350 351 350 349 348 346 344 343 342 342 343 345 347 347 347 347 345 342 341 340 339 339 338
355 354 353 354 356 356 358 361 363 363 362 360 358 355 353 352 352 352 351 352 352 352 351 350 348 346 344 343 343 345 347 348 348 348 348 347 344 342 341 341 340 340
355 355 355 355 355 356 359 362 363 364 363 362 359 357 355 353 352 352 353 353 354 354 353 352 350 348 346 345 344 346 349 349 350 350 349 348 346 344 343 343 342 340
354 354 355 355 356 357 359 362 363 364 363 362 360 358 355 354 353 353 353 354 354 355 355 354 353 350 349 347 347 348 350 351 352 352 350 348 346 343 342 342 340 338

ECMWFNIL_850_thetae_069.txt.gz
Theta_e
333 333 333 333 334 334 333 335 337 338 337 336 335 333 332 333 336 339 341 341 340 340 340 341 342 343 343 346 346 345 345 345 345 344 342 340 340 341 342 342 341 341
333 333 332 332 332 332 332 332 334 335 334 334 334 333 332 332 333 335 338 341 340 340 339 340 341 341 341 344 346 345 344 345 346 345 343 341 340 340 341 341 342 341
334 332 331 331 331 330 330 331 332 333 332 331 333 333 333 332 332 332 334 338 340 341 340 339 340 340 340 341 343 344 343 342 345 345 344 343 342 340 339 340 340 340
334 333 332 331 330 330 330 331 332 333 332 330 330 330 331 330 331 330 330 332 336 339 341 340 340 340 340 340 341 342 342 342 343 345 345 344 343 342 341 340 338 337
332 333 332 331 330 330 331 331 331 331 332 330 328 328 328 328 329 328 328 328 329 333 337 340 340 340 340 341 340 340 340 341 343 344 344 344 343 343 342 342 338 335
332 333 332 332 331 330 330 330 330 330 330 329 329 328 328 327 327 327 326 327 327 327 330 334 337 339 340 340 340 340 340 340 341 343 344 344 344 343 343 343 340 336
334 333 332 332 331 331 331 330 330 330 329 329 329 329 328 328 327 326 326 326 326 326 327 329 331 335 338 339 340 340 341 341 341 342 342 342 343 344 343 343 342 340
339 335 334 333 332 331 331 331 331 330 329 329 329 329 329 328 327 326 326 326 325 325 326 327 329 331 333 337 338 339 340 341 341 341 341 341 341 342 342 342 342 342
344 341 337 335 334 332 331 331 331 332 331 331 329 328 328 328 327 326 326 326 326 325 325 326 328 329 331 333 336 338 339 340 341 341 341 341 340 340 341 341 342 341
346 345 343 340 335 332 330 330 330 332 333 333 330 329 328 327 327 326 326 326 326 325 325 325 326 328 330 331 333 336 338 339 339 340 340 340 340 340 340 340 341 341
348 348 347 344 339 334 330 328 329 330 332 333 332 331 329 327 327 327 326 326 326 325 324 325 325 326 329 331 331 333 336 338 339 339 339 339 339 339 339 340 340 340
349 349 349 348 345 341 335 330 328 328 329 330 331 330 329 328 328 327 326 326 325 325 324 324 325 325 327 330 331 332 332 334 337 338 339 339 339 339 339 339 340 339
350 350 350 350 349 347 343 338 333 329 328 328 328 329 328 328 328 327 326 325 324 325 324 324 325 325 326 328 331 332 332 332 334 336 338 339 339 338 338 339 339 339
351 351 351 351 351 350 349 347 343 338 333 330 328 328 328 328 328 327 326 326 325 325 325 325 325 325 326 327 329 332 333 332 332 333 335 337 338 338 338 338 339 339
352 351 351 352 352 352 351 350 349 346 342 338 334 331 330 329 329 328 327 327 326 326 326 325 326 326 326 327 329 331 333 333 333 332 332 334 335 336 337 337 337 337
352 352 352 353 352 352 352 352 352 351 349 347 343 339 336 333 331 331 330 328 327 327 327 327 327 327 327 328 329 331 332 334 334 333 332 332 333 334 336 335 335 335
353 352 353 353 353 353 353 353 353 352 352 351 349 347 344 341 337 335 333 332 331 329 329 329 329 329 330 330 331 332 332 333 334 334 333 333 332 333 334 335 335 335
354 353 353 354 354 354 354 353 353 353 353 353 352 351 349 346 344 341 337 335 334 333 331 331 331 332 332 332 332 333 333 334 335 335 335 334 333 332 333 333 334 334
355 354 354 354 354 354 354 354 354 354 354 354 353 353 352 350 349 346 343 340 338 336 334 333 334 334 333 334 334 334 334 335 336 337 336 336 334 333 332 332 332 332
355 356 355 354 354 355 354 354 355 355 355 355 355 355 354 353 353 351 348 346 342 340 338 336 335 335 335 335 335 335 336 336 338 339 339 338 337 336 335 334 332 332
353 354 354 355 355 355 355 356 355 354 354 355 356 357 357 357 356 354 352 350 346 344 341 339 337 336 336 337 337 337 337 338 339 341 341 341 340 338 338 337 334 333
354 353 352 354 356 357 357 357 357 355 354 354 355 357 358 359 359 357 355 352 350 347 345 342 339 338 337 337 338 338 339 340 341 342 343 344 343 341 340 339 337 336
357 356 355 355 357 358 358 358 358 357 356 355 355 356 358 359 360 359 358 355 352 349 347 344 341 339 339 339 338 339 341 342 343 344 344 345 345 344 343 342 340 339
355 356 356 356 358 359 358 358 358 358 357 356 355 356 357 359 360 360 360 358 354 350 348 345 343 340 340 340 339 340 342 343 344 345 345 346 345 345 345 344 343 341
354 354 355 355 357 357 358 357 357 357 357 357 356 356 356 358 360 360 361 360 357 353 350 348 345 343 342 341 341 341 343 344 345 347 347 347 347 346 346 346 345 343
356 356 355 355 355 356 357 357 357 357 357 357 357 357 356 357 359 360 361 361 360 357 353 350 348 346 344 342 341 342 343 345 347 348 348 347 347 347 347 347 346 345

ECMWFNIL_850_thetae_072.txt.gz
Theta_e
336 334 333 332 333 332 332 334 338 341 341 341 340 337 337 337 338 340 340 341 341 341 342 343 343 344 344 346 347 346 345 345 345 345 344 343 342 341 341 341 340 341
337 334 333 333 332 332 332 332 335 338 339 340 340 338 336 335 335 337 339 341 341 341 341 342 342 344 344 344 346 346 346 344 344 345 345 345 344 342 340 341 341 341
339 336 333 332 331 331 331 332 333 335 337 338 339 338 336 335 334 334 335 338 340 341 342 341 341 342 343 343 343 345 346 345 345 345 346 347 346 344 342 340 340 340
338 337 334 332 331 330 330 331 332 333 334 336 337 337 335 335 335 333 333 334 337 340 341 341 341 341 341 342 342 342 343 345 345 345 345 346 346 345 345 343 342 340
336 335 334 333 332 331 330 330 331 331 331 332 334 335 335 335 334 334 333 332 332 335 338 340 341 341 341 341 340 340 340 342 343 344 344 345 346 345 345 345 344 343
337 336 335 333 332 331 330 329 329 330 329 329 331 333 334 334 333 333 333 331 329 330 332 334 337 338 340 340 340 340 340 340 341 342 342 343 345 345 345 345 344 344
341 338 336 334 333 332 331 329 329 329 328 329 330 332 333 333 332 332 331 331 329 327 327 327 329 331 334 336 338 339 340 339 339 340 340 341 342 344 344 344 344 344
343 342 339 337 334 332 331 330 330 329 329 329 329 330 332 332 331 331 330 330 329 327 326 326 326 326 328 330 333 335 337 339 339 339 339 339 340 341 342 343 343 343
345 344 343 341 338 334 331 330 330 330 329 329 329 329 330 331 331 331 331 330 329 328 327 326 325 326 326 327 329 331 334 336 337 338 339 339 339 339 340 341 342 342
345 345 344 344 342 339 334 330 330 330 330 330 329 329 329 329 330 331 332 332 331 330 328 327 326 326 326 326 327 329 330 332 335 337 338 338 338 339 339 339 340 340
346 345 345 345 345 343 339 335 332 330 330 330 329 329 329 328 329 331 332 332 331 331 330 328 327 326 326 325 325 327 328 330 332 334 336 338 338 338 339 339 339 339
346 346 346 346 346 346 344 342 338 335 332 331 329 329 329 328 329 329 330 331 331 331 331 330 328 327 326 326 325 325 326 328 331 332 333 335 337 338 338 338 338 338
346 346 346 346 346 347 346 345 344 342 340 336 333 331 329 328 328 328 329 330 330 330 330 330 329 328 327 327 325 325 324 325 328 330 332 333 333 336 337 338 338 337
346 346 346 347 347 347 347 347 347 347 346 344 341 337 333 330 329 328 328 328 328 329 329 329 329 328 328 327 326 325 325 324 325 328 330 332 332 332 334 336 337 337
347 347 347 347 347 348 348 348 349 348 348 348 346 344 340 335 332 330 328 328 328 328 327 328 328 327 327 327 326 325 325 325 325 326 327 330 332 332 331 332 334 336
348 347 347 348 348 348 349 349 350 350 349 349 349 348 347 344 341 337 334 331 330 329 328 328 327 327 327 326 326 326 325 326 326 326 327 329 331 332 331 330 331 332
348 348 348 349 349 349 350 349 350 350 350 351 350 350 350 349 348 346 343 339 336 334 332 331 329 328 328 327 326 326 326 326 326 327 328 329 330 332 332 331 330 331
350 349 349 350 350 350 350 351 351 351 351 351 351 351 352 351 351 350 349 347 346 343 340 337 334 331 330 330 329 328 328 328 328 328 329 330 331 332 333 333 332 331
350 350 349 350 351 351 351 351 351 352 352 352 352 352 352 352 352 352 352 351 350 349 347 344 339 335 333 332 332 331 331 331 330 330 331 331 332 332 333 333 333 332
351 350 349 350 352 352 351 352 352 352 352 353 353 353 353 353 353 353 353 353 352 352 351 349 344 338 336 335 334 333 334 333 333 333 333 333 333 334 334 334 335 334
352 352 352 352 352 352 352 352 352 352 352 352 353 354 353 353 353 353 354 354 354 354 353 352 348 342 338 336 335 335 335 335 335 335 335 335 335 335 335 335 336 336
352 353 352 352 353 353 353 353 352 353 353 352 353 353 354 354 354 354 354 354 354 354 355 355 351 346 342 338 335 336 336 336 337 337 337 337 337 336 336 336 337 337
353 353 353 353 354 354 354 353 353 353 353 353 353 353 354 355 355 355 354 353 353 354 355 357 354 349 347 342 338 337 337 338 338 337 338 338 338 338 338 338 338 338
352 352 352 353 354 354 354 354 354 354 354 354 354 353 354 355 356 356 355 354 354 353 354 357 357 354 352 348 343 341 340 340 339 338 339 340 339 339 339 339 339 339
352 352 352 353 354 354 355 355 355 355 355 355 355 355 355 356 357 357 356 356 356 355 353 355 357 358 357 352 347 344 343 342 341 340 340 340 340 340 340 340 341 341
354 354 353 353 353 353 354 356 356 356 357 357 357 356 357 357 358 357 357 357 356 356 355 354 355 359 360 357 352 347 344 344 343 343 341 340 341 341 341 342 342 342

ECMWFNIL_850_thetae_075.txt.gz
Theta_e
334 334 335 334 334 333 333 332 334 340 344 344 343 343 342 340 340 340 341 341 342 341 342 343 344 345 344 345 346 347 347 347 347 346 344 343 342 342 342 341 341 340
334 334 334 335 334 333 333 333 333 335 340 343 343 342 341 340 339 339 339 340 341 341 342 342 342 344 344 344 345 346 347 347 346 346 344 344 343 342 341 341 341 340
334 334 334 334 334 333 333 333 333 333 336 340 343 342 341 340 338 337 337 338 340 341 342 342 342 342 343 343 344 345 346 347 347 346 345 345 344 343 342 341 341 340
335 334 334 333 333 333 333 333 333 333 333 336 340 341 341 340 338 337 336 336 337 339 340 342 342 341 342 342 343 343 344 346 347 346 346 346 346 344 343 343 342 341
338 335 334 334 333 332 333 333 333 333 332 333 336 339 340 339 338 337 336 336 335 336 337 339 341 342 341 341 341 341 341 342 344 345 345 346 346 346 345 345 344 343
342 339 336 334 334 333 333 332 332 332 332 332 333 335 338 339 337 336 336 337 336 336 335 336 338 340 341 342 341 340 340 340 341 342 343 344 345 346 346 345 345 345
344 343 340 337 335 334 333 332 332 331 331 331 332 333 335 336 336 335 335 335 335 335 335 334 334 336 337 338 339 339 339 340 340 340 340 342 343 344 345 345 345 345
344 344 343 341 339 336 333 332 332 332 331 331 331 331 331 332 333 333 332 333 333 334 333 333 332 331 332 332 332 333 334 336 338 339 339 340 341 342 343 344 344 344
345 345 344 344 342 340 337 334 332 332 331 330 330 330 330 329 330 331 330 331 331 331 332 331 331 330 330 330 329 329 329 330 333 335 337 339 339 340 341 342 342 343
346 345 345 345 344 343 342 338 335 332 331 331 330 330 329 328 328 330 330 330 329 329 329 329 329 329 329 329 328 328 328 328 329 331 333 335 337 338 339 340 341 341
346 346 345 345 345 345 345 343 341 338 334 331 331 330 330 329 328 329 329 329 328 328 327 328 328 329 329 329 329 328 327 327 327 328 329 331 334 336 337 338 339 339
346 346 346 346 345 345 346 345 344 343 341 336 333 331 330 330 329 329 328 328 328 328 328 327 328 328 329 329 329 329 328 328 327 327 327 328 330 333 335 336 337 338
346 346 346 346 346 346 346 346 346 345 345 343 339 334 331 330 330 330 329 329 328 328 327 327 327 327 327 328 328 328 328 328 327 327 326 326 327 329 332 333 335 336
346 346 346 346 346 347 346 346 346 346 346 346 345 342 338 334 332 330 329 329 329 328 328 327 327 327 327 327 326 327 327 326 327 327 326 325 325 326 328 331 332 333
346 346 346 346 346 346 346 346 346 346 346 346 346 346 345 342 340 337 334 332 330 329 328 327 327 327 326 326 326 326 326 326 325 326 326 325 325 325 326 328 330 331
346 346 346 346 346 346 347 347 346 346 346 347 347 347 347 347 346 345 342 339 336 332 330 328 327 327 326 326 326 326 326 326 326 325 325 325 325 325 325 326 328 330
346 346 346 347 347 346 347 347 347 347 347 347 347 347 348 348 348 348 347 345 342 338 334 331 328 327 327 327 327 327 327 326 326 326 325 326 326 326 326 326 327 329
346 346 346 347 347 347 347 347 347 347 347 347 347 347 348 348 349 349 350 349 347 345 341 336 331 328 328 328 328 328 327 327 327 327 326 326 326 326 326 327 328 329
346 347 347 347 347 347 347 347 347 347 347 348 348 348 348 348 349 350 350 350 350 350 348 344 339 333 330 330 330 329 329 329 329 329 328 327 327 327 327 328 329 329
346 347 347 347 348 348 348 348 347 347 348 348 349 349 349 349 350 350 350 351 351 351 351 350 347 342 337 335 333 332 332 332 333 333 331 330 329 329 329 329 330 331
347 347 347 347 347 348 348 348 348 348 349 349 348 349 350 351 351 350 350 351 351 352 351 352 352 350 346 343 341 339 339 340 340 340 338 335 332 331 331 332 332 332
349 349 348 348 348 349 349 349 349 349 350 350 350 350 350 351 351 351 351 352 352 352 352 352 353 353 352 350 348 346 347 348 347 345 343 341 337 334 333 333 333 333
350 351 350 350 350 351 351 350 350 350 350 351 351 351 351 351 352 352 352 352 352 352 353 353 353 353 353 353 352 352 352 352 350 349 347 345 340 336 335 334 334 334
351 351 352 352 352 352 352 352 352 352 352 352 352 352 352 352 353 352 353 353 352 353 354 354 354 354 353 353 353 354 355 354 353 352 350 347 343 339 336 335 335 335
350 350 351 351 352 352 352 353 353 353 353 353 353 354 353 353 353 353 353 353 353 353 354 355 355 355 355 354 353 353 354 355 355 355 352 349 345 341 338 336 336 335
347 349 350 350 350 351 352 353 353 353 354 354 354 354 355 355 354 354 354 354 354 354 355 356 356 356 356 356 355 354 354 355 356 356 354 350 345 342 340 338 336 337

ECMWFNIL_850_thetae_078.txt.gz
Theta_e
336 336 336 335 335 335 336 338 339 342 346 351 352 351 350 346 344 345 345 344 344 343 344 345 347 347 346 345 345 345 345 345 345 344 342 341 342 345 348 347 346 347
335 336 336 335 334 334 333 334 336 340 342 345 350 352 350 345 343 342 342 343 343 343 344 344 345 347 346 346 345 345 345 343 345 346 343 341 342 345 347 347 346 347
333 334 334 334 334 333 333 332 332 334 338 341 345 349 349 348 345 342 341 341 343 344 344 343 344 344 345 346 346 346 346 344 347 349 346 342 344 346 347 347 348 347
335 333 333 334 335 334 334 335 334 332 335 339 341 345 348 349 347 343 341 340 341 343 343 343 344 344 344 345 345 346 346 344 346 349 346 344 344 345 346 348 349 349
340 336 334 333 334 335 334 334 335 333 334 337 339 342 344 344 345 344 343 341 340 340 342 342 342 343 343 344 344 345 346 348 348 345 344 346 346 347 347 347 347 347
343 341 337 334 333 334 333 333 333 334 335 337 338 339 341 341 341 344 343 342 342 343 344 344 341 342 344 343 344 344 344 349 352 348 344 346 348 352 353 351 348 346
344 343 341 338 335 333 333 333 333 333 335 337 337 336 337 338 339 341 340 339 343 346 347 345 342 340 343 343 343 344 343 345 348 345 344 345 346 349 353 354 349 345
344 344 344 342 339 337 334 334 333 332 332 334 335 333 332 334 336 340 340 337 341 344 343 341 340 338 340 342 341 342 342 344 346 345 343 345 344 344 347 350 348 345
345 344 344 344 342 341 340 338 336 333 331 331 333 333 332 332 334 337 338 336 338 340 337 336 337 336 336 336 335 334 334 339 345 344 342 342 344 344 345 347 347 346
347 345 345 344 344 344 344 344 343 339 333 330 331 333 333 331 331 333 335 334 334 335 334 333 333 332 332 331 330 329 328 330 334 336 335 336 340 344 347 348 349 348
349 348 347 346 345 346 347 346 347 346 340 333 329 333 334 332 330 330 331 331 331 331 331 331 331 330 331 330 328 328 327 328 329 330 330 330 332 335 339 342 345 347
352 351 350 348 347 347 348 348 347 348 346 341 333 331 332 332 330 329 329 328 328 330 330 330 329 329 328 328 329 330 328 327 329 329 328 329 329 330 332 334 337 340
354 353 352 351 349 348 348 349 349 348 349 347 343 338 335 334 332 330 329 329 328 328 329 329 329 328 327 327 327 330 330 327 328 329 329 329 328 329 333 336 337 337
351 352 353 351 350 348 347 348 349 349 348 349 348 345 342 340 338 333 330 328 329 328 328 329 329 328 328 328 327 328 329 327 327 328 329 330 329 328 332 336 339 340
347 349 351 350 348 347 347 347 347 348 348 348 347 347 345 345 344 342 336 331 329 329 329 329 329 328 328 328 328 328 327 327 327 327 327 327 327 328 329 330 332 337
348 346 346 348 347 346 346 346 346 346 347 346 346 345 345 346 345 346 344 340 334 331 329 328 329 329 329 328 328 327 327 327 328 327 326 325 325 326 326 326 327 331
352 349 346 345 346 345 345 346 346 346 345 345 346 345 345 346 345 345 346 346 344 340 336 333 331 329 328 327 327 327 327 327 328 327 326 326 326 325 325 326 326 327
352 351 348 347 346 345 345 346 346 346 346 346 346 345 346 346 346 345 346 347 347 347 346 344 340 334 329 326 326 326 326 326 327 328 328 327 326 325 325 325 325 326
351 352 351 351 348 345 346 346 345 346 346 346 346 346 346 346 346 346 346 347 347 347 348 349 348 344 337 331 328 327 327 327 327 329 332 333 331 328 326 325 326 325
350 353 353 354 352 350 350 349 348 347 347 346 347 348 347 347 347 347 347 347 348 347 348 349 349 349 347 341 336 331 330 330 331 332 334 335 334 332 329 327 326 326
348 351 353 354 354 354 355 355 353 352 351 349 349 350 351 350 349 348 348 348 348 349 349 349 350 350 351 349 344 341 339 339 339 340 340 338 336 333 331 328 327 327
348 350 352 353 354 354 354 355 355 355 354 352 351 352 353 353 352 352 351 350 350 350 350 351 351 351 351 351 350 348 348 348 347 347 345 344 342 338 335 332 329 329
348 349 350 351 352 354 354 355 355 355 355 355 354 354 354 354 354 354 354 353 353 353 351 351 351 351 352 352 352 351 352 352 352 351 350 349 347 344 342 338 333 332
349 349 350 349 350 352 353 354 354 354 354 354 356 356 356 355 354 355 355 355 355 354 354 352 352 352 352 352 353 353 353 352 352 353 353 352 351 349 347 345 340 336
344 345 347 349 350 350 351 352 352 352 352 354 354 355 355 354 354 354 354 355 355 355 355 354 353 352 352 353 353 353 353 353 353 354 353 353 353 353 352 350 347 342
336 337 339 343 346 348 350 351 351 351 351 352 353 354 354 353 354 354 353 353 355 356 356 355 355 354 353 352 353 353 353 354 354 354 354 354 354 353 354 353 352 348

ECMWFNIL_850_thetae_081.txt.gz
Theta_e
340 341 341 342 347 349 350 350 350 351 353 354 354 353 353 352 351 353 354 350 344 345 346 345 346 346 347 346 347 350 349 350 355 351 344 345 347 349 350 348 349 348
337 340 340 343 346 347 348 351 351 350 352 354 356 356 355 352 350 349 350 348 345 346 346 345 347 345 348 350 347 346 346 344 351 353 345 344 349 351 350 349 349 349
336 338 339 342 345 345 346 349 351 351 351 353 355 356 356 354 351 348 347 347 349 350 348 345 348 347 346 349 346 345 346 342 349 356 349 344 350 353 352 350 349 348
335 337 340 344 347 346 347 348 349 349 349 351 353 354 355 355 353 351 348 346 346 350 351 347 347 349 346 346 346 347 348 344 346 352 349 343 347 353 355 353 350 349
338 337 341 347 349 348 348 348 347 347 347 349 351 351 353 353 354 354 351 346 343 346 351 349 348 349 346 344 345 348 350 350 347 346 345 344 346 351 355 354 352 351
342 339 340 346 349 349 349 348 348 348 347 347 349 349 351 352 352 354 353 351 347 348 351 351 350 351 350 346 344 345 350 354 353 347 343 345 348 352 356 354 351 351
347 344 341 344 348 348 348 349 348 347 347 347 348 348 349 351 351 351 352 353 352 350 351 352 352 353 353 352 347 343 346 351 354 350 345 346 347 350 354 354 349 347
353 350 345 344 348 348 347 348 349 348 347 346 348 348 348 350 350 350 351 352 352 351 350 351 352 350 351 353 351 345 345 350 353 349 345 347 347 345 349 351 349 346
356 354 352 349 349 348 347 347 347 348 347 346 345 346 347 348 349 350 350 350 350 351 351 352 351 348 348 352 353 348 346 350 353 352 348 347 348 347 347 348 349 348
357 355 354 353 351 349 347 346 345 346 347 346 345 344 345 346 347 348 350 350 350 349 350 351 350 348 348 351 351 347 344 344 347 350 349 348 349 351 352 352 352 351
357 356 354 354 352 349 347 346 344 344 346 346 345 344 343 344 345 345 348 351 350 348 347 346 344 343 344 348 351 349 345 344 344 343 343 344 346 347 349 350 352 353
358 356 355 354 353 351 349 347 345 344 344 346 346 344 343 343 345 344 343 343 342 343 344 342 338 336 336 340 346 349 347 346 347 345 343 342 341 342 343 344 347 349
356 356 356 355 354 352 350 348 347 345 344 344 345 345 344 342 344 346 343 336 331 333 339 340 336 333 332 331 336 344 348 347 346 347 347 346 344 345 346 345 346 348
356 356 356 355 355 354 352 350 349 347 345 344 344 345 345 342 342 345 346 340 332 328 331 336 336 333 331 329 329 335 343 346 346 345 346 347 348 348 348 347 347 348
355 355 356 356 356 355 354 353 351 349 348 346 346 346 346 345 342 343 345 346 342 334 329 333 339 339 337 334 330 329 335 342 345 345 344 345 346 347 347 347 346 345
354 355 355 356 356 356 356 356 355 353 351 349 348 347 347 347 345 344 344 346 347 344 339 337 341 343 342 338 332 328 330 337 342 345 345 346 345 345 345 345 345 344
354 355 356 355 355 356 358 357 357 355 353 352 351 350 349 350 349 348 346 345 347 347 346 344 342 341 342 340 335 329 329 333 338 342 345 346 346 345 344 342 342 343
352 353 354 353 353 355 357 357 358 357 355 354 354 353 353 352 352 352 350 348 347 346 346 346 344 342 342 341 338 333 328 330 336 341 344 345 346 346 344 342 341 341
351 351 352 352 352 353 354 355 356 356 355 355 355 355 355 354 353 353 352 351 350 348 348 347 346 345 344 343 342 338 332 328 331 336 341 343 345 347 347 345 343 342
348 348 349 349 350 351 353 354 355 355 355 356 356 354 355 356 355 355 354 352 350 349 349 349 348 348 347 347 347 344 339 333 329 331 335 337 341 344 347 348 347 345
345 345 346 347 348 350 352 353 354 354 354 355 356 354 355 356 356 356 356 355 353 350 350 350 350 350 349 349 349 349 346 342 338 336 336 335 336 337 341 344 347 349
347 346 346 347 349 350 351 351 352 354 353 354 355 354 354 355 355 356 357 356 356 354 352 353 352 351 350 349 349 350 349 348 347 345 344 342 339 335 334 334 336 340
347 348 348 348 349 349 350 351 352 353 352 352 352 352 352 353 353 355 356 356 357 356 355 355 354 353 351 350 349 349 349 350 350 350 349 348 346 342 338 335 331 330
343 345 347 348 349 350 349 350 351 353 353 352 352 351 352 353 352 353 355 356 356 357 357 356 356 355 353 351 350 350 350 350 350 351 351 351 350 348 345 343 339 335
337 341 343 344 346 348 349 350 350 350 351 352 353 353 352 352 352 353 354 355 355 357 357 357 357 357 355 353 352 351 351 351 351 351 352 351 352 351 350 349 347 344
330 335 338 339 341 342 344 347 349 350 351 352 353 354 354 354 353 353 355 355 355 357 358 358 358 358 357 356 354 353 352 351 351 352 352 352 352 352 352 352 352 350

ECMWFNIL_850_thetae_084.txt.gz
Theta_e
339 338 340 347 349 351 353 350 346 349 353 353 351 348 348 347 347 348 345 344 345 347 347 346 346 346 347 349 348 347 345 346 349 347 342 341 341 344 349 347 347 348
340 339 338 342 345 347 350 348 348 350 352 354 354 353 352 350 347 347 347 345 344 345 346 346 346 346 346 347 347 346 345 347 350 349 343 341 340 344 349 349 348 348
339 340 338 341 342 342 346 348 349 351 351 352 354 355 354 352 348 347 347 346 343 343 345 345 346 345 345 346 345 345 345 346 349 350 346 342 342 346 349 349 349 348
336 338 338 341 342 340 344 350 349 349 351 352 353 355 355 354 352 348 346 345 344 343 344 344 346 346 345 346 346 346 345 345 349 349 346 344 346 349 351 350 350 349
334 337 336 341 347 344 344 349 349 347 350 352 353 355 355 355 353 349 344 342 343 346 347 343 343 346 346 346 348 348 345 345 348 349 347 347 346 349 354 352 350 351
334 336 335 340 349 348 345 347 349 347 348 350 352 353 354 356 355 351 347 342 340 345 349 345 342 344 345 345 347 348 345 345 347 347 346 348 346 349 354 355 353 352
338 336 335 340 348 350 348 347 347 347 346 347 350 351 352 354 354 353 351 347 343 346 350 350 346 344 344 344 345 346 346 347 349 348 344 345 345 348 354 355 354 353
346 339 334 338 346 349 349 349 348 348 346 346 348 349 350 351 350 352 353 351 350 350 351 351 350 346 346 346 344 344 345 346 350 349 345 344 344 344 349 354 355 353
354 349 340 340 346 348 349 349 349 348 347 346 347 347 348 349 348 349 351 352 353 353 351 351 351 349 347 349 348 344 342 345 351 351 346 345 346 344 343 348 352 351
354 354 350 348 349 348 348 349 349 349 348 347 347 347 347 348 348 348 348 348 350 352 351 350 351 350 346 347 350 348 343 344 351 353 348 344 344 344 343 343 344 346
351 353 354 354 352 349 347 348 348 349 349 348 347 347 347 347 347 348 349 347 346 347 348 346 349 349 344 343 349 349 344 343 346 349 349 346 343 342 343 343 342 344
350 350 351 352 351 349 347 347 347 346 348 348 347 346 346 346 347 347 349 349 346 343 343 342 343 346 342 340 346 351 347 342 341 342 341 341 340 338 339 338 339 340
351 351 350 350 350 349 346 345 345 345 345 347 347 347 345 345 347 347 347 347 346 343 342 341 340 342 342 338 341 350 352 347 342 340 338 334 333 332 332 333 335 336
353 353 351 349 349 349 347 346 345 344 344 344 345 347 346 344 344 346 346 346 346 343 341 341 340 339 340 338 336 342 350 351 347 344 343 341 337 334 334 338 342 343
352 353 352 350 349 348 348 347 346 345 345 344 344 345 346 345 343 344 346 346 347 346 343 344 345 342 338 335 333 333 339 347 349 347 347 347 346 345 342 343 345 346
351 352 352 352 350 349 350 350 349 347 346 345 345 345 344 345 344 342 344 345 347 348 346 346 348 348 342 335 332 330 330 334 341 345 347 347 346 347 347 347 347 347
352 352 353 352 351 350 351 352 352 351 349 347 347 347 345 345 345 344 343 343 346 348 349 348 348 348 347 341 335 332 329 328 331 337 342 345 344 344 345 346 345 346
352 353 353 353 353 352 352 353 353 352 352 350 349 348 346 346 346 346 345 343 344 345 348 350 350 348 346 344 340 336 334 331 329 330 334 338 341 342 342 343 341 341
351 352 353 353 353 353 352 353 354 354 353 351 350 350 348 347 347 348 348 346 345 345 346 347 349 349 346 345 343 340 338 336 334 332 331 333 337 340 340 341 341 340
349 350 350 351 352 352 352 353 354 355 354 352 351 350 351 351 350 349 349 349 348 346 346 346 347 348 347 345 344 342 341 340 338 337 335 334 336 340 342 342 342 342
347 347 347 348 350 351 351 351 352 352 352 352 350 349 350 351 352 352 351 352 352 351 350 349 347 348 348 347 346 345 344 343 342 341 340 338 337 338 340 342 342 344
345 345 345 346 347 348 348 348 349 350 350 351 351 350 351 350 350 351 350 350 352 353 354 353 352 350 349 348 348 347 347 346 345 345 345 344 342 339 338 337 338 339
344 344 345 346 346 346 346 347 349 350 349 350 351 352 352 352 351 350 349 349 350 352 354 356 356 354 353 350 349 349 349 349 348 348 348 348 347 345 341 338 337 335
336 340 342 344 345 346 347 348 349 351 350 350 351 352 353 353 352 351 350 350 352 353 354 356 357 357 356 355 353 351 350 350 349 349 350 349 350 349 347 346 345 343
323 327 330 334 339 343 347 349 349 349 350 350 350 351 352 352 353 352 352 353 354 355 355 356 357 357 357 356 356 355 354 352 351 350 351 350 350 350 349 349 349 349
319 321 322 324 329 335 340 346 349 349 349 349 349 350 350 351 353 353 353 353 355 355 355 355 355 355 355 356 356 356 355 355 354 353 352 351 351 350 350 350 350 350

ECMWFNIL_850_thetae_087.txt.gz
Theta_e
338 341 347 350 349 349 350 350 349 348 347 346 345 345 347 346 344 344 344 344 344 345 345 345 346 346 348 349 348 349 349 346 344 342 343 341 340 341 340 340 344 345
338 339 343 349 351 349 349 347 345 345 346 347 345 346 348 347 344 345 345 344 344 345 345 345 346 345 347 348 347 348 347 345 345 344 342 341 341 340 340 341 342 344
337 337 339 345 350 350 347 344 343 343 344 347 348 347 348 349 347 347 347 344 342 345 345 345 346 345 346 348 346 346 346 344 346 346 342 341 340 339 341 344 344 342
338 338 337 341 346 347 347 345 343 342 343 346 349 348 349 350 350 349 349 345 342 343 344 345 345 344 345 345 344 344 345 345 347 347 343 341 340 339 340 345 347 345
338 338 337 338 341 344 347 347 344 343 342 344 349 350 351 352 351 350 347 345 344 343 343 345 345 344 345 345 344 344 344 344 346 347 346 343 342 342 343 345 346 347
336 338 338 338 339 340 344 345 344 345 344 343 347 352 353 352 353 350 345 343 345 344 342 344 344 344 345 345 345 345 344 344 345 347 346 345 344 344 347 348 347 347
333 335 337 338 340 340 341 343 346 347 345 344 347 351 354 354 353 353 348 344 343 343 342 341 342 344 345 345 344 345 346 343 344 346 345 346 346 346 349 353 352 350
336 335 335 337 340 344 345 345 347 348 347 347 347 348 351 353 354 354 352 347 342 341 341 341 340 341 343 344 344 345 345 344 344 345 344 344 345 345 348 353 354 353
348 344 339 335 337 345 350 349 347 347 347 347 348 348 347 348 351 354 354 350 345 342 342 342 342 342 343 343 343 344 345 344 345 346 346 344 343 343 346 350 353 353
356 355 350 343 339 343 349 350 349 348 347 345 347 348 347 345 346 349 350 349 347 345 344 345 345 345 345 343 342 342 343 343 343 345 348 348 346 344 344 345 348 349
356 356 356 353 348 347 350 350 349 349 348 346 346 346 348 347 346 346 346 346 346 345 345 347 348 347 346 345 343 341 341 343 343 344 346 348 347 346 345 343 343 344
355 354 355 355 352 351 351 351 349 349 348 347 346 345 346 348 347 346 346 345 343 342 343 345 348 348 346 345 344 341 340 340 342 343 345 346 345 344 344 343 342 342
354 354 354 355 353 352 351 350 349 349 349 348 348 346 345 346 347 347 346 344 342 341 340 342 345 346 345 343 341 341 339 338 339 341 342 343 342 340 339 340 340 339
354 353 352 352 352 352 351 349 348 349 349 348 348 347 345 344 346 347 347 346 344 342 340 340 341 342 342 341 339 337 337 337 337 339 340 339 338 335 333 333 332 332
353 352 350 349 349 350 349 348 347 347 347 348 348 347 345 343 344 345 346 346 345 344 343 341 340 338 337 336 336 335 334 334 334 336 338 338 336 333 331 330 330 330
353 352 350 349 349 348 347 347 347 346 346 347 348 348 346 345 343 344 345 345 345 345 344 343 342 340 336 333 332 331 332 333 332 332 334 336 337 336 334 334 335 335
352 352 352 352 352 349 347 347 346 346 346 347 348 347 347 346 345 344 344 345 345 344 344 344 344 343 341 338 334 331 330 331 331 330 330 331 333 334 334 334 335 337
351 352 352 352 352 351 349 348 347 346 347 348 349 347 346 346 346 346 345 345 346 346 346 345 344 343 343 343 341 338 336 334 334 332 331 330 329 330 329 330 330 332
352 352 352 352 352 352 351 350 349 348 348 349 350 349 348 346 345 346 345 345 346 347 348 348 347 346 345 345 345 345 343 342 341 338 336 334 332 330 330 329 329 329
351 351 351 351 352 351 351 351 350 350 349 350 351 351 350 348 346 345 345 345 345 345 347 348 349 349 349 348 348 348 347 346 345 343 341 339 337 335 334 332 331 331
349 350 350 351 352 351 351 351 351 351 351 351 352 353 352 351 349 347 345 345 345 344 345 346 347 348 350 351 351 351 350 349 347 346 344 343 342 341 339 337 336 334
345 346 348 349 351 351 351 351 352 352 352 352 353 353 353 352 352 350 349 348 347 346 346 346 345 346 349 350 351 351 351 351 350 348 346 344 343 343 342 342 341 339
344 345 345 346 347 348 349 350 350 350 350 351 352 352 352 352 351 351 350 350 350 349 349 349 349 349 348 347 347 347 348 350 352 351 348 346 345 344 343 343 343 342
336 339 340 343 344 346 346 346 347 348 348 348 349 350 350 350 350 351 350 350 350 350 351 351 351 350 350 349 348 347 346 347 349 349 349 348 347 346 345 344 344 344
323 326 329 333 337 342 345 346 346 346 346 347 348 349 350 350 350 351 351 351 351 351 351 351 351 350 349 349 350 351 351 351 349 349 349 349 349 348 347 347 346 346
316 319 321 323 326 332 338 342 344 346 347 347 348 349 350 350 350 350 351 351 352 352 352 352 352 350 348 348 350 353 354 354 353 352 351 351 351 350 349 349 349 348

ECMWFNIL_850_thetae_090.txt.gz
Theta_e
344 346 347 346 347 347 347 348 349 348 347 344 343 344 344 344 345 345 344 344 344 344 345 345 346 348 349 349 348 345 342 340 340 341 341 342 341 340 341 342 342 343
341 342 344 346 347 347 346 346 347 348 348 346 344 344 345 345 346 345 344 344 345 345 345 344 346 348 348 349 348 345 344 342 340 341 341 341 341 340 341 341 342 344
337 339 341 344 346 346 345 346 346 346 347 346 345 344 345 347 346 344 344 344 344 345 345 344 345 346 346 348 348 346 346 345 342 341 342 341 340 340 340 340 341 344
335 336 338 341 343 342 342 345 347 344 344 345 346 345 344 346 346 344 345 344 343 344 344 344 345 345 345 347 347 347 348 348 345 343 344 342 340 339 339 339 340 341
335 335 336 339 341 340 339 342 344 343 341 342 345 346 345 344 344 344 344 344 342 342 344 344 344 345 344 345 346 346 347 348 346 345 345 344 341 339 338 338 339 339
337 336 336 338 339 339 339 339 340 340 340 339 342 344 345 344 343 342 343 344 343 342 342 344 344 344 344 344 345 345 344 346 346 345 345 345 342 341 341 342 342 341
338 337 336 337 338 339 340 339 339 338 338 338 339 341 343 344 343 342 341 342 343 343 342 342 343 344 344 344 344 344 344 345 345 345 346 346 344 343 343 345 347 346
336 337 337 337 337 338 339 339 339 338 338 339 338 339 344 345 345 344 343 342 342 342 342 341 342 343 344 344 345 344 344 345 345 345 345 345 345 345 344 346 348 349
338 336 336 337 338 338 338 339 340 340 341 341 339 340 345 348 347 346 346 344 342 341 341 341 340 341 342 343 344 344 344 344 345 344 345 345 344 344 344 344 345 346
345 342 339 337 336 337 339 339 340 342 343 345 345 344 345 348 349 348 348 347 344 342 341 340 339 339 340 341 342 343 343 343 344 344 344 345 344 344 344 343 343 343
350 348 348 345 341 338 339 342 345 346 347 348 348 348 347 348 348 347 347 346 345 345 343 341 339 338 338 339 339 341 342 342 342 343 342 343 344 344 344 344 345 344
349 347 349 352 351 346 342 344 349 351 350 349 349 349 348 348 348 347 345 343 343 343 343 342 341 340 338 338 338 339 340 340 341 341 341 341 341 342 343 343 344 344
352 348 347 352 355 353 349 348 352 353 351 350 349 349 348 348 348 348 346 344 342 341 341 341 342 342 340 340 340 338 337 338 339 339 340 340 340 340 341 342 342 342
353 351 349 349 352 355 353 352 353 353 351 349 348 348 348 347 347 346 346 346 345 344 343 342 341 341 341 341 342 341 339 337 337 336 336 337 338 339 338 338 339 338
352 352 351 351 353 354 354 353 353 353 351 350 348 348 348 349 347 345 345 345 346 346 346 345 343 342 341 341 341 342 341 339 337 335 335 334 335 337 338 337 335 333
352 352 352 352 353 354 354 353 354 353 351 349 349 348 348 349 349 348 345 344 345 346 346 346 345 344 343 342 341 340 340 338 336 335 335 335 335 337 339 339 337 334
352 353 353 353 353 352 352 353 353 353 351 349 348 348 348 348 349 349 348 345 344 345 346 347 346 345 344 343 342 342 341 340 338 335 334 334 335 336 336 338 340 339
352 352 353 354 353 353 351 350 350 351 351 349 347 347 348 348 348 349 349 347 345 345 345 346 346 346 346 345 344 344 344 344 343 342 340 337 335 334 333 333 335 336
351 351 352 352 353 353 351 349 349 348 349 348 347 347 348 348 348 348 349 348 347 346 345 346 346 346 346 346 346 346 346 346 346 346 346 345 342 339 336 335 334 334
352 352 352 352 352 352 351 351 351 349 348 347 346 346 347 348 349 349 349 349 348 347 346 346 345 345 345 346 347 347 347 347 347 347 348 348 348 346 344 342 341 340
352 352 353 353 352 352 352 352 351 352 351 350 348 347 347 348 349 349 348 348 348 347 347 346 346 345 345 346 347 347 348 348 349 349 350 350 350 349 348 347 346 345
348 349 350 351 351 352 352 352 352 352 351 351 351 350 349 350 351 351 350 348 347 347 347 346 346 347 347 347 348 348 349 349 350 350 350 350 350 349 349 349 348 347
344 346 347 347 347 349 349 351 351 351 352 351 351 351 351 351 351 352 352 351 349 348 347 346 345 345 347 348 348 349 349 349 349 349 349 349 349 349 349 349 349 348
335 341 343 343 343 345 345 346 348 348 349 349 350 350 350 350 350 351 351 351 351 350 350 350 349 348 349 348 349 349 348 348 348 348 348 347 346 346 347 348 348 349
326 331 333 332 334 337 340 342 344 346 347 347 347 347 348 348 348 348 349 349 349 349 349 350 350 350 351 351 351 350 349 348 348 347 347 347 346 347 347 348 348 348
319 320 321 321 322 325 329 332 335 337 341 344 345 346 346 347 347 347 347 348 349 349 349 350 350 350 350 351 351 350 350 349 349 349 349 348 348 349 349 350 350 350

ECMWFNIL_850_thetae_093.txt.gz
Theta_e
344 345 346 347 347 346 347 349 349 347 347 346 343 344 346 344 344 344 344 344 344 343 343 345 345 344 344 344 345 347 348 346 342 341 341 340 340 341 341 341 343 343
343 344 345 346 347 346 345 347 348 347 347 347 345 344 345 345 344 344 344 344 344 343 343 344 346 344 345 346 347 347 347 345 342 340 340 340 340 341 340 340 341 343
342 343 344 345 347 346 344 345 346 347 347 347 346 345 345 345 344 345 344 343 343 344 343 344 345 345 346 348 348 346 345 344 343 341 340 340 340 341 340 340 341 342
339 341 343 345 347 346 345 344 345 345 346 345 345 345 344 344 346 345 344 343 343 343 344 344 344 345 346 347 346 346 345 344 344 343 341 340 340 340 339 339 339 340
336 338 341 343 345 346 346 345 344 345 345 344 344 345 344 344 345 345 343 343 343 343 343 344 345 345 345 346 345 346 346 345 345 343 341 342 342 340 339 338 338 339
335 335 337 339 341 344 345 344 343 345 345 344 343 344 345 345 345 345 344 343 344 343 341 342 344 344 344 345 345 345 345 345 344 343 342 342 343 341 340 339 338 338
336 335 334 335 337 340 343 343 342 343 344 345 344 343 345 347 346 345 345 345 345 344 342 341 342 343 343 344 343 343 343 343 343 343 342 342 343 343 341 340 340 339
335 336 335 334 336 337 340 341 341 341 343 346 346 344 345 347 348 349 347 346 345 345 343 342 341 341 342 342 343 342 343 343 342 342 341 341 343 343 342 342 342 342
335 337 337 336 336 336 337 339 339 340 342 345 346 345 345 346 348 350 351 349 347 345 344 343 341 340 340 341 341 342 342 343 343 343 342 342 342 342 342 343 343 342
335 336 337 338 338 337 337 337 337 338 340 342 344 346 347 346 348 350 351 352 350 349 347 345 342 340 340 340 340 341 342 342 343 343 343 342 342 342 342 342 342 341
335 334 335 336 337 337 336 337 337 337 338 339 342 344 346 346 347 349 351 352 352 352 350 348 345 342 340 339 339 340 340 341 342 342 343 343 342 342 343 342 342 341
336 334 334 334 335 336 336 337 338 337 337 338 340 342 345 346 347 347 349 350 350 351 351 350 349 347 343 341 339 339 339 340 341 341 342 342 342 341 341 342 342 342
339 337 337 336 336 337 336 335 336 337 337 338 339 342 344 346 347 346 346 347 347 348 348 348 347 347 346 344 342 340 340 341 341 342 342 342 342 341 341 341 341 342
345 344 343 342 341 341 340 337 335 334 336 337 339 340 341 343 345 346 346 345 344 344 344 345 345 344 344 343 342 341 341 341 341 341 341 341 341 341 341 341 340 340
349 349 348 347 346 345 346 345 341 336 335 338 340 342 342 342 343 344 346 346 345 344 343 343 345 345 345 344 342 341 340 339 339 338 338 337 337 337 337 337 338 339
351 351 351 351 350 349 349 350 348 343 339 339 342 344 345 345 344 344 345 346 347 347 345 343 344 345 346 345 344 343 342 341 340 339 338 337 336 335 334 333 335 336
354 353 352 353 353 352 350 351 351 350 347 344 344 345 347 348 347 345 345 345 347 347 347 346 344 344 345 345 345 345 344 344 343 343 342 342 341 339 337 335 334 333
355 354 353 353 353 352 351 351 352 353 353 351 348 346 347 349 348 347 346 346 346 347 348 347 346 345 345 345 346 346 346 345 345 345 344 344 344 344 343 341 337 334
353 352 352 352 352 352 352 352 352 353 353 353 352 351 350 350 350 348 347 347 347 347 347 347 347 346 345 345 345 346 346 346 346 346 346 345 345 346 346 346 344 341
351 351 351 351 352 352 352 352 352 352 352 352 352 352 352 352 351 348 347 347 348 347 347 347 347 347 347 346 345 345 345 346 346 346 346 346 346 346 347 347 347 347
350 351 352 352 352 352 352 352 351 351 351 351 350 350 350 350 350 348 347 347 348 347 347 347 348 348 348 347 346 345 345 345 345 346 347 347 347 347 348 348 348 348
346 348 349 350 351 352 351 351 351 351 351 351 351 351 351 351 350 349 347 347 347 347 347 348 348 348 348 348 347 346 345 345 344 345 346 347 347 347 348 348 348 348
343 344 345 346 347 349 349 348 349 350 350 351 351 351 351 351 351 351 350 349 349 349 349 348 348 349 348 349 348 348 348 347 346 346 346 346 347 348 348 349 348 348
341 342 342 343 343 344 345 345 345 346 347 348 349 350 349 349 349 350 350 351 351 351 351 350 349 348 348 348 348 348 348 348 348 348 347 348 348 348 349 349 349 350
334 335 334 334 336 339 340 341 342 343 345 345 346 347 347 347 347 348 349 349 350 350 351 350 350 349 349 349 349 349 349 348 348 348 348 348 348 349 349 349 349 350
325 326 325 324 327 330 332 333 335 337 340 343 344 344 344 344 345 346 347 347 347 348 349 349 350 349 349 349 349 349 349 349 349 349 349 349 349 349 349 349 349 349

ECMWFNIL_850_thetae_096.txt.gz
Theta_e
339 343 346 348 348 348 348 349 349 348 348 347 345 344 344 345 344 343 342 342 343 343 343 343 344 343 343 343 343 343 344 346 347 346 343 342 341 340 340 341 341 342
337 340 344 347 348 348 348 348 349 350 349 348 346 344 345 346 345 344 343 343 343 343 343 343 343 344 343 344 343 344 344 346 346 344 341 340 340 340 340 341 340 340
337 338 340 343 346 347 348 348 348 350 349 349 348 346 345 346 346 345 344 343 343 343 343 342 343 344 344 343 344 345 345 345 345 342 340 340 340 340 341 341 341 340
337 338 338 339 342 345 347 348 348 348 348 349 349 348 347 346 346 345 344 344 343 343 343 342 342 343 343 343 344 346 346 345 344 343 341 340 340 340 341 340 340 340
335 336 336 337 338 341 344 346 346 346 346 348 348 349 348 347 346 345 345 344 343 343 343 343 343 343 343 344 344 344 345 345 345 345 344 342 341 341 341 340 339 339
333 333 334 335 336 338 340 342 343 343 344 346 347 348 348 347 346 345 345 345 343 343 343 342 343 343 343 344 344 343 344 345 345 345 344 342 342 342 341 340 339 338
333 333 333 334 335 337 338 339 340 341 342 344 346 347 347 347 346 345 345 346 344 343 343 342 343 343 344 344 344 344 343 344 344 343 343 342 342 343 342 340 339 338
334 335 335 334 335 335 336 337 337 337 339 342 343 345 346 345 346 346 346 346 346 346 345 344 342 342 343 344 344 344 343 343 343 342 342 342 342 342 342 342 341 340
336 335 335 336 335 334 334 335 335 335 337 339 340 342 344 344 345 347 348 348 348 348 348 347 345 343 343 343 343 343 343 343 343 343 342 342 342 342 342 342 341 341
341 338 336 336 336 335 334 334 334 335 337 337 338 340 342 343 344 346 349 350 350 350 350 350 349 347 345 344 343 343 343 343 343 343 343 343 343 342 342 342 341 341
344 342 338 335 335 336 335 334 335 335 336 337 337 338 340 342 343 344 347 349 350 351 351 351 350 349 348 347 345 343 342 342 343 343 343 342 343 343 343 343 342 341
345 345 342 336 333 336 337 336 336 335 336 336 336 337 338 340 342 344 345 347 349 350 351 351 351 350 350 349 348 346 343 342 342 342 342 342 342 342 342 342 342 342
345 346 346 340 334 334 336 337 337 337 336 336 336 337 337 339 341 343 344 346 346 348 349 349 349 348 348 348 348 347 345 343 342 341 342 342 342 343 342 342 341 341
346 348 349 348 343 339 338 337 337 337 336 336 337 337 337 338 340 342 345 346 346 346 346 345 345 344 344 344 344 344 344 343 342 342 342 342 342 343 343 342 341 341
346 347 349 350 350 348 345 342 339 338 338 337 337 337 338 339 340 343 346 347 347 346 345 345 344 342 342 343 343 343 343 343 343 343 343 343 342 342 341 340 339 338
346 346 347 347 348 349 351 350 346 344 343 342 340 338 338 340 342 344 346 347 347 347 346 346 345 343 343 343 344 345 344 345 345 345 345 344 343 342 341 340 339 338
348 348 346 345 346 347 348 350 351 350 349 349 347 344 341 341 343 344 345 346 347 346 347 347 346 346 344 343 344 345 345 346 346 346 346 345 345 344 343 343 342 341
350 349 347 347 348 349 347 348 351 352 352 352 352 350 348 347 347 346 346 345 345 345 345 346 346 347 346 345 344 344 344 345 345 345 345 345 345 345 344 345 345 345
349 347 346 348 350 351 350 350 350 351 351 351 351 351 351 351 351 350 348 347 346 346 345 345 345 346 347 346 346 345 344 344 344 345 345 345 345 345 345 345 345 346
349 348 348 350 352 351 351 351 350 350 350 350 350 350 350 351 352 352 350 349 349 348 347 346 345 346 346 346 346 346 345 345 344 343 343 343 343 344 345 345 346 346
349 349 349 351 353 353 352 352 351 350 350 350 350 350 349 350 351 352 352 352 351 350 349 347 346 346 346 345 346 346 346 347 345 345 344 343 343 343 344 345 345 346
348 348 349 350 351 352 352 351 351 351 351 351 350 349 349 349 349 351 352 352 351 350 349 348 347 346 346 346 345 345 346 346 346 346 346 345 344 344 344 345 346 346
345 345 347 348 349 350 350 351 351 351 351 350 351 350 350 350 349 350 350 350 350 350 349 349 348 347 347 347 347 347 347 347 347 347 347 346 346 345 345 345 346 347
342 342 344 345 346 347 347 348 348 348 348 349 350 350 350 350 350 350 350 349 350 350 349 349 349 348 348 348 348 348 347 347 347 347 347 347 347 347 347 347 348 348
336 338 340 342 344 344 344 344 344 344 345 347 348 349 349 349 349 349 349 350 350 351 350 349 349 349 349 349 349 349 348 348 348 348 348 348 348 349 349 349 349 349
327 329 331 334 336 337 337 337 338 340 342 343 344 345 345 345 344 345 346 347 347 348 349 349 349 350 350 350 350 350 349 349 349 349 348 348 348 349 349 349 349 349

ECMWFNIL_850_thetae_099.txt.gz
Theta_e
339 341 343 344 346 347 347 348 348 349 348 348 347 347 346 345 343 343 343 343 343 342 342 343 343 343 344 344 343 342 342 342 344 346 347 346 345 344 342 341 341 340
337 338 340 342 345 346 347 348 349 349 349 349 348 347 347 346 346 344 343 343 343 343 343 343 344 344 344 344 343 343 343 345 347 348 347 345 344 342 341 340 340 339
337 336 337 339 342 345 346 347 347 349 350 349 349 348 347 346 346 346 344 344 344 343 344 344 344 344 344 344 343 343 344 345 348 348 346 344 343 341 341 341 341 340
337 337 336 336 338 342 345 346 347 348 348 349 349 348 347 346 346 346 345 345 344 344 344 344 344 344 345 345 344 343 344 346 347 347 345 343 342 341 341 341 342 341
338 338 337 336 336 339 342 345 346 347 347 348 349 348 348 347 347 346 345 345 345 345 345 344 344 344 344 344 344 344 345 346 346 345 344 343 342 342 342 342 342 342
339 337 337 337 336 337 340 342 344 346 346 347 347 348 349 349 348 347 346 345 345 345 345 344 344 344 344 344 344 345 345 344 345 345 344 344 344 343 342 342 342 341
339 337 337 337 337 338 339 339 341 344 345 345 346 347 348 349 348 348 347 346 346 346 345 344 344 344 344 344 344 345 345 344 345 346 345 345 345 344 343 343 343 342
340 337 335 336 336 337 339 339 338 340 342 343 344 345 346 347 347 347 347 346 346 346 345 343 343 343 344 344 344 345 344 344 345 346 345 345 344 343 344 344 344 343
341 338 336 336 336 336 338 338 338 338 340 341 342 344 345 345 346 346 346 346 346 346 346 345 344 343 343 343 343 344 344 344 344 345 345 344 343 343 344 344 344 344
341 340 338 337 336 336 336 337 337 337 338 338 340 342 343 344 345 345 345 346 347 347 347 347 346 344 342 342 342 342 342 343 344 344 344 344 344 344 345 344 344 344
343 342 341 340 338 336 335 336 336 335 335 336 337 339 341 342 343 344 344 344 346 347 348 348 348 347 345 343 342 341 342 342 343 343 343 344 344 344 345 344 344 344
344 344 344 343 341 339 337 336 337 335 334 334 335 337 339 340 341 343 343 343 344 347 348 349 350 349 348 346 345 344 343 342 341 342 342 342 343 343 344 344 343 344
345 345 345 345 344 343 340 338 338 338 336 335 335 336 338 339 339 340 342 343 344 345 347 349 350 351 350 349 349 348 347 344 342 341 340 341 342 343 343 343 342 342
344 345 346 346 345 345 344 340 339 340 338 337 336 336 337 338 338 339 340 342 343 344 346 348 349 350 350 349 349 348 347 346 344 343 342 341 342 343 343 343 342 342
344 345 346 346 346 346 346 343 340 340 340 339 338 337 337 338 338 339 339 340 342 344 345 346 347 347 347 346 347 347 346 346 345 344 344 343 343 343 343 343 342 341
344 345 346 346 346 346 348 346 343 341 340 339 338 338 338 337 338 338 339 340 343 345 346 346 347 346 344 344 345 346 346 346 346 346 345 345 344 344 343 342 342 342
344 344 344 345 346 347 348 348 345 343 341 338 336 336 337 337 337 337 338 341 344 346 347 347 347 346 345 344 344 345 346 346 346 346 346 346 346 345 345 344 344 344
345 345 344 345 346 347 348 348 347 346 344 341 337 337 338 339 339 337 338 341 345 346 347 347 347 347 346 346 345 344 344 345 345 346 345 346 346 346 346 346 345 345
347 346 346 345 346 347 349 349 348 348 348 345 342 340 341 342 342 340 339 341 345 347 347 346 346 346 346 346 346 345 344 344 344 345 345 345 345 345 345 346 346 345
349 348 347 348 348 348 349 349 349 349 349 348 347 346 345 345 346 345 343 342 344 345 346 347 347 346 346 346 346 346 345 345 344 344 345 344 344 344 344 344 344 345
349 349 348 349 349 350 350 348 348 349 349 348 348 349 348 348 348 349 348 347 347 348 349 350 349 348 347 346 346 346 346 346 345 345 344 344 344 344 343 343 343 344
349 349 349 349 349 350 349 347 347 350 350 349 349 349 349 349 349 350 350 350 350 350 351 351 351 351 349 348 346 346 345 345 345 345 345 345 344 344 344 344 343 343
347 348 348 349 349 349 349 348 349 351 351 351 350 350 349 350 350 350 350 349 350 350 350 350 351 350 350 349 348 347 346 346 345 345 346 346 346 346 346 346 345 345
343 344 345 345 346 348 348 349 350 351 351 351 350 350 350 350 350 350 349 349 350 350 349 349 349 349 349 349 349 348 347 347 346 346 347 346 347 347 347 347 347 347
337 340 341 342 343 344 345 346 347 348 350 351 350 350 350 351 350 350 350 350 350 350 349 349 349 348 348 348 348 348 348 348 348 348 348 348 348 348 348 348 348 348
328 332 335 337 338 338 339 341 344 346 347 347 348 349 349 349 349 348 347 348 349 350 350 350 350 348 348 348 348 349 349 349 349 349 349 348 348 348 348 348 348 348

ECMWFNIL_850_thetae_102.txt.gz
Theta_e
343 344 344 346 347 351 352 353 352 351 351 352 353 352 349 345 344 344 344 344 344 345 345 346 345 345 345 344 343 344 343 343 348 347 342 343 346 348 351 349 349 350
342 343 343 346 347 346 348 350 352 352 350 350 352 353 350 345 344 344 344 344 345 346 345 345 346 345 345 345 344 345 345 343 346 350 347 344 347 349 350 350 349 348
342 342 342 346 348 348 349 351 349 349 352 352 351 351 350 349 347 345 344 344 345 347 346 345 346 346 345 346 345 345 347 344 347 353 350 345 348 352 352 352 351 350
341 341 344 349 352 351 352 354 350 348 353 353 352 352 351 351 349 346 344 344 345 346 346 345 346 347 346 345 345 346 348 346 345 349 347 345 346 349 352 353 353 352
342 340 344 349 352 353 353 353 352 351 352 353 355 353 350 347 347 347 346 344 344 345 347 346 345 347 347 345 345 348 351 350 349 347 343 344 346 348 352 353 351 351
344 341 341 344 348 351 352 352 352 352 353 352 354 355 352 348 347 349 349 347 348 349 351 351 348 349 351 347 344 347 352 354 356 352 345 345 349 351 355 353 348 347
346 344 342 343 346 348 349 351 352 352 352 353 353 354 354 352 350 349 348 347 351 352 353 353 349 347 351 350 346 344 347 351 354 352 346 348 351 350 353 353 348 345
348 348 347 344 346 348 349 349 351 351 351 353 353 353 353 354 353 352 349 348 351 352 351 350 347 343 347 352 350 346 346 350 353 350 347 349 350 346 346 349 347 345
348 350 349 347 347 348 348 349 349 350 350 351 352 352 352 353 353 354 352 347 348 349 346 346 345 343 347 351 350 346 346 350 354 354 351 351 351 349 348 349 348 347
349 349 349 349 348 348 348 349 348 349 350 351 350 350 352 352 353 355 353 346 346 346 344 344 345 344 346 349 348 346 345 346 349 349 348 350 353 354 353 352 352 350
350 349 349 349 349 347 348 348 347 347 348 350 350 349 350 352 352 354 352 347 346 349 347 345 345 345 345 348 350 350 347 348 349 347 345 347 349 349 348 349 350 351
348 349 349 349 348 348 348 348 348 347 347 348 348 348 349 351 352 354 352 348 347 350 351 349 347 346 345 345 350 354 352 351 352 349 348 347 347 348 347 347 348 349
346 347 348 349 350 349 348 348 347 347 347 348 348 347 348 349 351 353 353 351 347 348 352 351 347 347 346 343 346 353 354 354 354 353 352 351 350 351 351 352 351 351
346 346 346 346 348 349 349 349 349 348 348 348 348 349 348 347 349 351 352 352 351 350 351 351 348 347 347 343 344 348 352 354 354 354 354 354 353 352 352 354 354 355
344 345 345 344 345 346 348 349 350 350 349 350 350 350 348 347 348 350 351 352 352 352 351 351 351 350 351 350 348 349 351 354 354 354 354 355 354 353 353 354 353 354
344 343 343 344 344 345 346 347 348 349 348 348 349 349 349 349 348 349 351 351 351 352 351 350 351 352 352 350 349 350 352 354 355 354 354 354 354 353 353 353 352 352
345 343 343 345 345 346 346 346 346 348 348 346 344 345 346 347 346 348 350 351 351 351 350 350 350 351 351 347 345 347 349 352 354 354 352 351 352 352 352 352 352 351
344 343 342 344 345 346 346 346 346 348 349 346 342 342 343 343 343 345 346 349 351 351 349 350 350 350 350 347 344 345 345 347 352 354 353 352 352 353 352 352 352 352
345 343 342 342 343 344 345 346 345 347 349 348 344 341 342 343 343 344 343 345 349 351 351 351 350 350 350 348 346 346 346 345 347 350 353 354 354 355 354 353 353 353
347 346 345 344 344 344 345 345 345 346 348 350 348 345 346 345 345 347 347 344 345 348 350 350 351 350 350 348 346 347 347 346 345 347 350 353 354 354 354 354 353 351
349 348 348 347 345 345 345 344 344 345 347 349 349 349 350 351 350 351 352 349 346 346 347 349 349 347 347 347 346 346 347 346 346 345 347 351 353 352 350 349 349 346
349 350 350 349 349 348 348 347 345 346 346 348 350 350 350 352 352 352 353 353 352 351 351 350 346 343 344 344 344 345 346 346 347 346 347 349 351 350 345 345 345 344
348 349 350 350 350 350 349 348 347 347 347 348 348 350 350 350 351 352 353 355 354 353 353 349 344 342 343 342 343 345 346 346 346 346 346 348 350 349 345 345 346 345
346 347 348 349 349 349 349 349 348 348 348 349 348 348 349 350 350 351 352 353 353 352 352 349 347 347 346 345 346 347 347 347 348 347 346 348 350 349 348 348 348 345
343 343 344 345 347 347 347 348 348 348 349 349 347 347 349 350 350 350 351 351 351 350 350 350 350 350 349 349 349 349 349 349 349 349 351 352 353 352 353 353 352 349
337 338 339 340 343 344 344 345 346 346 347 348 347 347 350 350 350 350 350 349 349 348 347 348 350 350 349 349 349 348 349 350 349 351 353 354 355 354 353 354 353 351

ECMWFNIL_850_thetae_105.txt.gz
Theta_e
350 352 352 354 356 356 357 356 354 354 353 353 352 352 354 353 351 351 353 350 344 345 347 347 347 345 345 346 343 345 349 351 355 355 352 351 352 354 354 352 351 351
350 354 354 355 356 354 355 356 356 355 353 352 353 354 354 354 352 350 352 350 346 346 347 346 347 345 346 350 347 344 346 345 349 356 353 349 352 355 354 353 352 350
351 354 353 355 355 352 354 356 355 355 353 353 355 355 354 354 354 350 349 350 350 351 349 345 347 346 346 350 347 345 350 346 345 356 358 350 351 356 356 353 353 352
351 353 353 355 354 352 353 355 354 353 354 355 355 354 354 355 355 353 349 347 348 353 352 347 348 348 345 346 344 346 352 350 346 352 355 349 348 354 355 355 355 354
352 353 353 354 354 354 353 354 354 353 353 355 355 354 354 355 356 355 352 348 346 350 351 348 347 349 347 345 343 346 351 353 351 349 347 345 348 352 354 355 355 355
353 353 353 353 354 355 354 354 354 353 352 354 354 354 355 354 354 355 355 353 350 351 353 353 351 352 352 348 344 345 349 351 352 350 347 345 349 354 356 356 356 355
354 353 353 352 353 353 353 354 355 354 353 353 353 353 354 354 353 355 356 355 354 354 355 355 354 354 352 349 347 346 346 348 350 350 349 346 348 352 354 357 356 350
352 352 352 352 352 351 352 352 353 354 353 353 353 353 354 355 354 355 355 355 355 355 355 356 356 353 350 351 352 349 346 350 352 349 346 346 348 347 347 353 353 347
351 351 351 351 351 350 350 349 350 352 353 353 353 353 353 354 354 355 356 355 355 355 355 356 356 352 351 354 356 352 348 352 355 353 350 350 352 349 349 352 351 348
351 350 349 349 348 348 349 349 348 349 351 352 353 352 352 353 353 355 356 354 354 356 354 352 353 351 351 355 356 353 350 351 355 357 355 354 355 355 355 355 354 353
351 350 349 348 348 347 346 348 347 347 348 350 351 351 351 353 353 355 357 352 350 355 355 351 350 350 350 353 356 355 352 352 354 355 354 354 354 354 355 355 354 354
352 351 349 348 348 347 346 346 346 346 347 348 350 349 349 351 352 354 356 353 350 354 357 353 349 350 351 351 354 356 355 354 355 354 354 354 354 354 354 354 354 354
353 353 351 349 348 347 346 346 346 345 346 347 348 349 348 349 351 353 355 355 352 352 357 356 350 350 352 349 352 356 356 355 355 355 355 355 354 355 355 355 355 354
354 354 353 351 349 348 347 347 347 347 346 346 347 348 348 347 348 351 354 356 356 354 355 357 353 350 351 350 351 355 356 356 356 355 355 356 355 355 354 355 355 354
356 355 353 352 351 351 350 349 348 348 348 348 348 348 349 348 347 348 351 353 356 355 355 356 355 352 352 353 353 353 354 355 355 355 355 356 357 356 355 355 354 354
354 352 349 348 348 350 351 351 351 351 350 350 351 350 350 349 348 347 349 351 353 355 354 354 355 353 351 353 353 351 352 354 354 356 356 356 357 357 356 355 354 352
351 351 348 345 345 347 348 349 351 353 353 352 352 352 352 352 351 348 347 348 351 353 353 352 353 351 350 352 352 350 352 355 356 356 357 357 356 356 355 354 353 352
348 350 350 347 346 346 346 347 348 350 353 354 354 353 353 353 352 351 349 349 349 351 351 351 350 350 349 351 351 349 349 351 353 355 356 355 355 355 354 354 353 351
346 347 349 348 347 347 347 347 346 346 349 353 355 356 356 355 353 352 351 351 349 350 351 350 349 348 349 350 351 350 347 346 348 352 353 354 355 355 354 354 354 353
348 347 348 348 348 348 348 349 348 348 347 349 352 354 355 355 354 353 353 352 351 350 351 350 349 349 349 349 350 351 348 345 345 348 351 352 354 355 355 355 354 354
349 348 348 348 348 348 348 347 347 347 347 347 349 350 351 352 350 349 351 352 352 351 349 349 351 350 349 348 349 350 350 346 344 346 349 350 351 353 355 354 353 354
350 350 350 349 349 348 347 345 344 345 345 346 346 347 349 350 349 348 350 349 349 349 348 348 350 351 350 349 350 351 349 347 345 345 347 348 349 351 353 355 355 356
349 349 350 350 350 349 348 347 346 346 346 346 346 346 347 349 349 349 349 347 346 347 347 347 347 349 349 349 350 350 348 346 346 346 348 349 350 351 354 356 354 353
347 348 348 349 350 350 350 350 349 349 348 346 345 345 346 347 349 350 349 347 347 346 345 344 344 346 347 347 347 348 347 346 345 346 350 353 352 352 356 356 353 351
344 345 346 346 347 348 349 350 350 350 349 348 347 346 346 347 349 350 350 350 350 348 346 345 343 344 345 345 345 346 346 346 347 348 351 353 352 351 352 353 352 352
339 341 343 343 344 346 346 347 348 349 349 349 348 348 347 348 348 349 350 351 351 350 348 347 345 343 344 345 346 347 348 349 349 349 350 351 353 351 351 350 351 351

ECMWFNIL_850_thetae_108.txt.gz
Theta_e
344 344 345 345 346 346 347 349 350 349 351 351 348 349 352 352 352 352 352 350 345 343 345 345 343 343 345 346 347 349 350 349 353 354 350 346 345 348 353 352 350 349
345 344 345 345 345 348 350 350 350 351 352 352 350 351 352 350 351 352 353 352 346 342 343 344 344 343 343 344 343 345 346 346 351 352 349 348 347 349 353 353 350 349
349 347 345 348 347 346 348 349 350 352 352 352 352 354 353 350 350 350 350 351 348 345 345 344 345 344 342 344 344 343 345 344 347 350 349 348 348 350 353 353 351 351
352 351 349 351 352 349 349 350 352 352 351 351 352 352 352 351 351 349 347 348 348 349 349 345 345 345 344 344 344 343 344 345 346 347 347 347 346 348 352 354 353 354
351 354 353 353 354 352 351 352 352 351 349 351 351 350 351 352 352 350 348 347 346 348 351 348 345 346 345 345 345 343 342 345 346 346 346 347 345 345 349 353 353 354
349 351 353 353 354 353 351 351 351 351 351 352 352 351 352 353 353 353 352 349 346 347 352 353 348 347 347 346 345 344 344 345 346 346 346 346 344 345 350 354 355 354
351 351 351 352 354 354 353 352 351 351 350 351 352 351 352 353 353 353 352 351 351 351 353 354 351 349 349 349 347 346 345 345 345 346 347 346 344 344 348 353 357 355
354 353 352 353 353 352 353 353 352 353 352 351 352 352 352 353 353 353 352 353 355 354 353 354 353 350 349 350 348 346 345 346 346 346 347 347 344 343 346 349 353 352
353 353 353 353 352 351 352 352 352 353 353 352 353 352 351 351 353 354 353 354 355 354 355 355 353 350 349 349 348 346 345 348 351 350 350 348 344 343 345 346 347 348
351 352 352 352 351 351 350 351 350 351 353 353 353 353 350 350 352 353 353 354 353 354 356 354 351 349 348 348 350 347 345 348 351 351 350 349 347 347 349 350 350 350
350 350 350 350 349 350 349 349 349 348 350 351 351 352 351 351 352 351 353 354 352 353 355 353 351 352 350 349 352 351 348 348 350 350 349 349 350 351 354 355 354 352
352 351 350 349 348 348 348 348 348 347 347 349 350 351 351 351 351 351 353 353 351 352 353 351 350 352 352 350 352 355 354 352 351 350 350 350 349 351 353 354 352 350
353 352 351 350 349 348 348 347 347 346 346 347 348 350 350 350 350 350 352 352 349 349 351 350 347 349 351 349 349 353 354 354 353 353 352 352 351 351 353 354 353 352
353 352 353 352 350 349 348 347 346 346 346 346 346 348 349 350 349 349 351 352 350 349 350 350 349 350 351 348 347 349 351 353 355 354 354 354 353 353 354 354 354 354
355 354 354 353 352 351 349 349 347 346 346 347 346 347 348 349 348 348 349 351 352 351 350 352 353 353 352 349 346 345 349 352 354 354 354 354 354 355 353 352 352 353
355 354 352 349 350 350 349 350 350 349 348 348 347 347 348 349 348 347 347 349 350 352 352 353 354 353 353 352 348 346 349 352 353 354 354 354 354 355 354 352 352 352
352 352 352 349 349 347 346 346 347 348 350 350 350 350 349 349 350 349 348 347 348 350 352 353 353 352 353 353 350 349 350 351 351 351 353 354 355 355 354 353 352 352
352 352 351 351 350 348 345 344 342 343 344 346 349 351 351 351 352 352 351 349 348 348 350 351 351 350 350 351 351 351 350 350 349 349 352 353 353 354 354 353 352 352
352 353 351 350 349 347 345 344 343 341 340 339 342 347 351 353 353 351 351 350 349 348 348 349 349 349 350 349 349 350 351 351 350 349 350 351 351 353 354 353 352 352
349 350 350 349 348 348 346 345 345 345 344 341 338 342 350 353 353 352 351 350 349 349 349 349 349 349 350 349 349 350 352 353 351 350 349 349 350 352 352 352 352 351
350 350 349 349 348 348 346 346 346 348 348 346 343 345 349 352 353 352 350 349 348 348 350 351 349 349 350 348 349 350 352 352 351 350 349 348 349 350 349 350 350 348
351 351 350 350 349 348 347 347 348 348 349 348 348 348 349 352 353 352 349 348 348 347 350 351 350 349 350 349 349 350 350 350 350 350 349 348 349 349 349 349 348 346
349 350 350 350 350 349 348 348 349 349 348 349 349 349 349 350 351 351 350 350 350 349 350 351 351 349 348 348 349 350 349 349 350 350 349 350 349 348 348 349 347 347
346 347 348 349 350 350 350 349 349 348 348 348 348 348 347 346 347 347 348 349 350 350 348 348 348 348 348 347 348 349 350 350 350 350 349 350 350 349 349 349 348 348
343 344 345 346 347 349 349 349 350 349 349 348 348 347 346 345 345 345 345 346 348 348 347 345 345 345 345 346 346 348 349 349 349 349 348 348 348 347 349 350 349 349
339 341 342 343 344 345 347 347 348 348 348 349 349 349 348 347 346 345 345 346 347 348 348 346 345 343 343 344 344 345 346 348 348 347 345 344 345 346 348 350 349 348

ECMWFNIL_850_thetae_111.txt.gz
Theta_e
345 344 346 347 346 346 345 344 345 345 345 344 345 346 346 345 348 348 343 342 344 343 342 344 344 343 343 345 346 348 352 351 347 349 349 343 343 348 349 348 349 348
344 344 345 346 345 344 344 344 346 346 345 346 346 346 346 347 349 351 350 348 346 344 343 344 344 344 344 343 344 346 349 348 348 351 350 344 343 347 349 350 350 348
343 343 344 344 344 345 346 346 347 347 347 348 348 347 347 348 349 350 351 351 348 346 343 342 344 343 344 343 342 343 344 344 346 348 347 345 345 347 348 350 350 349
343 344 344 344 344 345 348 348 348 348 349 350 350 350 350 350 350 349 350 350 348 346 343 341 343 344 343 343 342 343 343 343 344 345 344 346 347 346 347 350 351 352
344 344 344 344 345 346 347 348 348 348 349 349 350 352 352 351 350 350 349 348 346 346 344 343 344 344 344 343 343 343 343 341 343 343 343 345 346 345 347 351 353 353
347 347 346 346 347 349 348 348 348 348 348 347 349 351 351 349 350 350 348 347 347 346 345 345 346 344 344 344 344 344 343 342 342 343 344 344 345 345 345 350 353 354
347 347 347 348 350 351 350 349 349 349 347 348 350 349 349 349 350 351 349 349 349 347 345 347 349 348 345 345 345 344 344 344 343 343 344 345 345 344 344 348 353 354
348 346 346 350 351 351 352 351 350 350 348 349 350 350 350 350 350 351 352 350 350 349 348 348 350 351 348 347 346 345 345 345 345 343 344 346 346 344 343 345 351 353
352 350 348 350 352 351 353 353 352 351 350 350 350 350 351 351 351 352 352 351 351 352 352 351 352 353 352 350 347 346 346 345 345 345 345 347 346 345 342 343 347 349
354 354 353 352 352 352 351 352 351 351 351 352 352 352 352 351 351 352 352 352 353 354 354 354 353 353 353 351 348 348 347 346 346 346 347 349 349 348 345 344 347 348
353 353 354 353 352 352 351 351 351 350 350 351 352 352 352 352 351 351 351 353 353 353 352 352 353 353 352 351 349 348 348 348 347 346 347 350 351 350 349 351 352 353
352 352 353 352 351 350 351 351 350 349 349 348 349 349 351 352 351 350 351 352 352 352 351 352 352 352 351 350 349 350 351 351 350 348 346 348 349 350 351 353 355 355
351 350 351 350 350 349 349 349 349 348 348 348 348 348 349 350 350 350 351 350 350 352 352 351 350 350 351 350 349 350 352 353 354 352 350 348 349 350 350 352 353 353
351 351 350 350 349 348 348 348 347 347 347 347 347 347 348 348 349 350 350 349 350 351 351 350 349 348 348 349 351 351 352 354 355 354 353 352 352 352 352 352 353 353
352 352 351 350 349 348 348 348 347 347 346 346 346 346 347 348 349 350 349 349 349 350 351 351 350 349 348 349 351 351 352 353 353 354 354 353 353 354 353 353 353 352
354 353 351 351 350 348 348 347 347 347 347 346 346 345 346 347 347 348 349 349 349 349 350 350 351 351 350 350 350 349 349 350 350 353 354 354 354 354 352 351 352 351
356 355 352 350 350 349 349 348 348 347 346 346 346 346 346 346 346 348 347 347 348 350 350 350 352 351 352 352 351 350 350 349 349 353 354 354 354 353 352 352 352 351
356 356 353 350 349 348 348 349 349 348 347 347 347 346 347 346 347 347 347 346 347 349 349 349 351 352 351 351 351 351 351 351 350 352 352 352 353 353 353 354 352 350
353 354 353 351 350 349 348 348 348 348 348 347 347 348 348 348 347 348 348 347 347 348 348 347 347 349 350 350 350 350 351 350 350 352 352 350 351 352 352 352 351 350
349 352 351 352 352 351 349 348 347 347 347 347 348 347 346 345 344 344 346 348 349 350 350 349 347 347 348 348 349 349 350 350 350 352 351 349 349 350 350 349 350 350
346 347 349 350 352 352 351 350 349 347 346 346 347 347 346 344 341 340 343 348 351 351 350 349 348 348 348 348 349 348 349 348 350 351 351 348 348 349 348 348 349 349
348 348 347 347 349 351 351 350 349 348 347 346 346 348 348 346 344 342 342 346 351 351 349 348 348 347 347 347 348 349 348 348 350 352 352 348 347 348 347 347 348 348
351 351 350 349 349 350 350 349 349 348 347 346 346 348 349 347 347 346 346 348 350 350 346 345 344 344 343 344 346 348 349 350 350 352 351 349 348 348 348 347 346 345
349 349 350 350 350 350 350 349 349 348 348 347 347 349 350 348 348 350 351 351 351 350 346 344 344 345 345 345 347 347 348 350 350 351 350 349 350 349 349 347 345 344
345 345 346 347 347 348 349 350 350 349 349 348 348 349 349 348 348 349 350 351 350 349 348 347 346 346 347 347 347 347 348 348 350 351 350 350 350 350 349 347 346 345
341 342 343 344 345 346 347 348 349 349 349 349 349 349 349 348 348 348 348 348 348 347 347 347 347 347 348 347 346 345 346 347 348 350 350 350 350 349 348 347 345 344

ECMWFNIL_850_thetae_117.txt.gz
Theta_e
348 348 348 347 347 347 346 346 345 346 346 346 344 343 343 342 343 342 342 342 343 343 342 341 341 342 343 345 346 346 345 345 343 341 341 341 341 343 345 344 345 346
348 348 348 348 348 347 346 346 346 346 347 347 346 346 345 344 343 342 341 342 342 342 342 341 342 343 343 343 344 345 346 346 346 343 342 342 340 340 341 342 344 345
346 346 347 348 348 347 346 346 347 347 347 347 347 346 345 345 345 344 342 341 341 342 342 341 342 343 343 343 342 343 344 345 347 346 344 343 343 340 340 342 344 345
345 345 345 346 346 345 346 347 348 348 348 347 346 346 345 344 345 346 345 343 343 344 345 344 344 344 343 342 342 342 342 342 345 345 343 344 344 342 340 341 343 346
344 344 344 346 346 345 346 347 348 348 348 346 345 345 345 344 344 345 346 346 345 346 347 346 347 346 344 342 342 342 341 341 342 342 341 342 343 343 342 342 343 345
342 343 343 345 346 347 347 347 347 347 346 345 344 345 344 344 344 344 346 347 347 348 348 347 347 347 344 342 342 342 342 341 341 341 340 341 342 342 343 343 343 344
342 342 342 343 345 346 346 346 346 346 344 344 345 345 346 345 345 345 346 348 348 349 348 347 346 347 345 343 342 342 342 342 342 341 340 340 341 341 342 343 343 343
342 342 342 342 343 344 344 344 344 344 344 345 345 346 348 347 347 348 349 349 349 349 349 347 346 346 346 345 343 343 343 342 342 342 341 341 341 341 342 343 343 343
342 342 342 342 343 343 343 343 344 345 346 346 346 347 348 348 349 350 350 349 350 349 348 348 347 345 346 347 346 344 343 343 343 342 342 342 342 342 343 343 344 343
341 342 342 342 342 343 343 343 343 345 347 347 347 348 348 348 349 349 350 350 350 349 349 349 348 345 345 347 348 346 345 345 344 344 343 343 343 343 343 344 345 344
342 343 344 343 342 343 344 344 345 346 347 347 348 348 347 348 349 349 350 350 350 350 349 348 348 347 346 347 349 349 348 347 346 346 345 344 344 343 344 345 346 346
342 343 344 344 344 345 345 346 347 348 347 347 347 347 347 348 350 350 349 349 349 350 349 348 349 350 349 349 350 350 350 349 348 347 346 345 344 345 347 348 349 349
343 343 344 343 344 345 346 347 349 349 348 348 348 348 348 349 350 350 349 349 349 349 349 349 349 350 350 350 350 350 350 349 349 348 348 347 347 349 350 349 350 350
342 343 343 343 344 345 345 345 348 349 349 349 349 350 350 350 350 350 351 350 349 349 349 349 350 350 349 349 350 350 349 348 348 349 349 349 349 350 350 349 350 350
346 345 344 344 347 349 347 345 346 348 349 349 349 350 349 349 349 349 350 351 350 350 349 350 350 350 349 349 349 349 349 348 348 349 350 350 350 350 350 350 350 350
350 351 351 350 351 352 351 349 348 348 349 350 350 349 349 348 348 348 349 350 350 350 350 350 350 350 350 350 350 349 348 348 348 348 348 349 350 350 349 350 350 350
350 352 353 353 353 353 352 352 351 350 350 350 350 349 349 348 348 347 348 348 349 350 350 349 349 349 350 351 350 350 349 349 348 347 346 347 347 347 347 349 350 350
349 350 351 351 351 351 351 352 352 352 352 351 349 349 349 348 347 346 346 347 347 348 349 349 349 349 349 349 350 350 350 350 349 348 347 346 346 346 345 346 348 350
350 350 351 350 349 348 350 351 351 350 351 351 350 349 348 347 347 346 346 345 345 346 347 348 348 348 348 348 348 349 350 351 351 350 350 349 347 346 345 344 346 349
349 350 350 349 348 347 349 351 350 349 350 350 349 348 347 347 346 346 345 345 345 345 346 347 347 347 347 347 347 348 349 350 351 351 351 351 349 347 345 345 347 348
349 349 349 349 349 348 348 349 349 349 349 348 347 346 347 347 347 346 346 346 346 346 346 346 346 346 346 346 347 347 347 348 350 351 350 350 349 348 347 347 348 347
349 350 351 351 350 350 349 349 350 351 351 350 349 346 346 348 348 347 347 347 346 346 346 346 346 346 347 347 346 347 346 347 348 349 349 349 349 349 349 348 348 347
351 351 352 351 350 349 348 349 350 351 351 352 352 350 350 350 348 347 348 348 348 348 347 347 347 347 347 347 346 346 346 346 346 346 347 348 348 349 349 349 349 349
351 351 350 349 349 347 345 347 348 348 348 350 352 352 352 351 349 347 348 349 349 349 348 347 347 348 348 348 348 348 347 347 347 346 347 347 348 348 348 348 349 350
349 349 348 348 347 346 345 345 345 346 347 348 349 349 349 349 348 348 349 350 349 349 348 348 348 348 348 349 349 349 349 349 348 348 347 347 347 347 348 348 348 349
347 348 349 348 348 348 347 348 347 347 346 346 346 347 347 348 348 348 349 350 349 349 349 349 349 349 348 347 348 349 349 349 349 348 347 346 345 346 348 349 350 350

ECMWFNIL_850_thetae_120.txt.gz
Theta_e
346 347 347 347 348 348 347 347 348 346 342 342 342 341 340 340 341 341 341 342 341 341 341 340 342 342 343 343 345 347 346 345 345 344 343 342 343 342 343 345 345 346
345 346 347 347 347 348 348 348 348 348 346 345 345 344 342 341 342 342 342 342 342 341 341 341 340 340 341 342 344 346 346 346 347 346 344 344 343 341 341 342 344 344
345 346 346 347 347 348 348 348 348 349 348 347 347 347 346 345 344 344 343 342 341 342 341 341 341 340 341 343 344 345 345 345 347 347 347 346 345 343 341 341 343 344
345 345 345 346 347 347 348 348 349 348 348 347 348 348 348 348 347 345 344 342 341 341 341 340 341 341 341 343 344 344 344 344 345 346 347 347 346 346 344 341 343 345
345 345 345 345 345 346 347 348 348 348 347 348 348 348 348 348 348 346 345 345 343 342 341 341 341 341 341 341 342 343 342 342 343 343 344 345 344 345 345 342 342 344
343 344 344 345 344 344 345 346 346 347 347 348 349 348 348 348 347 345 345 346 346 345 344 344 343 343 342 342 341 341 342 342 342 342 341 342 342 342 343 343 343 344
342 342 343 344 344 343 344 345 346 346 346 347 348 348 348 346 346 345 344 345 346 347 347 348 348 346 346 345 342 341 341 342 342 342 341 340 341 341 341 342 342 343
341 341 342 343 343 343 343 345 346 346 347 347 347 347 347 345 345 344 344 344 345 347 348 349 349 349 349 347 346 344 342 342 342 342 341 341 340 340 341 341 342 342
342 341 341 341 341 342 342 344 344 345 346 346 345 345 345 344 345 346 346 346 346 347 349 349 350 350 350 349 348 347 345 343 342 342 342 341 342 341 341 341 341 341
342 341 341 341 341 341 341 342 343 344 345 345 344 344 344 345 346 347 348 348 348 348 349 350 350 350 351 349 348 347 347 346 344 344 344 343 343 342 342 342 342 342
342 342 341 340 341 341 341 341 342 343 344 344 344 346 346 346 346 348 349 349 349 349 349 350 350 350 351 350 347 346 348 348 348 347 347 346 345 344 344 343 343 343
340 341 341 340 341 341 341 341 342 342 342 343 344 346 347 347 348 348 349 349 349 349 349 349 350 350 351 350 348 347 349 350 350 349 349 348 346 346 344 344 344 344
341 341 341 341 341 342 342 342 342 342 343 344 345 347 347 348 349 348 348 349 349 349 349 350 351 350 350 350 350 349 350 351 351 351 350 349 347 346 345 345 345 345
343 341 342 342 341 342 343 343 343 344 345 346 347 348 348 348 348 348 348 349 350 350 350 351 351 351 351 351 351 351 351 351 351 352 351 349 348 347 346 346 346 345
341 341 342 342 341 342 343 344 344 345 346 347 349 350 349 349 349 349 349 349 350 350 350 350 351 350 351 351 351 351 351 351 352 352 351 349 348 347 347 347 347 346
340 340 341 342 342 342 343 343 345 345 346 348 350 350 350 350 350 350 350 350 350 350 351 350 350 350 350 351 351 351 351 351 352 352 352 350 349 347 347 348 349 349
344 341 341 342 342 342 343 343 344 345 345 346 348 350 350 350 350 350 350 350 349 349 350 350 350 350 349 350 350 351 351 351 352 352 352 351 350 348 347 347 349 349
347 345 343 343 343 343 343 342 343 345 346 345 345 348 350 350 350 350 350 349 349 348 348 348 349 349 349 349 349 350 350 350 351 351 351 351 350 348 347 347 347 347
348 347 346 344 344 346 346 345 345 347 348 346 344 346 349 351 351 349 349 349 348 348 347 347 348 349 349 349 349 349 349 349 350 350 351 350 350 350 348 348 348 347
348 348 346 345 346 348 350 350 348 349 348 346 346 346 348 349 349 349 348 348 347 346 346 346 346 347 347 348 348 348 348 348 348 349 349 350 350 350 350 350 350 350
351 350 348 347 349 350 351 351 349 348 348 347 347 348 348 349 349 348 348 347 347 346 345 345 346 345 346 346 347 347 347 347 347 347 348 349 349 349 349 349 350 350
352 352 351 350 351 349 349 348 348 347 347 347 347 347 347 348 348 348 347 347 347 346 345 345 345 345 345 346 345 345 346 346 346 346 347 347 348 348 349 349 349 349
350 350 350 349 349 347 346 347 348 348 349 349 349 348 348 349 349 349 348 347 347 346 345 345 346 346 346 346 346 345 346 346 346 346 346 347 347 347 348 348 348 349
349 349 350 349 349 348 348 348 349 348 349 351 352 352 351 351 351 351 350 349 348 347 347 346 347 347 347 347 346 347 346 346 347 346 346 346 346 346 347 347 347 348
347 347 349 350 349 349 350 350 350 349 348 349 350 350 350 349 349 350 351 350 349 349 348 348 347 348 348 348 348 347 347 347 347 347 347 347 346 346 346 346 347 348
344 344 347 348 348 349 349 349 349 349 348 348 347 347 347 346 346 347 348 349 349 348 348 348 347 348 348 349 348 348 348 348 348 348 348 347 347 347 347 346 347 347